ECMWFNIL_500_spd_000.txt.gz
Wind_Speed
34 35 36 37 38 39 40 41 43 44 45 47 48 49 48 47 46 45 44 43 42 40 37 36 36 36 36 36 36 38 40 42 42 41 41 40 40 41 42 41 40 41
35 36 36 37 38 40 41 42 43 44 46 47 49 49 48 46 44 44 44 43 42 40 37 35 34 35 36 37 37 38 40 41 42 42 41 40 40 41 42 42 42 43
36 37 37 38 39 40 42 44 44 44 46 47 47 47 45 44 43 43 43 42 42 40 38 36 34 34 35 36 38 39 40 42 42 43 42 40 40 40 41 43 45 45
37 37 37 38 39 41 42 44 44 44 45 46 45 44 43 42 42 42 42 42 41 41 40 38 35 34 35 36 38 40 41 42 43 44 43 41 40 40 41 43 44 46
38 38 38 39 40 42 43 43 42 43 43 43 42 42 42 42 42 41 41 41 41 41 41 41 39 37 37 37 38 40 42 43 43 45 44 42 41 41 41 42 44 45
40 40 40 42 43 44 44 42 42 42 42 41 40 41 41 41 41 40 40 40 41 41 42 42 42 41 40 39 39 40 42 43 43 44 44 43 42 42 41 42 43 45
41 42 43 45 46 45 44 42 41 41 41 39 39 39 39 39 39 40 40 40 41 41 42 43 43 43 42 41 40 40 42 43 43 43 44 43 42 42 42 42 43 44
43 44 46 47 48 46 44 41 40 40 39 38 39 39 38 38 38 38 39 40 41 41 41 42 43 43 42 40 40 40 41 42 42 42 42 42 42 42 42 43 43 45
44 46 48 49 48 46 43 40 39 38 37 37 38 39 38 38 37 37 37 39 40 40 40 40 40 41 40 39 38 38 39 40 40 39 39 40 40 41 42 43 44 45
45 47 49 49 47 44 41 39 37 35 35 36 38 39 38 38 37 36 37 37 38 38 38 37 37 36 36 35 34 34 35 36 37 37 37 37 38 39 40 42 43 45
46 48 48 47 45 42 39 37 34 33 34 37 39 39 39 38 36 36 37 37 38 38 37 35 34 32 31 31 30 30 31 32 34 35 35 35 36 37 38 40 42 43
47 48 48 46 43 40 37 35 32 32 35 38 39 40 40 38 37 37 37 36 36 37 36 34 32 29 28 28 29 29 29 30 31 32 33 34 34 34 36 38 40 41
48 49 47 44 41 38 36 34 33 33 37 40 40 40 40 40 39 38 37 35 33 34 35 33 29 28 27 27 28 28 27 28 29 30 31 32 32 32 34 36 38 39
49 48 46 43 40 37 35 35 36 37 40 41 40 39 41 41 40 38 36 34 33 33 33 30 28 28 26 24 25 25 24 25 27 28 29 30 31 31 31 34 36 38
49 47 44 42 39 37 35 36 37 39 41 40 38 38 40 41 41 38 35 34 33 32 31 28 27 27 25 23 23 23 23 24 25 27 29 29 30 30 30 31 33 36
48 46 43 41 38 37 36 37 38 39 39 38 36 37 39 40 41 39 35 34 32 30 29 28 26 25 25 22 21 21 23 25 26 27 29 30 30 29 30 30 31 34
47 44 41 39 37 37 37 37 38 38 37 36 35 37 39 40 40 38 35 33 31 28 27 26 23 23 24 21 20 20 22 25 27 29 29 29 29 30 30 32 32 33
46 43 40 37 36 36 36 37 37 37 35 35 36 37 39 39 39 38 35 32 30 27 25 24 21 21 24 21 20 20 21 23 26 29 29 27 27 28 30 32 33 33
46 43 40 38 36 36 36 37 37 36 36 36 37 38 38 38 38 38 35 32 30 28 26 24 22 22 23 22 20 21 21 20 21 24 28 29 27 27 29 30 32 33
46 44 41 39 37 36 37 37 37 37 37 37 38 38 38 36 36 36 35 32 30 30 27 24 23 24 23 22 21 21 20 19 18 19 24 28 28 26 26 28 30 32
45 44 42 40 38 37 37 38 38 37 37 38 38 38 37 35 34 34 34 31 30 30 29 26 25 25 24 22 23 23 20 19 19 19 20 23 24 23 24 26 28 30
44 43 42 40 38 37 38 39 39 38 38 38 37 36 35 34 33 33 33 30 29 29 30 28 25 25 24 23 24 25 23 20 21 21 21 21 21 22 23 26 27 28
43 43 42 41 39 38 39 40 40 39 37 36 35 34 33 32 32 32 32 29 27 27 29 29 27 26 26 24 24 26 25 22 21 22 22 21 21 21 23 25 27 28
43 43 43 42 41 40 39 40 40 38 36 34 33 31 30 29 30 31 30 29 26 25 26 28 28 28 28 26 24 24 25 24 21 21 21 21 21 20 20 22 25 27
44 44 44 44 43 42 41 40 40 37 34 32 31 29 28 27 28 29 28 28 26 24 24 26 27 29 29 27 24 22 23 24 22 20 20 21 22 20 17 20 23 24
45 44 45 46 46 45 42 41 39 36 33 31 29 28 27 26 26 27 26 26 25 24 24 25 26 28 29 28 25 22 21 22 22 19 18 19 20 19 19 20 20 19

ECMWFNIL_500_spd_003.txt.gz
Wind_Speed
31 32 33 34 34 35 35 36 37 39 40 42 43 44 45 44 44 43 42 41 40 39 39 39 39 39 37 35 35 34 33 33 34 36 37 37 37 38 38 38 38 38
32 33 34 35 36 36 36 37 38 40 42 42 43 43 42 41 41 41 40 39 39 39 39 38 39 39 38 36 35 35 33 33 33 34 36 38 37 38 38 38 38 38
33 34 35 36 37 37 37 37 39 41 43 43 42 42 40 39 39 38 38 38 39 39 40 39 39 39 38 37 36 36 35 35 35 34 35 37 38 38 39 40 40 39
34 35 37 37 37 37 37 38 40 42 43 43 42 40 38 38 37 36 37 39 40 40 40 40 40 39 39 38 38 37 36 37 38 37 36 37 37 39 41 42 41 41
35 37 37 38 38 38 38 39 41 43 43 42 40 38 37 36 35 35 38 40 41 41 41 40 40 39 39 39 38 38 38 38 39 40 40 39 38 39 42 43 42 42
36 37 38 39 38 39 39 40 42 43 43 42 39 37 36 35 34 35 38 39 40 41 41 39 38 37 37 37 37 38 39 39 40 41 42 43 41 41 43 44 44 44
37 38 39 39 39 40 40 41 43 44 43 42 39 37 35 34 34 36 38 39 40 41 41 39 37 36 36 36 36 37 39 40 41 41 42 44 44 43 44 45 46 45
38 39 39 40 40 41 41 42 44 44 43 41 39 37 36 36 37 38 39 39 39 40 41 40 39 37 36 36 36 37 38 40 41 41 42 43 45 44 45 46 47 48
39 40 40 41 41 41 42 43 44 45 43 41 39 37 36 37 38 40 40 38 38 40 41 40 39 37 36 36 35 35 36 37 39 40 40 41 43 44 46 47 48 49
39 40 41 42 42 42 43 44 45 45 43 40 38 37 37 37 39 40 40 38 38 40 41 39 38 37 37 36 36 35 35 35 35 36 37 39 41 43 45 47 47 49
40 41 42 42 43 43 44 45 45 45 43 39 38 37 37 38 39 40 40 38 38 40 41 40 38 37 37 36 35 34 34 34 33 33 34 36 38 40 43 45 46 47
42 42 43 43 44 44 45 46 46 45 43 39 37 37 38 39 40 40 39 38 38 40 41 40 38 37 36 34 32 32 32 32 33 33 34 35 36 37 40 43 43 44
43 44 44 44 44 45 47 47 46 46 43 39 38 38 38 39 40 40 39 39 40 40 41 40 38 37 36 34 32 31 30 30 32 34 35 35 35 35 36 39 40 41
45 45 45 45 45 46 47 47 47 45 43 40 38 38 39 39 40 41 41 41 41 40 40 39 37 37 36 34 31 30 30 31 30 31 33 33 33 33 32 34 37 38
46 47 46 46 46 46 47 47 46 45 43 40 38 39 39 41 42 42 42 42 41 40 40 38 37 36 36 35 32 31 32 32 29 28 30 30 29 30 29 30 33 34
47 47 47 46 46 46 47 46 45 44 42 40 38 39 40 41 43 43 44 43 40 38 38 37 36 35 35 35 34 33 33 32 28 24 26 27 27 28 29 29 30 31
47 47 46 46 45 46 46 46 44 43 41 39 39 39 40 41 43 44 44 42 39 36 36 36 35 35 35 35 35 35 34 33 28 23 23 25 26 27 29 29 29 30
47 46 46 45 45 45 45 45 43 42 40 39 39 40 41 42 43 44 43 40 37 33 33 34 34 35 35 35 35 34 33 32 29 23 20 22 25 27 29 29 29 30
47 46 46 45 45 45 44 44 42 42 41 41 41 42 42 43 43 43 41 37 34 31 30 32 33 34 35 35 34 33 31 30 27 24 21 20 22 25 29 30 30 31
48 47 46 45 45 44 44 43 42 42 42 42 43 43 43 42 42 41 38 34 31 29 29 30 31 32 33 34 33 31 29 27 26 25 23 21 20 22 25 29 31 31
48 47 46 46 45 44 43 42 42 42 43 43 44 44 43 41 40 38 35 32 30 29 29 29 29 30 32 33 32 29 27 26 24 24 25 23 20 20 22 25 29 32
48 47 46 45 45 44 42 42 42 42 43 44 44 44 42 39 38 36 33 31 28 28 29 29 29 29 31 32 31 29 27 25 23 22 24 24 21 20 20 21 24 30
48 47 46 45 44 43 42 41 42 42 43 44 43 42 39 37 35 34 32 29 27 27 27 28 29 29 30 32 31 29 27 25 23 21 21 22 21 20 20 21 22 25
48 47 45 44 43 43 42 41 42 43 43 42 40 38 36 34 32 32 30 28 26 25 26 27 28 28 29 31 31 29 27 26 24 21 19 21 22 20 19 20 20 21
47 46 45 44 43 42 42 42 42 43 42 39 38 36 34 31 30 29 28 27 25 24 24 25 26 27 28 29 30 29 28 26 24 21 20 21 22 19 19 19 19 19
46 45 45 44 43 42 42 42 41 40 39 37 37 35 32 29 27 26 26 25 24 24 24 24 25 26 27 28 29 29 28 26 24 21 20 21 21 18 16 19 20 21

ECMWFNIL_500_spd_009.txt.gz
Wind_Speed
30 31 31 31 32 32 33 34 34 34 34 34 34 34 35 36 36 36 37 38 39 39 40 41 42 43 43 42 42 41 42 41 39 38 36 36 36 35 33 32 33 34
31 32 33 33 33 34 34 35 35 35 35 35 35 35 36 37 37 38 38 39 40 40 41 42 43 43 44 43 42 41 41 41 41 39 37 36 37 36 36 35 36 36
32 33 34 35 35 35 35 36 37 37 37 37 37 37 37 38 39 39 40 40 41 42 42 43 44 44 44 44 43 41 41 41 41 41 39 38 37 37 37 38 38 38
34 34 35 36 36 36 37 37 38 39 39 38 38 39 39 40 40 41 41 42 43 44 44 44 45 46 45 45 44 42 41 41 41 41 40 39 39 38 38 39 40 40
35 35 36 37 38 38 38 39 40 40 40 40 40 40 40 41 42 42 43 44 44 45 45 46 46 47 46 45 44 42 41 41 41 41 42 42 42 41 40 40 41 42
36 37 37 38 39 39 39 40 41 41 41 41 41 41 42 42 43 43 44 45 46 46 46 47 47 48 47 45 44 43 42 42 41 42 43 44 44 44 43 42 42 43
36 37 38 39 39 40 40 41 41 42 42 41 42 42 42 43 44 44 45 46 46 46 46 47 48 48 47 46 45 44 44 44 43 43 44 44 45 44 44 44 43 43
37 38 38 39 40 40 41 41 41 41 42 42 43 43 43 44 44 45 46 46 46 46 46 46 47 48 47 46 45 46 46 47 46 45 45 45 45 45 44 44 44 43
37 38 38 39 40 41 41 42 42 42 42 43 43 44 44 44 45 46 47 46 46 46 46 46 47 47 47 47 47 47 48 49 48 47 46 44 44 43 42 43 43 42
38 38 39 39 40 41 42 42 43 44 44 44 44 44 45 45 46 47 47 46 46 45 46 47 47 47 47 47 48 48 48 49 48 47 46 44 42 41 41 41 40 40
38 38 39 40 41 42 43 44 45 45 46 45 45 45 45 46 47 47 47 47 46 46 46 47 48 48 47 47 47 48 47 48 48 46 45 43 40 39 39 40 39 39
39 38 39 40 41 42 44 45 46 47 47 46 45 45 46 47 47 47 47 47 47 47 47 48 49 48 47 47 47 48 47 47 46 44 42 40 38 37 38 38 39 39
39 39 40 41 43 44 45 46 47 47 47 46 45 46 46 47 47 46 47 47 47 48 48 49 49 48 47 48 48 48 47 45 43 41 39 38 36 36 37 37 38 40
40 40 41 43 44 46 47 47 48 47 47 46 46 46 47 47 47 47 47 47 48 48 48 49 49 47 47 49 48 47 45 42 40 38 36 36 35 35 36 36 38 40
40 41 42 44 45 47 48 48 48 48 47 47 46 47 47 47 48 48 47 47 48 48 48 48 48 48 49 49 47 45 42 39 36 35 34 34 34 34 35 36 38 39
42 43 44 46 47 48 49 48 49 48 48 48 47 47 48 48 48 48 48 48 49 48 48 47 46 46 47 45 44 42 39 36 34 34 33 33 33 33 34 35 36 38
43 44 46 48 49 49 49 49 49 49 49 49 48 48 48 49 49 48 48 49 48 47 47 46 44 43 42 42 41 39 36 33 33 33 32 32 32 33 34 34 35 37
44 45 47 49 50 50 50 50 50 50 49 49 48 48 48 48 48 48 48 47 46 46 45 44 43 42 40 39 38 36 33 32 32 32 31 31 32 32 33 34 35 36
45 47 49 50 50 50 50 50 50 50 50 49 49 48 48 48 48 48 48 46 45 45 43 41 39 39 39 37 35 33 32 31 31 31 31 30 31 33 34 35 36 37
47 48 49 50 51 51 51 51 50 49 49 49 48 48 48 48 48 48 48 46 45 44 42 41 39 39 38 35 31 31 31 31 31 31 30 30 30 32 33 35 37 38
48 49 50 51 51 51 50 50 49 49 49 48 48 48 47 47 47 48 47 45 44 43 42 43 42 40 38 34 30 28 29 30 30 30 29 29 30 32 33 35 37 38
49 50 51 51 51 50 49 49 48 48 48 48 47 47 47 47 47 47 45 44 43 42 42 41 40 39 36 33 29 26 27 28 28 28 28 27 28 31 34 35 36 37
49 50 50 50 50 49 48 47 47 47 48 47 47 47 47 47 47 46 44 43 42 42 41 39 37 36 34 32 29 25 25 26 27 28 27 26 27 30 34 35 35 37
49 50 49 49 49 48 47 46 46 46 46 46 46 47 47 47 47 45 44 43 42 41 40 37 35 34 33 31 28 25 24 26 27 27 27 26 26 29 32 33 33 35
49 49 48 47 48 48 47 46 45 44 44 44 45 47 47 46 45 44 43 42 41 40 39 36 34 33 32 30 28 26 25 26 27 27 27 25 25 27 30 31 31 33
48 48 47 47 48 48 47 45 44 43 44 44 45 47 47 45 44 43 42 41 40 39 38 35 33 32 31 30 28 26 25 26 26 26 26 25 24 26 28 30 30 31

ECMWFNIL_500_spd_012.txt.gz
Wind_Speed
28 29 30 30 30 30 31 31 31 32 32 33 34 34 35 35 36 36 37 37 38 38 39 40 40 41 41 42 42 42 43 43 43 44 44 45 45 45 44 43 42 41
30 31 32 32 32 32 32 33 33 33 34 34 35 35 36 36 37 37 38 38 39 39 40 40 41 41 42 42 42 43 43 44 44 44 45 45 45 45 45 44 43 42
31 32 33 33 33 33 33 34 34 34 34 35 36 36 36 37 37 38 38 39 39 40 40 41 41 42 43 43 43 43 43 44 44 45 45 45 45 45 45 45 44 44
32 33 34 35 35 34 34 34 34 35 35 36 36 36 36 37 37 38 39 39 39 40 40 40 41 42 43 43 43 43 43 44 45 45 46 46 46 45 45 46 46 46
33 34 35 36 36 35 35 35 35 35 35 36 36 37 37 37 38 38 39 39 40 40 40 41 42 43 44 43 43 44 44 45 46 46 46 46 46 46 46 47 47 47
34 35 36 37 37 36 36 35 35 35 36 36 37 37 37 38 39 39 40 41 41 41 41 43 43 44 44 44 44 44 45 47 47 47 47 47 47 47 47 47 48 48
34 35 37 37 37 36 36 35 35 35 36 36 37 38 38 39 39 40 41 42 43 43 43 44 44 45 46 46 46 46 47 48 48 48 49 48 47 47 48 48 48 48
35 36 37 37 36 36 35 35 35 35 35 36 37 38 39 40 40 41 43 43 44 44 44 44 44 45 46 47 47 48 48 48 48 48 48 46 46 49 49 47 46 46
34 36 37 36 36 36 36 35 35 35 36 36 37 38 39 40 41 42 43 44 44 45 45 44 44 45 47 47 48 48 48 48 48 48 46 45 47 49 47 44 43 42
35 36 37 37 36 36 35 35 35 36 37 37 38 39 40 41 42 43 44 44 44 44 45 44 44 46 47 47 47 48 48 48 49 48 46 45 46 45 42 41 40 39
37 37 38 38 37 36 35 35 36 37 38 39 39 41 42 43 43 44 44 44 44 45 45 45 45 45 46 47 48 48 48 48 49 47 45 45 44 42 40 38 38 37
39 39 39 38 36 35 36 37 38 38 39 40 41 42 43 44 45 45 45 45 45 45 46 46 46 45 46 46 48 48 48 48 48 46 44 43 42 41 39 37 37 36
40 40 39 38 37 36 37 38 38 39 40 42 43 44 45 46 46 47 47 47 47 47 47 46 46 46 47 47 47 47 46 47 46 44 42 42 42 41 39 37 36 35
40 39 38 37 37 38 39 39 39 39 41 44 45 46 47 47 48 48 48 48 48 48 48 47 47 48 48 48 47 45 45 46 45 42 41 43 43 41 39 37 35 34
41 39 37 37 38 39 40 40 40 41 43 45 46 47 48 49 49 49 49 49 49 49 49 49 48 48 49 50 49 47 46 46 44 42 42 43 41 39 37 36 34 33
41 39 38 39 40 41 41 41 41 43 45 46 47 48 49 49 50 50 50 50 50 49 50 50 49 48 49 50 49 47 47 47 45 42 42 42 40 37 35 34 33 33
41 40 40 41 41 42 42 42 44 45 46 48 49 50 50 50 51 51 51 51 50 49 50 51 49 48 49 48 48 47 47 47 45 42 40 40 39 36 33 32 32 32
40 41 42 42 43 43 43 45 46 47 49 50 51 51 51 51 51 51 51 51 50 50 50 50 49 48 48 47 46 46 46 44 41 38 37 38 37 33 31 30 31 33
41 42 43 44 45 44 45 47 49 50 51 51 52 52 52 52 52 52 52 51 50 49 49 50 49 48 47 46 45 45 44 42 37 34 35 35 33 31 30 30 31 32
42 42 43 45 46 46 47 49 51 53 53 53 53 53 52 52 52 51 51 50 48 48 48 49 48 48 47 46 44 44 43 39 34 32 33 33 31 30 30 30 30 30
42 43 44 46 47 48 48 49 52 53 53 53 53 53 53 53 52 51 50 49 48 48 47 47 48 47 46 45 44 42 40 37 32 31 32 31 29 30 30 30 30 30
43 44 45 47 49 49 50 50 51 51 51 52 52 52 51 50 49 49 49 48 47 47 47 47 48 47 44 43 43 41 38 34 30 30 30 29 29 30 30 29 29 29
44 44 45 47 49 51 52 52 52 51 50 50 49 48 48 47 47 47 47 47 46 46 47 47 47 45 43 42 41 39 36 32 29 29 30 29 28 29 29 29 29 29
44 45 46 48 50 52 53 53 52 52 50 48 47 46 45 45 45 45 46 46 46 46 46 45 43 42 41 41 39 37 35 31 28 28 29 28 27 28 29 29 29 29
46 46 47 49 50 52 53 53 52 51 50 49 48 45 43 43 44 44 45 45 45 46 45 43 40 39 39 38 37 36 33 30 28 27 27 27 26 27 29 29 29 29
47 48 49 50 50 52 53 52 52 52 51 50 47 43 41 42 43 44 43 44 45 45 43 41 39 37 36 36 35 34 32 29 27 26 25 25 27 28 28 29 29 29

ECMWFNIL_500_spd_015.txt.gz
Wind_Speed
22 22 22 23 24 25 26 27 28 28 29 29 28 28 28 29 29 30 30 31 32 33 33 34 34 35 36 36 37 38 39 40 41 41 41 42 42 42 42 43 43 43
22 22 23 24 25 26 27 29 30 30 30 30 29 29 29 29 30 30 31 32 33 34 34 35 35 36 36 37 38 39 39 40 41 41 41 42 42 42 43 43 43 44
23 23 24 25 26 27 28 29 30 31 31 30 30 29 29 30 30 31 32 33 34 34 35 35 36 36 37 38 39 40 40 41 41 41 42 43 43 43 43 43 43 44
23 23 24 25 26 27 28 29 30 31 31 31 30 30 30 30 30 31 32 33 34 35 35 36 36 37 38 39 40 41 42 42 42 42 43 44 44 44 45 45 44 44
23 24 25 26 26 26 27 28 29 30 31 31 31 31 30 30 30 32 33 34 35 35 36 37 37 38 38 39 40 42 42 43 43 44 44 45 45 46 47 47 46 45
23 24 25 25 25 25 26 28 29 30 31 32 32 31 31 31 31 32 33 34 35 37 38 39 39 39 39 40 41 42 43 43 44 45 45 46 46 47 47 46 45 46
23 24 24 23 24 25 27 29 30 31 32 31 31 31 31 31 32 32 33 35 36 38 39 40 40 40 41 41 42 43 43 44 45 46 46 46 46 46 45 45 46 47
25 25 24 23 25 27 29 31 32 32 32 31 30 30 30 31 31 32 33 35 36 38 39 40 41 41 42 43 44 44 44 45 46 45 45 46 46 46 45 46 47 47
27 27 26 25 26 29 31 33 33 32 32 31 31 31 30 30 31 32 34 35 37 39 40 41 42 43 44 44 44 45 45 45 45 45 45 46 47 46 46 47 47 47
28 28 27 26 27 30 32 34 34 33 32 32 32 32 31 31 32 33 35 37 39 40 41 42 43 43 44 45 45 45 45 45 45 45 45 46 47 47 48 48 48 47
28 27 26 26 28 31 34 35 34 34 34 34 34 33 32 33 34 35 36 38 39 41 42 42 42 43 45 46 45 45 45 45 45 45 46 47 47 48 48 49 48 47
27 26 26 28 31 34 36 36 35 35 36 35 34 33 33 34 35 36 38 39 41 42 43 44 44 45 46 46 45 45 45 45 45 46 47 48 48 48 48 48 48 47
27 26 28 30 33 36 37 37 36 36 36 35 34 33 34 35 37 38 40 42 43 44 45 46 46 46 46 46 45 45 45 46 46 46 48 49 49 47 47 47 48 46
28 27 29 32 33 35 36 37 37 36 36 35 34 35 36 37 39 40 42 44 45 46 46 47 47 47 47 46 45 45 46 46 46 46 47 48 47 46 46 46 45 42
29 29 31 33 34 35 37 37 37 36 35 36 36 37 38 39 41 43 44 45 46 47 47 47 47 47 46 45 45 45 45 45 46 47 46 45 44 44 44 43 40 37
27 28 32 33 35 36 37 37 37 36 36 37 37 39 40 41 43 45 46 47 48 48 47 47 46 46 46 45 45 45 45 45 46 46 44 43 42 42 42 40 36 34
26 28 30 33 34 36 37 37 38 37 37 38 39 41 42 44 46 47 49 49 49 48 47 48 47 46 45 45 45 45 45 45 45 44 42 41 42 42 40 37 33 32
28 29 30 33 35 36 37 38 39 39 39 40 41 42 44 45 47 49 50 51 50 49 49 49 48 46 45 45 45 45 45 45 43 41 40 40 41 41 38 34 32 31
30 31 32 34 35 37 38 39 39 40 40 41 43 43 45 46 47 49 50 51 50 50 50 50 47 46 45 44 44 44 44 43 41 40 40 40 40 39 34 31 30 30
32 34 34 34 36 38 39 40 41 41 41 42 43 44 45 46 48 49 49 50 50 50 50 49 46 45 45 44 44 44 42 40 37 36 37 37 36 35 31 28 28 29
35 35 34 35 38 39 41 41 42 42 42 42 44 45 46 48 48 49 49 49 49 49 48 46 45 45 45 45 44 41 36 32 31 32 33 34 33 31 29 28 27 28
35 34 35 36 38 40 42 43 43 43 43 44 45 46 47 48 49 50 51 50 49 48 45 44 43 43 42 41 39 34 29 27 29 33 35 36 34 31 29 29 28 27
33 34 36 37 39 41 42 44 45 45 45 46 47 47 48 49 49 49 50 48 46 44 41 40 40 39 37 36 33 31 31 32 35 38 38 38 37 33 31 31 29 28
33 36 37 39 41 43 44 47 48 47 47 48 48 49 49 48 46 46 46 46 44 42 40 39 39 38 38 38 38 39 40 40 41 41 40 38 37 35 33 31 30 29
35 37 39 41 43 45 47 49 48 46 45 46 46 45 45 43 43 45 47 48 47 44 43 42 40 40 42 44 45 44 43 42 41 40 39 37 36 35 33 31 30 30
37 39 40 42 44 45 45 44 43 42 44 46 46 46 45 43 44 45 47 49 47 45 44 44 42 42 44 45 45 44 43 42 41 40 39 37 35 34 32 30 30 31

ECMWFNIL_500_spd_018.txt.gz
Wind_Speed
19 21 21 21 20 21 22 23 23 24 25 26 26 26 26 27 27 27 27 27 27 27 28 30 31 32 33 33 34 35 36 36 36 36 36 36 36 37 37 37 38 38
18 19 20 20 21 22 23 24 24 25 25 26 26 26 26 26 26 27 27 28 28 28 29 31 32 33 33 34 35 36 36 37 37 37 36 37 37 37 37 38 38 39
17 18 19 20 21 22 24 24 25 24 24 25 26 27 27 26 26 26 28 28 28 29 30 31 32 33 34 35 35 36 36 37 37 37 37 37 37 37 37 38 39 40
18 18 18 19 21 22 23 23 22 22 22 24 27 28 27 27 26 27 28 29 29 30 30 31 32 34 35 35 36 37 37 37 37 38 38 37 37 37 38 39 40 41
20 19 18 18 20 22 23 22 21 20 22 25 27 28 28 27 28 28 30 30 30 30 31 32 33 35 36 37 37 38 38 38 38 38 39 39 39 38 38 39 40 40
22 21 20 20 20 22 22 21 20 20 22 25 27 28 28 28 29 30 31 32 31 31 32 33 35 36 38 38 39 39 39 39 39 40 40 40 40 40 39 40 40 41
23 22 22 22 22 22 22 21 20 20 23 26 28 28 28 29 30 31 33 33 33 33 33 34 35 37 38 39 39 39 40 40 40 41 41 41 41 40 41 41 41 42
24 23 23 23 23 22 22 22 21 22 26 29 30 29 29 30 31 32 34 34 33 33 34 35 36 37 39 40 40 40 41 41 41 41 41 41 41 41 41 42 44 45
24 24 24 23 23 23 22 22 22 25 28 29 30 30 30 31 32 33 33 33 33 33 34 35 37 39 40 41 41 41 41 41 41 41 41 42 42 42 42 44 45 46
25 24 23 23 23 23 22 21 23 26 29 30 30 31 31 32 32 33 33 32 32 33 34 36 38 39 39 40 41 41 41 41 41 42 42 43 43 43 44 45 46 47
25 23 23 24 24 23 22 23 25 27 30 30 30 31 32 33 33 32 32 33 33 35 36 37 38 38 38 39 40 41 41 43 43 43 43 43 43 44 45 46 47 48
25 23 23 24 25 25 25 26 27 29 32 32 31 32 33 33 33 33 33 35 35 36 37 38 39 39 39 39 39 40 42 43 44 44 43 43 44 44 45 47 48 47
26 23 24 25 26 27 28 28 29 32 33 33 32 33 34 34 34 34 35 36 37 37 38 39 40 40 40 40 40 41 42 43 44 43 43 43 43 44 45 45 42 39
29 25 25 26 27 28 27 27 29 32 34 34 33 34 34 34 35 35 36 37 38 39 39 40 41 41 41 42 42 42 43 43 43 42 42 43 44 44 43 38 33 35
34 29 26 26 27 28 26 25 28 31 33 34 34 35 35 35 36 36 38 39 39 40 41 42 42 42 43 43 43 43 43 43 42 42 43 44 44 41 35 29 30 38
36 32 28 27 28 28 26 26 28 31 33 34 35 36 35 36 37 38 39 40 41 42 42 42 43 43 44 45 45 45 45 43 42 43 44 43 40 34 28 27 35 44
35 33 30 30 30 29 28 28 30 32 34 36 37 36 36 37 38 39 40 40 42 43 44 44 44 43 42 43 43 44 44 42 42 42 42 38 33 30 28 32 42 47
35 36 35 32 30 29 29 30 32 35 36 38 38 37 37 37 39 40 41 42 43 44 42 41 38 36 37 40 42 42 41 40 39 38 35 33 33 33 35 40 45 45
36 38 39 34 30 30 31 33 35 37 38 40 39 37 37 39 41 41 41 41 42 41 38 36 35 36 39 43 43 42 41 41 40 38 35 35 38 40 42 44 44 42
33 33 32 29 28 30 32 34 36 38 39 40 38 36 37 38 38 37 37 39 39 39 40 41 41 41 43 44 44 45 44 44 43 42 40 40 42 44 44 43 42 40
29 28 26 25 28 30 31 33 36 38 39 39 38 36 36 36 35 37 40 41 40 39 42 44 45 44 43 45 47 48 47 45 44 44 44 43 44 45 44 43 42 41
25 24 25 28 32 30 29 32 35 37 38 39 39 38 37 37 40 42 43 42 39 39 40 42 44 44 45 48 50 49 47 46 44 44 43 44 44 44 44 43 42 41
21 22 26 32 33 31 30 33 35 36 38 39 41 41 40 41 43 44 45 44 41 39 39 41 43 46 48 51 51 49 47 46 44 42 42 43 44 44 43 43 42 41
26 27 30 33 34 33 33 33 35 37 38 39 42 43 44 45 45 45 46 44 40 39 42 45 47 48 50 50 49 48 47 46 44 42 43 44 44 43 43 43 42 40
32 30 32 34 36 35 33 33 35 36 37 39 42 44 45 47 47 46 45 44 43 46 50 51 50 50 50 50 49 48 47 46 44 43 43 44 44 43 43 42 41 39
33 32 34 36 36 34 33 34 35 36 39 42 43 44 45 46 48 48 47 48 49 51 53 52 52 52 52 51 49 48 47 46 44 44 44 44 43 43 42 42 41 38

ECMWFNIL_500_spd_021.txt.gz
Wind_Speed
21 22 22 23 23 24 25 25 26 26 27 27 26 26 26 26 25 25 25 26 26 25 25 25 25 26 28 29 30 31 31 32 34 35 36 37 37 37 37 38 38 38
20 20 21 22 24 25 26 26 26 26 26 27 26 25 24 24 25 25 25 26 26 26 25 25 26 27 29 30 31 32 32 34 35 36 37 38 38 38 38 39 38 38
20 21 21 22 24 26 27 26 26 26 26 26 25 24 24 24 25 25 25 25 26 26 26 26 27 28 29 31 32 32 33 35 36 37 38 39 39 40 40 40 39 38
22 23 23 23 24 26 26 26 25 25 26 26 25 24 24 24 24 25 25 25 26 27 27 27 28 29 30 31 32 33 34 36 37 38 39 40 41 41 40 40 39 38
26 26 25 25 25 26 26 25 25 25 26 26 25 25 25 24 26 26 26 26 26 27 28 29 29 30 31 32 32 33 35 36 38 39 40 41 41 40 39 39 39 38
28 27 26 26 26 26 26 26 25 25 26 26 26 26 26 27 28 28 27 27 27 29 30 30 31 31 32 32 33 34 36 37 39 40 40 41 40 39 39 39 39 39
29 29 27 27 27 27 27 28 27 27 26 26 27 27 28 29 30 29 28 28 29 30 31 31 32 32 33 34 34 35 36 37 39 40 40 40 39 39 39 41 40 39
30 29 28 28 28 28 28 30 30 29 27 27 27 27 28 29 30 29 29 30 31 32 33 33 33 34 35 36 36 37 37 38 39 39 39 39 39 39 40 41 40 38
33 31 30 29 29 29 29 30 32 31 29 27 27 26 27 30 31 30 30 31 33 34 34 34 35 36 37 38 38 39 39 39 39 40 40 40 40 41 41 40 38 36
35 34 33 31 29 29 30 31 33 33 30 28 28 28 29 31 32 32 31 32 33 34 34 35 36 37 38 38 38 39 40 40 40 40 40 40 40 40 40 38 37 37
35 35 36 34 32 31 31 31 33 33 31 30 29 30 30 31 33 33 32 32 34 34 35 36 37 38 38 38 38 39 39 39 40 40 39 38 38 39 39 38 38 38
38 37 37 35 35 35 32 31 33 34 33 31 31 31 30 29 31 32 32 33 34 35 36 37 39 39 39 39 40 41 41 41 40 39 37 37 38 39 39 39 38 37
42 40 37 35 36 35 33 33 34 34 33 32 32 30 27 27 30 32 33 34 34 36 37 38 39 40 41 42 43 42 40 38 36 35 37 39 40 39 39 39 39 36
40 39 38 36 35 33 33 34 35 35 35 34 32 29 27 29 31 32 33 34 35 37 38 39 40 42 43 43 41 38 36 35 36 38 41 42 41 41 41 41 40 37
40 38 38 36 34 33 34 35 36 36 37 35 32 29 29 32 33 33 34 35 37 39 40 40 41 41 40 40 40 38 37 38 40 41 42 42 42 44 44 43 41 39
44 41 37 34 35 36 36 37 38 38 37 36 31 29 32 36 36 36 36 37 39 41 40 39 39 39 41 42 41 39 39 40 41 41 42 43 45 46 46 44 42 41
42 39 34 31 34 36 38 39 39 38 36 34 31 31 36 38 37 37 37 38 40 41 39 38 39 41 43 43 42 40 39 39 40 42 43 45 46 46 46 44 42 42
37 34 32 31 33 36 38 38 38 37 32 28 29 32 36 37 37 38 38 39 40 41 39 38 40 42 43 42 40 39 38 40 42 44 45 45 45 44 43 43 42 42
35 34 36 37 37 38 37 35 35 33 27 25 29 32 34 36 38 39 38 38 40 41 40 39 40 42 42 40 37 37 40 44 47 47 47 46 45 43 42 41 41 42
38 38 40 41 41 40 36 31 30 27 25 28 32 32 34 37 38 39 38 38 39 40 41 40 40 41 41 39 39 41 45 48 48 48 47 46 45 44 43 42 42 42
41 40 39 37 35 33 29 26 26 27 30 33 33 33 35 38 39 38 38 37 39 41 42 42 42 42 40 40 42 45 47 48 48 48 48 47 46 45 45 43 43 43
39 39 37 32 28 25 23 25 29 31 32 32 32 34 37 38 38 37 37 38 40 42 43 44 43 42 40 42 45 47 48 48 49 49 49 49 48 47 46 45 44 44
41 39 34 29 26 25 26 29 32 32 32 32 32 35 36 36 36 37 37 39 41 42 44 42 41 41 44 46 48 48 49 50 51 52 53 53 51 49 47 46 44 44
42 40 38 37 36 32 30 31 33 34 32 31 32 34 35 36 37 37 38 40 41 43 43 41 42 45 48 48 49 50 52 53 55 56 56 55 52 50 47 46 45 44
41 42 41 40 38 34 33 35 36 34 32 31 32 34 35 36 36 36 38 40 41 43 44 44 46 48 48 49 50 53 55 56 57 57 56 54 51 48 46 45 44 43
37 41 40 39 37 36 37 37 36 33 32 33 33 32 33 34 36 37 39 41 42 43 44 46 47 47 48 50 52 54 56 57 57 55 53 50 48 45 44 43 42 41

ECMWFNIL_500_spd_024.txt.gz
Wind_Speed
22 23 23 24 24 25 25 24 24 24 25 26 27 27 27 28 28 29 28 26 24 24 24 24 23 23 23 23 24 25 26 27 28 29 30 31 32 33 34 34 35 36
22 23 23 23 24 25 26 26 25 25 26 27 27 27 28 28 29 29 28 26 25 24 25 25 24 23 23 24 25 26 27 28 29 30 31 32 33 34 35 35 36 37
22 23 23 23 24 26 27 26 26 27 28 28 28 28 28 29 29 29 28 26 25 25 26 27 26 25 24 25 26 27 28 29 30 31 32 33 34 35 35 36 37 37
24 24 25 25 27 28 28 28 27 27 28 29 29 28 29 29 29 28 27 26 26 26 27 28 27 26 26 26 27 29 30 30 31 32 34 35 35 36 36 36 37 37
26 27 28 29 29 30 30 30 29 28 29 29 29 30 30 29 29 28 27 27 26 27 28 28 28 27 27 27 28 29 30 31 32 34 36 36 36 37 37 37 38 38
28 29 29 30 31 31 32 32 31 29 29 30 30 31 30 30 29 27 27 27 27 27 27 28 28 28 28 28 29 30 31 32 34 35 37 37 38 38 38 39 39 39
30 31 31 32 33 33 32 32 32 31 30 31 32 32 31 31 30 28 26 27 27 27 27 28 28 28 28 29 30 30 32 33 35 36 37 38 39 39 40 41 40 40
32 32 32 33 34 35 37 35 34 35 34 33 33 33 32 33 32 30 28 27 28 28 29 29 29 28 29 30 30 31 33 34 35 37 38 39 40 41 41 40 39 38
33 33 33 34 34 37 40 38 37 37 37 36 36 33 32 34 34 33 31 29 30 30 30 29 29 29 30 30 31 32 34 36 37 39 40 41 40 39 37 36 36 37
34 33 35 36 36 39 41 39 38 38 37 37 37 35 34 34 35 35 34 32 32 30 29 29 29 30 30 31 32 33 35 37 39 39 39 39 38 37 36 37 37 38
35 35 36 37 39 40 40 38 38 38 36 36 35 34 34 33 34 35 36 34 32 29 28 29 30 30 31 31 32 33 35 37 38 38 38 39 39 38 38 38 38 38
38 38 38 39 42 42 40 40 39 38 37 36 34 33 33 34 34 36 36 34 30 28 28 30 30 30 30 31 32 34 36 37 37 38 39 41 40 39 38 38 39 40
40 41 41 43 44 43 43 43 41 40 39 37 35 34 34 35 36 36 36 33 29 29 31 32 31 30 31 31 33 35 36 37 37 39 40 40 40 39 39 39 40 42
40 40 40 41 42 44 45 45 44 44 43 38 36 36 36 36 36 35 35 32 29 31 33 33 31 30 31 33 34 36 36 37 37 39 40 40 39 38 39 40 43 45
40 39 37 37 39 43 45 44 42 41 38 35 35 36 36 36 34 33 34 31 28 31 33 31 29 30 32 34 35 36 37 37 38 39 39 38 38 38 40 42 44 46
43 42 41 39 40 41 40 40 39 37 35 34 35 36 36 33 32 33 33 30 29 31 32 30 29 30 33 34 36 37 38 39 41 40 38 38 39 41 42 43 44 45
44 46 46 45 42 37 35 36 36 35 33 35 37 37 35 33 33 33 30 28 30 33 32 30 30 31 33 34 36 38 39 41 41 39 39 41 43 43 44 44 45 45
44 46 47 45 40 36 34 33 34 34 33 34 37 37 35 34 32 29 28 30 34 35 32 31 31 33 34 35 37 38 39 40 40 40 42 44 45 44 45 46 46 46
44 47 47 41 37 37 36 32 31 33 33 34 36 36 32 30 28 27 30 34 36 34 31 31 32 34 35 36 37 38 40 41 42 43 44 45 44 45 47 48 48 48
45 49 48 40 35 37 37 34 33 34 34 35 34 29 25 24 26 29 32 34 35 33 31 31 32 34 35 36 38 39 41 42 43 44 45 45 46 48 49 49 49 49
47 50 48 40 38 38 38 39 39 34 31 30 27 23 23 27 31 32 33 34 34 33 32 32 33 34 35 36 39 41 43 43 44 44 44 45 47 48 49 49 50 50
50 50 46 40 40 39 39 40 38 31 27 26 25 25 29 32 34 33 34 34 33 33 32 32 32 33 35 37 40 43 44 43 43 44 44 45 47 48 49 50 50 49
51 50 46 41 41 43 45 42 35 30 30 31 30 30 33 34 34 33 32 32 32 33 32 30 31 34 36 39 41 43 43 43 43 44 45 46 47 48 49 49 48 47
52 50 47 44 41 43 45 40 33 30 30 29 29 31 33 34 34 32 30 30 32 32 31 30 34 37 39 41 43 43 43 42 43 44 45 46 47 48 49 48 47 46
51 49 47 44 39 39 39 36 34 33 30 24 24 27 30 32 33 33 32 32 33 33 32 34 37 41 43 45 45 43 42 42 43 44 45 47 48 48 47 46 45 44
50 48 46 41 38 37 35 34 37 37 29 21 19 22 26 30 33 35 35 34 35 35 35 37 40 43 45 46 44 43 42 43 44 45 46 47 47 46 45 45 44 44

ECMWFNIL_500_spd_030.txt.gz
Wind_Speed
17 17 16 15 15 15 15 16 17 18 18 19 20 21 22 22 23 23 23 23 24 25 25 24 24 24 24 24 23 23 23 23 23 23 23 22 21 21 21 21 22 22
17 17 16 16 16 16 16 17 18 19 20 21 22 23 23 24 25 25 25 24 25 25 26 26 26 25 25 25 24 24 24 24 24 24 24 23 22 22 22 22 23 23
17 16 16 17 17 18 18 18 19 20 20 21 22 23 24 24 25 26 26 26 26 27 28 29 29 28 26 25 25 24 24 24 25 26 26 25 24 23 23 23 24 24
16 16 17 18 18 18 19 20 21 21 21 22 23 24 24 25 25 26 27 27 28 29 30 32 32 31 29 27 26 25 24 25 26 27 28 27 25 24 24 24 25 25
17 17 17 18 18 18 19 20 21 22 23 24 25 25 26 27 28 29 29 29 30 31 33 35 35 33 31 29 28 26 25 25 27 28 29 28 26 25 25 25 26 27
16 16 16 17 17 18 19 20 22 23 25 26 27 26 27 30 33 33 32 33 34 34 35 36 36 33 31 31 30 27 26 26 27 28 30 29 28 26 26 27 28 28
14 14 15 15 16 17 18 20 22 24 25 27 28 28 29 31 33 35 35 36 36 37 37 37 36 34 32 32 30 28 27 27 27 28 30 30 28 27 28 28 28 29
14 14 15 16 17 18 19 21 23 25 27 28 30 32 33 34 35 36 36 37 38 38 39 40 39 35 33 32 31 29 28 27 27 29 30 29 29 29 29 29 29 30
15 17 18 19 20 21 22 22 24 27 29 32 34 35 36 37 38 38 38 37 38 39 40 40 39 35 32 32 32 31 29 29 29 30 30 29 30 31 30 29 29 31
17 19 20 21 23 24 24 24 26 28 31 33 34 35 36 37 37 38 39 39 40 41 39 38 35 33 33 34 34 34 32 30 31 31 30 29 31 32 31 30 30 32
18 19 20 23 24 24 24 25 25 27 30 32 33 34 36 37 37 36 38 40 41 40 37 35 34 33 34 36 35 35 33 32 33 33 31 31 32 33 31 31 32 32
18 18 19 21 23 23 23 25 26 27 29 31 33 34 34 35 34 33 34 37 38 35 32 32 33 32 33 35 34 33 33 33 33 33 33 32 32 32 32 33 33 32
17 17 18 20 23 23 23 25 27 27 28 30 32 33 31 31 31 30 31 34 34 30 27 27 29 30 32 33 32 32 33 32 31 30 30 31 31 32 34 33 32 32
17 18 19 21 24 25 24 26 28 27 27 29 31 31 30 30 30 30 31 32 31 29 27 29 31 30 30 31 32 33 33 31 29 28 27 29 31 33 33 32 31 32
19 21 23 24 26 28 27 28 30 30 29 29 30 30 30 31 31 30 31 31 31 31 32 33 31 29 28 30 32 33 32 30 28 26 26 29 32 33 33 32 32 33
23 25 25 26 27 29 30 31 33 33 32 30 31 30 30 30 31 30 31 32 33 33 34 32 28 26 27 30 31 31 31 29 27 26 28 31 32 33 33 33 33 34
27 28 27 27 28 31 33 34 35 35 33 32 31 30 28 30 31 31 30 32 34 33 31 28 25 25 28 30 30 31 32 30 27 28 31 33 33 33 33 34 35 35
30 31 29 29 30 33 35 37 38 37 35 34 33 29 27 29 31 31 30 32 33 31 27 25 24 25 28 31 31 32 32 29 29 31 33 34 33 33 33 34 35 35
32 33 31 31 34 36 37 39 39 37 35 35 34 31 29 29 29 29 28 30 31 29 27 26 26 27 31 32 32 32 31 30 31 33 34 34 33 33 34 34 35 36
33 34 33 35 37 38 39 40 39 37 35 36 35 33 31 30 30 28 28 29 29 28 28 29 29 31 32 32 32 32 32 33 33 33 33 33 33 34 34 35 36 38
34 35 36 38 39 39 40 41 40 38 36 36 35 34 32 33 33 31 29 29 30 29 29 31 32 33 33 32 32 33 33 34 33 32 32 33 33 34 35 36 38 39
37 38 39 41 41 41 42 42 42 41 38 36 36 35 33 33 33 30 28 29 30 29 30 32 33 34 33 31 29 29 30 31 31 32 32 32 33 34 35 37 38 39
39 41 42 43 43 43 44 44 44 43 39 36 35 35 34 34 33 30 28 29 30 30 31 33 34 34 31 27 25 26 27 29 30 31 32 32 34 34 35 36 37 39
43 44 45 45 45 45 46 46 47 45 39 35 34 34 34 34 33 31 29 29 30 30 31 32 33 32 29 26 26 27 28 30 30 31 32 33 33 33 34 36 39 42
46 46 46 46 47 48 49 49 48 44 37 33 33 34 34 33 32 31 31 30 30 30 31 32 32 30 28 28 30 31 31 31 30 30 31 32 32 34 36 39 42 44
47 48 48 48 48 51 51 48 45 40 35 32 33 33 33 32 32 32 32 31 30 29 30 31 32 31 30 32 35 34 31 27 26 27 30 32 34 36 38 41 43 44

ECMWFNIL_500_spd_033.txt.gz
Wind_Speed
18 18 19 19 18 17 17 17 17 16 16 16 17 17 18 18 20 21 22 22 23 24 25 25 26 26 26 27 27 26 26 26 25 24 24 24 23 22 22 23 24 24
20 19 19 19 18 18 18 18 18 17 17 18 18 18 19 20 22 23 24 23 24 25 26 27 28 29 30 30 30 29 28 29 28 26 25 25 25 24 23 23 24 24
20 20 19 19 18 18 18 18 18 18 18 19 19 20 21 23 24 25 25 25 26 27 28 29 30 32 33 33 32 32 31 31 30 28 27 27 27 25 24 24 24 24
20 20 20 19 18 18 18 18 18 18 19 19 21 22 22 23 24 24 25 26 27 28 30 31 33 34 34 35 35 34 33 33 32 30 28 28 28 27 25 25 25 24
19 19 19 18 18 18 18 17 18 19 19 20 21 22 22 22 24 25 26 27 28 30 31 33 35 36 35 36 38 38 37 36 35 33 30 29 29 28 27 26 25 25
18 18 18 18 17 17 17 17 17 18 20 20 21 22 23 24 26 28 28 28 29 31 31 32 35 36 36 37 37 38 38 37 36 35 33 30 28 28 28 27 27 27
18 18 17 16 16 16 16 17 18 20 21 21 22 23 23 24 26 29 30 30 30 31 31 31 33 36 38 39 38 38 37 36 35 34 32 30 28 27 28 28 29 29
17 16 15 15 15 16 17 18 20 21 21 20 21 22 22 23 26 28 30 30 30 30 31 30 31 34 38 40 39 38 36 33 33 32 31 30 29 28 28 29 31 31
16 15 15 15 16 17 19 19 19 19 18 19 20 21 22 24 26 28 29 29 27 28 29 30 31 33 36 38 37 35 33 31 32 31 30 30 30 30 30 31 32 33
15 15 16 16 17 19 20 19 17 16 17 19 21 22 23 25 26 27 28 28 27 27 28 30 31 32 33 35 35 32 30 31 32 31 29 29 29 30 31 33 33 33
16 17 17 17 18 19 19 18 17 17 19 21 23 23 24 26 27 28 29 29 28 28 28 30 31 30 30 32 34 32 32 33 32 30 28 29 29 30 32 34 33 32
18 18 17 16 16 17 18 18 19 20 21 23 25 25 25 26 28 30 30 31 31 30 30 31 31 31 30 31 33 35 36 35 32 29 28 29 30 31 33 33 32 30
17 16 15 13 14 15 18 20 21 22 22 23 26 28 27 27 28 30 31 32 32 31 31 31 32 33 31 30 33 36 37 35 32 29 29 30 31 32 33 33 31 28
16 15 13 13 15 17 20 21 22 23 23 24 26 28 29 29 29 30 31 33 34 34 32 33 35 35 33 32 33 36 37 34 31 30 30 31 32 33 33 31 29 27
15 15 15 16 18 20 21 22 22 23 25 27 29 30 32 32 30 30 32 34 36 37 36 35 35 35 35 34 34 35 35 33 31 30 31 32 33 33 33 30 28 28
14 15 16 18 19 21 22 23 23 25 28 30 30 32 33 34 33 32 33 33 35 37 37 35 33 34 36 35 35 35 33 30 29 30 32 33 34 34 34 32 30 31
14 15 16 18 20 22 23 25 26 28 30 31 32 33 34 35 35 34 34 34 34 36 36 34 33 34 35 35 36 36 33 29 29 31 33 33 33 34 35 33 31 33
14 15 16 18 21 23 25 27 29 31 33 34 34 35 36 36 37 37 36 35 34 33 34 34 34 34 34 36 37 36 34 31 31 33 35 34 32 33 33 33 32 33
17 18 19 20 22 24 26 28 31 33 36 38 39 39 39 39 39 39 39 38 35 33 33 34 34 34 35 37 37 36 36 34 33 35 37 36 33 32 32 32 32 32
21 23 24 24 25 27 28 30 32 35 37 40 42 43 42 42 43 43 42 40 36 33 33 33 33 34 35 36 37 36 35 35 35 37 39 36 33 32 31 30 31 31
26 26 27 28 29 30 31 33 34 36 39 41 42 44 45 45 46 46 44 41 37 34 34 33 33 34 35 35 36 36 35 36 38 39 37 34 32 30 29 28 30 31
29 29 29 30 32 33 34 36 37 39 41 41 43 46 48 47 49 48 44 40 37 35 34 33 33 34 34 34 35 35 36 38 39 37 34 32 31 29 29 30 31 32
33 33 33 33 34 36 37 39 41 41 43 43 44 47 50 50 51 48 41 38 37 36 34 34 34 32 32 34 35 35 36 38 38 36 34 34 32 32 33 35 35 35
36 36 36 36 37 39 41 43 44 45 45 46 46 49 52 53 51 45 38 35 36 36 35 35 34 31 31 34 35 36 36 37 37 36 36 36 35 36 38 39 36 33
38 38 39 39 41 43 45 46 48 49 49 49 49 51 53 52 47 39 34 33 34 35 36 35 33 32 32 33 35 36 36 37 37 37 38 39 39 40 40 36 31 31
40 40 41 42 44 46 48 49 50 52 53 52 52 53 52 48 41 35 32 32 33 35 36 34 33 35 34 33 34 36 36 36 37 38 39 41 41 40 36 32 30 34

ECMWFNIL_500_spd_036.txt.gz
Wind_Speed
20 19 19 20 20 20 19 17 16 14 14 14 15 16 16 16 16 16 16 17 18 19 20 22 23 24 25 26 28 29 30 31 31 31 30 30 30 29 29 30 31 31
21 21 21 22 21 20 18 16 15 14 14 15 16 16 16 15 16 16 16 17 19 21 23 24 26 26 27 28 30 31 32 33 34 35 34 33 31 31 31 32 33 32
22 22 22 22 21 20 18 15 14 14 14 15 15 15 15 16 17 17 17 18 21 23 24 26 26 27 28 29 30 30 30 32 34 36 37 36 34 33 33 34 34 33
21 21 21 20 20 18 17 15 14 15 15 14 14 14 16 17 18 18 19 20 21 23 24 25 26 27 29 30 29 28 28 31 33 35 35 35 35 34 34 34 33 31
18 18 17 17 16 16 15 15 15 14 13 13 14 15 17 19 19 20 20 21 21 22 23 24 25 27 29 30 29 29 29 31 33 34 34 32 32 33 33 34 31 28
14 14 14 14 14 14 14 14 14 13 12 13 15 17 18 18 19 19 20 21 22 22 23 24 26 27 29 30 30 31 32 34 35 34 33 30 29 29 31 32 29 26
12 12 13 13 12 13 13 13 12 13 14 15 17 17 17 16 17 18 19 21 23 25 25 27 28 28 28 29 31 33 34 35 37 37 34 30 28 29 31 31 28 25
12 12 12 12 11 12 12 12 13 15 16 17 16 15 15 16 18 19 20 23 25 26 27 28 29 29 30 30 31 34 35 36 39 39 35 32 30 31 32 31 28 26
12 11 11 11 11 12 13 13 15 16 17 17 15 14 15 17 19 21 22 24 26 27 28 29 30 30 32 32 33 34 35 37 39 39 37 34 33 32 32 30 27 26
10 10 11 11 11 13 15 15 16 16 17 17 16 16 17 18 20 22 24 25 27 28 29 30 30 30 32 33 33 34 36 39 41 40 38 37 36 34 31 29 27 28
10 10 11 12 13 15 16 15 14 14 15 17 18 19 18 19 20 23 25 26 27 28 30 32 32 31 33 34 34 35 37 39 40 40 38 38 37 34 31 28 28 29
10 11 12 14 15 15 14 13 12 12 15 18 20 21 21 21 23 25 27 28 28 30 31 33 34 34 35 35 36 36 36 37 38 38 37 37 36 34 31 29 29 30
12 12 13 14 14 13 12 12 13 14 16 18 19 21 23 24 25 26 28 30 31 32 33 35 36 36 37 37 38 37 36 36 36 36 36 36 35 33 30 29 30 31
13 13 13 13 13 13 13 14 16 17 17 17 18 20 23 25 26 26 28 32 34 35 36 37 37 38 39 39 39 39 37 37 36 35 36 37 35 33 31 30 31 32
13 12 12 13 13 13 14 15 16 17 17 18 18 20 23 25 26 27 29 31 34 37 39 39 39 40 41 41 40 39 39 38 37 36 37 38 36 33 31 32 33 33
13 13 13 13 13 13 14 14 15 16 18 20 21 22 25 28 29 30 30 31 34 37 41 41 42 43 44 42 40 40 40 38 37 37 37 38 38 35 33 34 36 35
13 13 13 13 13 12 13 14 16 19 22 24 26 27 29 32 34 34 33 34 36 38 41 43 44 45 47 44 41 40 40 37 37 37 36 38 39 37 36 38 37 37
15 15 15 14 14 13 15 18 20 23 25 27 29 31 33 35 37 37 37 38 39 40 43 45 45 47 48 47 43 40 38 37 37 36 36 38 39 37 38 39 37 38
19 18 17 16 16 16 18 20 22 24 26 28 31 33 35 37 39 40 41 42 43 44 46 48 48 48 48 47 43 39 37 36 36 35 35 37 38 38 39 39 38 39
22 22 21 20 19 20 21 22 24 26 28 30 32 35 37 39 41 42 44 45 46 47 49 49 49 48 47 45 41 37 35 36 35 34 34 36 38 38 39 39 40 41
21 23 23 23 22 22 24 24 26 28 30 31 34 36 38 41 43 45 47 48 49 50 51 51 50 48 44 40 36 34 34 35 35 34 34 36 38 38 38 39 40 41
20 22 23 24 24 25 26 27 29 30 32 34 36 37 40 42 45 48 50 50 51 53 53 52 50 47 42 37 34 33 33 34 34 33 34 36 39 39 39 39 40 42
22 23 24 26 27 28 29 30 31 33 34 36 38 40 42 44 47 50 51 52 53 54 54 53 51 47 41 37 34 34 34 34 34 34 34 36 38 39 39 39 40 41
26 27 28 29 31 32 33 33 34 35 36 37 39 42 44 46 48 51 52 53 55 55 55 54 52 46 42 39 37 36 36 35 34 35 35 35 37 38 38 38 38 40
30 31 32 34 35 36 37 37 37 38 38 38 40 43 45 46 49 51 52 53 55 55 54 53 49 44 42 40 38 37 37 36 35 35 35 35 36 37 37 37 37 40
33 34 37 39 40 40 41 40 39 39 39 40 42 44 46 47 50 52 52 52 53 53 52 49 45 42 42 41 38 37 37 36 36 35 35 36 36 36 37 36 38 42

ECMWFNIL_500_spd_039.txt.gz
Wind_Speed
16 16 16 16 16 15 15 15 13 12 12 11 11 11 11 12 12 12 12 13 15 16 17 18 19 20 20 21 22 23 23 24 25 26 28 30 30 31 33 34 33 27
18 17 17 17 17 17 16 15 12 11 12 12 11 11 11 11 11 12 13 14 15 16 18 19 19 21 21 22 23 24 25 26 27 28 30 32 31 31 32 33 32 28
19 18 18 18 17 17 16 14 12 11 11 11 11 11 10 10 10 12 14 15 15 16 18 20 21 22 22 23 24 25 26 27 29 30 32 33 33 31 31 31 31 30
18 18 17 16 16 15 13 12 11 11 10 10 11 11 10 10 11 12 14 15 15 16 18 20 21 22 23 24 25 26 27 28 30 31 32 34 34 32 31 32 31 31
15 15 14 13 13 11 10 9 10 9 9 9 9 10 11 12 12 12 12 14 15 17 19 21 22 23 24 25 26 27 28 30 31 31 32 33 35 34 33 33 33 31
13 12 11 10 9 8 8 8 8 8 8 8 8 10 12 13 12 12 12 14 16 17 19 21 23 24 25 26 27 28 29 31 32 32 32 33 35 36 34 33 34 33
12 11 9 9 8 8 8 7 7 8 7 7 8 10 11 12 12 13 14 16 17 19 20 21 23 24 25 26 27 28 30 31 33 33 34 34 35 36 35 33 34 32
11 10 10 9 8 8 8 7 7 8 7 7 8 9 9 11 12 14 15 17 18 20 22 23 24 25 25 26 27 29 30 32 34 34 34 34 34 34 33 32 33 32
11 11 11 10 9 9 8 7 7 7 7 8 8 8 9 11 13 14 15 17 19 22 23 25 26 27 27 29 30 31 32 33 34 34 34 34 33 33 32 32 32 31
11 12 11 11 10 9 9 8 8 8 8 8 7 8 9 11 13 15 17 19 21 23 25 26 28 30 31 32 33 34 35 35 36 37 36 36 34 33 33 32 32 32
10 11 11 11 11 11 10 9 9 9 8 8 7 8 9 12 15 17 18 20 22 24 26 27 29 30 32 33 34 36 36 37 38 38 38 38 37 36 35 33 32 32
11 11 12 12 12 12 11 10 9 9 9 9 8 9 11 12 14 16 17 20 22 24 26 27 29 31 32 34 35 36 38 38 38 38 39 38 38 38 37 35 32 30
12 13 14 13 13 13 12 10 9 9 9 10 11 11 10 11 12 14 16 19 22 25 26 28 32 34 36 37 37 38 40 41 41 41 40 38 36 36 36 36 33 30
13 14 14 14 13 13 11 10 9 10 10 11 12 11 10 10 12 15 17 20 23 26 27 30 33 36 38 41 41 42 43 44 44 43 41 37 35 34 35 35 34 31
14 15 15 14 13 12 11 11 11 11 11 10 10 11 12 14 15 17 20 22 24 26 28 30 33 36 38 41 43 45 46 46 46 45 41 35 33 33 34 34 34 33
15 16 15 14 13 13 13 13 13 13 11 10 10 13 15 17 18 19 21 24 25 27 29 31 33 36 38 41 43 45 47 47 46 45 41 34 32 33 33 33 34 34
16 17 17 15 14 15 15 15 14 13 11 11 12 15 17 18 19 21 23 24 26 27 29 32 34 36 39 41 43 45 46 47 46 45 41 35 32 33 33 33 34 34
17 18 18 17 16 17 17 16 15 13 13 14 15 16 18 19 21 23 24 26 27 29 30 32 34 37 40 42 44 45 46 47 46 43 38 34 33 33 33 33 34 35
18 19 20 19 18 18 18 17 16 15 15 16 17 18 20 21 23 25 26 28 29 31 32 34 35 38 41 43 44 46 47 47 45 40 35 33 33 34 34 33 34 36
19 19 21 21 21 20 19 19 19 19 19 19 20 21 22 24 26 28 29 30 32 33 34 36 37 39 42 44 45 47 47 45 42 36 32 32 33 35 36 35 36 36
20 20 21 22 23 22 22 22 22 23 23 23 24 24 25 26 29 30 32 33 34 35 36 37 39 41 44 46 47 47 46 43 39 34 31 31 33 35 38 39 38 38
20 20 21 22 23 23 23 23 23 24 25 25 26 27 28 30 31 33 34 36 37 37 37 39 40 43 45 46 47 47 45 42 39 35 32 32 33 36 39 40 40 39
21 20 21 21 21 22 22 22 23 24 25 26 27 29 31 33 34 35 37 38 39 39 39 40 42 44 46 47 47 46 45 42 40 38 36 35 35 37 38 39 39 39
24 23 22 22 21 20 20 22 24 25 26 27 28 31 34 35 36 37 39 40 41 41 41 41 43 46 47 47 47 46 45 43 42 40 39 37 37 37 37 37 37 37
26 25 24 22 21 21 22 25 26 27 28 29 31 34 36 38 39 39 40 41 42 43 42 43 45 47 48 47 47 47 46 45 43 41 38 37 37 37 36 37 37 37
28 26 25 23 23 25 27 28 29 29 30 33 35 38 40 42 43 42 41 42 44 45 43 44 47 48 48 47 47 48 47 46 44 41 37 36 36 36 37 38 38 38

ECMWFNIL_500_spd_042.txt.gz
Wind_Speed
17 17 16 16 16 15 14 14 15 13 12 11 11 10 9 8 9 10 9 9 9 10 11 12 13 14 16 17 18 19 20 21 22 24 25 26 27 27 27 27 27 26
19 19 19 19 18 17 16 16 16 14 13 12 12 10 9 8 9 9 9 9 10 9 10 12 13 15 17 18 19 21 22 23 23 25 26 27 28 27 27 28 28 27
21 21 21 21 21 20 18 17 16 15 13 13 12 11 10 9 8 7 8 9 10 10 10 12 14 16 18 19 20 22 23 23 24 25 26 27 28 28 28 28 28 27
22 23 23 23 21 19 18 16 15 15 14 14 12 11 10 9 7 6 8 9 10 11 12 13 15 17 18 19 21 23 23 24 25 26 27 29 30 30 29 29 28 28
23 23 23 22 19 17 16 16 16 16 15 14 12 10 9 8 7 7 8 9 10 11 12 14 15 17 19 21 22 23 24 25 26 27 27 29 29 29 29 28 27 27
23 22 21 19 18 16 16 16 17 16 15 14 12 10 9 7 7 8 9 10 10 12 13 15 17 19 20 21 22 22 23 24 25 26 27 28 29 29 29 28 28 27
22 22 21 19 18 16 16 17 17 15 14 13 11 10 8 8 8 9 9 10 11 13 14 16 18 19 20 20 21 22 22 22 24 26 28 29 30 30 30 30 29 27
23 22 21 19 17 16 16 17 16 14 14 13 11 10 8 8 8 9 9 10 12 13 15 17 18 18 18 19 21 22 22 23 25 27 29 30 31 32 32 31 30 28
22 21 20 19 17 17 17 17 16 15 14 13 11 10 9 9 9 9 10 11 12 14 15 16 17 17 18 19 21 23 24 25 26 27 29 31 32 33 33 31 30 29
20 20 19 19 18 17 17 17 16 15 14 13 11 10 10 10 9 9 10 12 13 13 14 15 17 17 18 18 20 23 25 26 27 28 30 32 32 33 34 32 30 29
19 19 19 19 19 19 18 18 17 15 14 13 12 11 11 10 10 10 11 12 12 12 14 15 17 18 19 20 21 24 26 28 30 30 31 32 32 33 34 33 31 29
19 18 18 19 20 19 19 18 17 16 15 13 13 13 12 11 11 11 12 11 11 12 14 16 18 19 21 22 24 25 27 30 32 32 32 32 31 32 33 33 31 29
19 18 19 19 20 20 20 19 18 17 16 14 14 14 13 12 12 12 12 11 12 13 15 16 18 19 21 24 25 26 28 30 32 34 34 34 32 31 32 32 30 28
19 20 20 21 21 21 21 20 19 18 17 16 16 15 14 14 13 12 12 12 12 14 16 18 19 20 22 24 26 28 29 30 33 35 36 38 35 33 32 31 29 28
19 21 22 22 22 22 21 20 20 19 18 18 17 16 16 15 14 12 12 12 13 15 17 19 20 21 22 25 27 30 31 32 34 36 38 40 37 34 33 31 28 27
21 21 22 22 22 22 21 21 20 20 20 19 19 19 18 16 14 13 12 13 14 16 18 20 21 22 24 26 28 31 33 34 34 35 38 39 37 34 33 31 28 27
24 23 22 22 22 22 22 22 22 21 21 21 21 20 18 16 14 13 13 14 16 18 19 21 22 23 25 27 29 32 35 35 35 34 36 38 37 35 33 31 29 28
26 26 24 23 22 23 23 23 23 23 23 22 21 19 18 16 14 13 14 15 17 19 21 22 23 25 27 29 31 34 36 37 37 35 35 37 38 36 33 32 30 29
27 28 26 24 23 23 25 26 26 25 24 23 21 20 19 17 14 14 15 16 18 20 22 23 25 27 29 30 32 36 38 39 38 37 37 37 37 35 33 32 31 31
29 29 28 26 24 25 27 29 28 25 24 24 23 21 19 17 16 16 17 18 20 23 24 25 27 31 33 34 35 38 40 40 39 39 40 39 38 35 33 32 31 31
31 31 30 28 26 27 29 30 28 26 25 25 24 22 20 19 18 18 18 20 23 25 26 28 30 34 35 36 38 40 42 43 42 42 42 42 40 37 34 32 32 33
33 32 31 30 28 28 30 30 29 27 25 25 24 24 23 22 20 19 20 22 25 27 28 30 32 33 34 35 38 41 43 44 44 44 44 44 42 38 36 35 35 36
35 34 33 32 30 29 29 29 30 29 27 26 25 25 24 22 20 19 21 23 26 29 30 31 32 33 34 37 39 42 44 44 45 46 46 45 43 40 38 38 39 39
37 36 35 33 32 30 29 29 30 30 29 28 26 24 23 21 20 20 22 24 27 30 31 33 34 35 38 40 43 45 46 45 45 47 47 46 44 42 40 41 41 41
38 38 37 35 34 32 29 28 29 29 29 28 26 24 22 21 21 21 23 25 28 31 33 34 36 38 41 43 45 48 49 47 46 46 47 46 45 43 42 42 42 41
39 40 39 38 36 34 31 29 29 30 30 28 26 24 22 22 22 23 24 26 28 32 35 36 37 39 42 43 45 47 47 45 42 43 45 46 46 44 43 43 43 41

ECMWFNIL_500_spd_045.txt.gz
Wind_Speed
16 16 16 17 17 17 17 17 17 16 15 16 17 16 14 12 10 9 8 6 4 4 5 7 8 9 10 11 13 14 16 17 17 17 17 17 17 18 18 18 18 19
19 19 19 19 19 19 19 19 19 18 17 18 19 17 15 13 11 10 8 6 5 6 6 7 9 10 11 12 13 14 15 15 15 15 15 15 16 17 18 18 18 18
21 21 21 21 21 21 22 22 22 21 20 19 19 19 17 14 12 10 7 6 6 7 7 7 9 10 11 13 13 13 13 13 13 13 14 15 16 17 18 18 18 18
23 23 23 23 23 24 24 24 23 22 21 20 20 20 17 14 12 10 8 7 7 7 7 8 9 10 12 12 12 12 12 12 12 13 14 15 16 17 18 19 19 19
25 25 25 26 26 26 26 24 24 23 21 20 22 21 18 15 13 11 10 9 8 8 7 8 9 10 11 11 10 11 11 11 12 13 14 15 17 18 19 21 22 22
26 26 26 27 27 27 26 24 24 24 22 21 22 21 18 16 13 12 11 11 9 8 8 9 10 10 10 9 11 12 12 13 13 14 15 16 18 20 22 24 26 26
27 27 28 28 28 27 26 25 24 23 23 22 22 21 19 17 15 14 13 12 10 8 9 10 10 10 9 9 12 14 15 16 16 17 17 19 21 23 24 26 28 30
27 28 28 28 28 27 26 25 24 24 24 23 21 21 20 18 16 15 14 12 10 9 10 10 10 9 9 11 13 15 17 18 18 19 20 22 23 24 25 26 27 29
26 27 28 28 28 26 25 24 24 25 24 22 22 22 21 19 17 16 15 13 11 11 10 10 10 9 10 12 14 15 17 18 19 21 23 24 25 25 26 27 27 28
24 25 26 27 26 24 24 24 24 25 24 22 23 23 22 20 19 17 15 14 13 12 11 10 10 10 11 13 14 16 17 18 20 22 25 26 26 26 27 29 29 28
22 23 24 23 22 22 23 24 25 25 24 23 23 23 22 21 20 17 16 15 14 13 11 11 12 12 12 13 15 17 18 20 22 24 25 26 26 27 28 29 30 29
20 21 21 20 20 21 23 25 25 25 24 23 24 24 23 22 20 19 18 17 16 14 12 12 13 13 13 14 16 18 20 22 24 26 26 26 26 27 28 28 28 28
19 19 19 18 19 21 24 26 26 25 25 24 25 25 24 23 21 20 19 19 17 14 13 14 14 14 14 16 18 19 21 24 26 27 28 27 27 28 28 28 28 27
18 19 18 18 20 21 23 25 26 25 25 26 27 26 24 23 22 22 21 19 17 14 14 15 15 14 15 17 19 21 23 25 27 28 29 29 29 29 30 29 29 28
18 19 19 20 21 21 22 23 24 25 26 27 28 26 25 24 24 23 22 19 17 15 15 15 14 15 15 17 20 23 25 26 27 28 30 30 29 29 30 31 30 30
19 19 20 21 21 21 21 22 23 25 27 28 27 26 26 26 26 24 22 19 18 16 15 14 14 15 16 18 21 24 26 27 27 28 29 30 29 29 30 32 32 31
22 22 22 22 22 22 22 22 24 25 27 28 28 27 27 27 27 24 22 20 19 17 15 14 14 16 17 18 21 24 27 27 27 27 28 30 30 30 31 31 32 32
25 25 25 24 24 24 23 22 24 25 27 28 28 28 28 29 28 25 23 22 20 18 16 15 15 17 17 19 22 25 27 27 26 27 29 31 32 33 32 31 32 32
28 27 27 27 27 27 26 25 25 25 25 27 29 29 30 30 29 26 25 24 21 19 17 16 17 18 19 20 22 25 27 27 27 30 32 34 35 36 34 33 32 32
30 29 29 29 29 29 29 28 27 26 25 25 28 31 31 31 30 28 27 25 23 21 20 19 19 20 20 21 23 26 28 28 30 32 35 36 38 39 38 36 33 31
32 31 31 31 32 32 32 31 29 28 27 26 28 31 32 32 31 30 28 26 24 23 22 21 21 21 21 23 24 27 30 30 31 33 35 37 39 41 42 39 34 31
32 32 33 34 34 34 33 32 30 29 29 28 28 30 33 34 33 31 30 28 26 26 24 23 23 22 23 24 25 28 31 32 33 34 34 35 37 39 39 35 30 30
32 33 35 37 37 36 35 33 32 31 30 30 29 31 33 34 33 32 31 29 29 28 26 24 23 23 24 25 27 30 32 32 33 33 33 34 36 35 33 30 29 31
35 35 37 39 39 38 37 36 35 33 31 31 31 31 33 33 33 34 33 33 33 30 28 26 24 25 27 27 28 31 32 33 34 33 34 36 36 34 32 30 30 33
36 36 38 40 40 39 39 38 37 36 34 33 32 33 33 34 35 36 36 36 35 32 29 27 26 27 29 29 30 32 32 34 35 33 34 37 36 34 35 34 35 37
37 37 38 41 41 39 40 40 40 39 38 36 34 34 35 36 37 38 38 37 36 33 31 29 28 29 30 30 32 33 33 34 35 33 34 36 35 34 35 38 40 40

ECMWFNIL_500_spd_051.txt.gz
Wind_Speed
18 17 16 17 17 17 16 14 13 14 15 15 14 13 12 11 11 11 13 13 12 13 14 14 13 12 12 10 6 3 4 5 5 6 7 9 11 12 13 13 13 14
18 17 17 18 18 18 17 16 14 14 15 16 14 13 12 11 12 13 13 13 13 14 15 15 14 13 13 11 7 4 4 4 4 6 7 9 11 13 14 14 14 14
19 18 17 18 19 19 19 18 17 15 16 16 15 14 13 13 14 14 14 14 14 14 15 16 14 14 14 12 8 5 5 4 4 6 8 9 11 12 13 14 14 13
20 19 19 19 20 21 21 19 18 17 17 18 17 17 15 15 15 15 15 16 15 15 16 16 15 15 15 13 9 7 6 5 5 7 8 9 10 11 12 13 13 13
22 22 21 21 21 22 21 20 20 20 19 20 20 19 17 17 17 17 17 17 16 15 16 17 16 16 16 14 10 8 7 6 6 7 7 8 9 10 10 11 11 11
23 23 23 23 23 23 22 21 22 22 21 21 21 20 19 19 18 19 19 18 18 16 17 18 17 17 17 15 12 10 9 7 6 6 6 7 8 9 10 10 10 10
23 24 25 25 25 24 23 23 23 22 22 23 22 21 21 20 20 20 20 20 19 17 17 18 18 18 18 16 13 12 10 8 7 6 6 7 8 9 9 9 9 9
23 24 25 26 26 25 24 24 24 23 24 24 23 22 22 22 22 22 22 21 19 18 19 19 19 18 18 18 15 13 12 10 8 7 6 7 8 9 9 9 9 8
23 24 25 26 26 26 26 25 25 25 25 24 24 23 23 23 23 24 23 22 20 19 20 21 20 19 19 19 17 15 13 12 10 9 8 8 8 9 9 10 10 10
22 22 23 24 25 26 26 27 27 26 26 25 25 25 24 24 25 25 24 22 20 19 21 22 21 20 20 20 18 16 15 14 12 11 10 9 9 10 10 11 12 12
20 20 21 21 23 24 26 27 28 27 27 27 26 26 26 26 26 25 23 22 20 20 22 23 23 22 21 21 20 18 16 15 14 13 12 11 11 11 11 12 13 14
18 18 18 19 21 23 24 26 26 26 26 26 27 26 26 26 25 24 22 20 20 21 23 25 24 22 22 22 21 19 18 17 16 15 14 13 13 13 12 13 15 16
16 16 16 18 19 21 22 23 24 24 24 24 25 25 24 24 23 22 21 19 20 22 24 25 24 23 22 23 23 21 19 18 18 17 16 15 15 15 15 15 17 19
15 15 15 16 17 18 19 19 20 20 20 21 21 20 19 19 18 19 18 18 18 21 24 25 24 22 22 23 23 23 21 20 19 18 18 17 16 17 17 18 19 20
16 15 14 14 14 13 13 13 13 13 14 14 14 14 14 15 15 16 16 16 17 19 22 24 23 21 21 23 24 24 23 22 21 20 20 19 18 19 19 19 20 21
18 16 13 12 11 9 9 8 7 7 6 6 8 9 11 13 15 15 16 17 18 19 21 23 22 21 21 23 25 26 26 24 23 22 22 21 21 20 19 20 20 21
19 16 14 12 10 9 8 7 6 6 5 5 5 6 8 11 12 14 16 18 18 19 20 21 21 21 22 24 25 28 28 27 26 25 24 24 23 21 20 20 19 20
19 17 15 13 11 10 9 9 10 9 8 7 8 9 9 9 9 11 13 16 18 19 19 19 20 22 23 24 26 29 30 29 28 28 27 26 25 23 21 20 19 20
19 18 16 15 13 12 13 13 13 12 12 12 13 14 13 10 10 11 12 13 15 17 19 20 21 23 25 26 27 30 32 32 31 30 29 28 28 25 22 21 21 20
20 20 18 16 15 15 16 16 16 15 16 16 17 18 17 14 14 15 14 14 14 15 18 20 21 24 26 27 29 31 33 34 34 33 32 31 30 28 24 23 23 21
21 21 20 19 19 19 20 20 20 20 20 20 21 22 21 20 20 19 18 17 17 17 19 19 20 23 26 27 30 32 34 36 36 35 34 33 32 30 27 26 26 23
23 23 23 22 22 22 22 23 24 24 24 25 26 26 26 25 25 24 23 22 22 22 22 20 21 23 24 27 30 32 35 37 37 37 36 35 34 32 29 29 28 25
25 25 25 25 25 25 26 26 26 27 28 29 29 29 29 29 29 29 28 28 28 27 25 24 24 25 26 27 29 32 35 37 38 38 38 37 36 35 33 32 30 28
27 27 27 28 29 29 29 28 29 30 32 32 32 32 31 31 32 33 33 34 34 32 30 29 29 29 29 30 30 32 35 37 38 39 39 39 38 37 36 35 33 31
31 30 30 30 31 31 32 32 32 34 35 35 35 35 34 34 35 36 37 37 38 37 36 34 34 33 33 33 34 34 36 38 40 40 40 40 39 39 39 38 35 33
34 34 34 33 33 34 35 35 36 37 38 38 38 38 37 37 38 38 39 40 41 41 40 40 39 38 37 37 38 38 39 40 41 42 41 41 41 42 42 41 38 35

ECMWFNIL_500_spd_054.txt.gz
Wind_Speed
20 19 19 20 20 20 20 19 18 18 17 16 16 15 13 11 11 10 9 8 9 8 8 10 12 12 12 12 13 12 11 10 8 6 7 8 8 9 10 11 10 8
20 19 19 19 20 20 20 20 18 17 17 17 17 15 13 11 11 11 10 10 9 9 9 10 11 13 13 13 13 12 12 10 8 7 7 8 8 9 10 11 10 9
21 20 20 19 20 20 21 21 19 18 18 18 17 15 14 13 13 12 11 11 10 11 11 11 12 13 14 14 14 13 12 11 9 8 7 7 7 8 9 10 10 9
21 20 20 20 21 21 21 21 20 19 18 18 18 17 15 14 15 14 13 12 12 12 12 12 13 14 14 15 15 14 13 11 10 8 7 6 5 7 8 9 10 9
21 20 20 20 21 21 21 20 21 21 20 19 19 18 16 16 16 15 14 13 13 13 14 14 14 14 15 16 16 15 13 12 10 9 8 6 5 6 7 8 9 9
20 20 20 20 20 20 20 20 21 22 21 21 20 19 18 17 17 16 16 15 15 15 15 16 16 16 16 17 17 16 14 13 11 10 8 7 6 6 7 8 9 10
21 20 20 20 20 20 20 21 21 22 22 22 21 20 19 19 18 18 17 17 17 17 17 17 17 17 17 18 18 17 16 14 12 11 9 8 7 7 7 8 10 10
22 22 21 21 20 20 20 21 21 22 23 23 22 21 21 20 19 19 19 19 18 18 18 18 18 18 18 18 19 19 17 16 14 12 11 10 9 9 8 9 11 11
23 22 22 22 21 20 21 21 22 23 24 23 23 23 22 21 20 20 20 20 20 20 20 20 20 20 19 19 20 21 19 17 16 15 13 12 11 10 10 10 11 11
22 23 23 22 21 21 21 22 23 24 25 24 24 24 22 21 21 21 21 21 21 21 21 20 20 21 21 21 22 22 21 19 18 17 15 14 12 12 11 10 11 11
22 23 22 21 20 20 21 23 24 25 25 26 25 25 24 23 23 22 22 22 22 22 22 21 22 22 23 23 23 24 23 21 20 19 18 16 14 13 12 11 11 11
21 22 21 20 20 20 21 23 24 24 25 26 26 26 25 25 24 24 23 23 24 24 23 22 23 23 24 25 25 25 24 22 21 21 20 18 16 15 13 12 11 11
21 21 21 20 20 21 21 22 23 24 24 25 25 25 25 25 24 24 24 24 25 25 24 23 23 24 25 26 26 25 24 23 22 22 22 20 18 17 15 14 13 12
21 21 22 21 21 21 21 21 21 21 21 22 23 23 23 23 23 23 23 23 24 23 22 22 22 23 24 26 26 25 24 24 23 23 24 23 21 19 18 16 14 13
22 23 23 22 21 20 19 18 18 18 19 19 20 20 20 20 21 21 20 21 21 20 19 19 20 21 23 24 26 26 25 25 25 25 25 25 23 22 20 18 16 14
24 24 24 22 20 19 18 17 17 17 16 16 16 16 16 16 16 16 16 16 17 17 17 17 17 18 20 23 25 26 26 26 25 25 26 26 25 24 23 21 18 16
24 24 23 21 20 19 18 16 15 14 13 13 12 12 11 10 10 10 11 12 14 15 17 17 17 17 20 23 25 26 26 26 26 26 27 27 26 26 26 24 22 19
24 24 23 21 20 20 18 17 16 14 13 12 11 10 9 8 7 6 7 8 10 13 15 16 17 18 20 22 25 26 26 27 26 27 28 28 27 27 27 27 24 22
24 24 23 22 21 21 20 19 18 16 14 13 12 12 10 8 7 7 7 7 8 10 12 14 16 17 19 22 24 26 27 28 28 27 28 29 29 28 29 29 26 25
26 24 23 22 22 22 22 21 20 18 17 16 15 14 12 9 9 10 10 9 10 10 11 12 13 14 16 20 23 26 27 29 30 30 30 30 30 30 31 30 28 27
27 25 24 24 24 24 23 22 21 19 18 17 16 15 13 12 13 13 13 13 13 13 13 13 14 15 16 19 21 24 26 29 31 32 31 31 32 32 32 32 30 29
28 27 26 25 25 25 24 23 22 20 19 19 18 17 16 17 18 18 18 19 18 18 18 17 18 19 20 21 23 24 26 28 29 30 31 31 32 33 33 33 31 32
29 28 27 26 26 26 25 24 23 22 22 22 21 21 20 20 22 23 25 25 25 25 24 23 24 24 25 26 28 29 30 30 30 31 32 32 32 32 33 34 33 33
28 28 27 27 27 26 26 26 26 25 25 25 25 24 24 25 26 27 29 30 30 31 31 30 30 30 30 31 33 34 35 35 35 36 36 35 34 32 33 34 34 35
28 28 28 27 27 28 28 29 29 28 28 29 29 29 29 30 31 31 31 32 34 35 36 36 36 35 35 35 36 37 38 39 40 41 40 39 38 36 35 35 36 37
29 29 28 28 29 29 31 31 31 31 32 33 34 34 35 35 35 34 33 34 35 37 38 38 38 39 38 38 39 40 42 44 45 45 44 43 43 42 41 40 39 39

ECMWFNIL_500_spd_057.txt.gz
Wind_Speed
22 22 22 22 22 21 19 18 18 17 17 16 17 16 15 13 12 12 11 10 9 9 9 10 10 10 10 9 9 9 8 8 7 7 6 6 6 7 8 9 9 9
22 22 22 22 22 21 20 19 18 17 16 16 16 15 15 13 12 12 12 11 10 9 10 11 11 11 11 10 10 9 9 8 8 7 7 7 6 6 7 9 9 9
22 21 21 21 22 22 21 20 18 18 17 16 16 15 14 13 13 13 13 12 11 10 10 11 12 12 12 11 11 10 10 9 8 8 7 7 6 5 6 8 9 9
22 21 20 20 21 21 21 20 19 18 18 17 17 16 14 13 13 14 14 13 12 12 12 12 13 13 13 12 12 12 11 10 9 9 8 8 6 5 5 7 8 8
22 21 20 20 20 20 21 20 20 20 19 19 18 17 15 15 15 15 15 15 14 14 14 14 14 14 14 14 13 13 13 12 11 10 9 9 7 6 4 5 7 7
21 21 20 19 19 19 19 20 20 20 20 20 19 18 18 17 17 17 17 17 16 15 15 15 15 16 16 15 15 14 14 13 12 11 10 10 9 7 5 4 5 7
21 20 20 19 19 19 19 19 20 20 20 20 20 19 19 19 19 18 18 18 18 17 17 17 17 17 17 17 16 16 16 15 13 12 12 11 11 9 7 5 5 6
22 21 21 20 20 20 19 19 19 19 20 20 19 20 20 20 21 20 20 20 19 19 18 19 19 19 19 18 18 17 17 16 15 14 13 13 13 12 10 8 6 6
23 22 22 21 21 21 21 21 21 20 21 20 20 21 21 21 21 21 21 21 21 20 20 20 21 21 21 20 19 19 19 18 17 16 15 14 15 15 14 11 9 7
23 23 22 22 21 21 22 23 23 22 22 21 21 22 22 21 22 22 22 22 22 21 21 21 22 23 22 22 21 21 20 19 18 17 16 16 16 17 16 15 12 10
24 24 22 22 21 22 23 24 24 23 22 22 22 23 23 23 23 23 22 22 23 22 22 22 23 24 24 24 23 22 22 21 19 19 18 17 17 17 18 17 16 13
24 23 22 22 22 22 23 24 23 22 22 22 22 23 23 23 23 23 23 23 24 24 24 24 24 25 25 25 25 24 23 22 20 20 19 19 18 18 19 19 18 16
23 22 22 22 22 22 23 23 23 22 22 22 23 23 23 23 23 24 24 24 25 25 25 25 25 26 26 26 26 25 24 23 21 20 20 20 20 19 19 20 19 18
22 22 22 22 22 22 22 22 23 23 22 22 23 22 22 22 22 23 24 24 25 25 26 26 26 26 27 26 26 25 23 23 22 21 21 21 21 20 20 20 20 20
22 23 22 23 23 22 22 22 22 22 22 22 22 21 21 21 22 22 23 24 24 25 26 26 27 27 26 25 25 24 23 22 22 21 21 21 22 21 20 20 20 21
23 23 23 23 23 22 22 22 22 22 22 21 21 21 21 21 21 21 22 23 23 24 24 25 25 24 23 22 22 23 23 22 21 21 21 21 22 22 21 21 21 21
23 24 25 25 24 23 23 23 22 22 21 21 20 20 20 20 19 19 20 20 20 21 21 21 21 19 19 19 21 22 23 22 21 21 22 22 22 22 22 22 22 22
23 25 26 26 25 24 23 23 23 22 21 20 20 19 19 18 17 17 17 17 17 17 17 17 17 17 17 19 20 21 22 23 23 23 23 23 23 23 24 24 24 24
22 25 26 26 25 25 25 25 24 23 21 20 20 19 19 17 16 15 15 14 14 14 14 14 14 15 16 18 19 21 22 23 24 23 24 24 24 25 26 26 26 26
22 24 25 25 26 26 26 26 25 23 21 21 20 20 19 17 16 16 15 14 14 13 13 13 13 12 12 14 16 18 19 22 23 23 23 24 25 26 28 28 28 29
23 24 25 25 26 27 27 26 25 23 22 22 21 21 20 18 18 17 17 16 16 15 15 14 13 13 12 13 15 17 18 21 22 23 23 23 24 26 27 28 28 29
23 25 26 25 26 27 27 26 25 24 23 23 23 22 21 20 20 20 19 19 19 18 18 17 17 17 16 16 18 20 22 24 25 26 26 25 26 26 26 27 28 28
21 24 25 25 27 28 28 26 26 26 25 25 25 25 25 24 23 23 23 22 21 21 21 20 21 21 21 21 21 24 27 29 29 30 30 30 30 30 30 31 32 32
19 21 23 25 27 29 28 27 27 28 28 28 28 28 28 28 27 27 26 25 24 24 23 23 23 24 24 25 25 27 30 32 34 34 35 35 35 35 35 36 37 37
20 20 21 23 26 29 29 29 29 29 30 30 30 30 30 30 30 30 28 27 26 26 26 26 27 28 28 28 29 30 32 34 37 38 38 38 38 40 41 42 42 42
21 21 20 21 24 28 30 30 30 30 30 30 30 30 31 31 31 31 30 29 29 29 30 30 31 32 32 32 33 34 35 36 39 40 40 40 41 43 45 45 44 44

ECMWFNIL_500_spd_060.txt.gz
Wind_Speed
18 18 18 18 16 15 15 14 14 13 12 12 12 12 11 10 9 9 10 9 8 7 6 6 6 6 6 6 5 5 5 5 6 6 6 7 7 7 7 8 8 8
18 18 18 18 16 15 15 14 14 13 13 13 13 13 13 12 11 11 11 10 9 8 8 7 7 7 7 7 6 5 5 5 6 6 7 7 7 7 6 7 7 7
18 17 17 18 17 16 15 14 13 13 13 12 12 13 13 12 12 12 11 11 11 9 9 9 8 7 8 8 8 7 6 5 5 6 7 7 7 7 6 6 6 7
17 16 17 18 18 17 15 14 13 13 13 13 13 12 12 12 12 12 12 12 12 11 10 10 10 9 9 9 9 8 7 6 6 6 7 8 8 8 7 6 6 6
16 16 16 16 17 17 16 16 15 15 15 14 14 13 13 13 13 13 13 13 13 13 12 12 12 12 11 10 10 10 9 8 7 7 7 8 8 8 8 8 7 7
16 15 15 15 15 15 15 16 16 16 16 16 16 16 15 15 15 15 15 15 15 15 14 14 14 14 14 13 12 12 11 10 8 8 8 8 9 9 9 10 10 9
16 16 16 15 15 15 15 15 16 16 17 17 17 17 17 17 17 18 18 18 17 17 16 16 16 16 16 15 14 13 13 12 11 10 10 9 9 10 10 11 12 12
18 17 16 16 15 15 16 16 16 16 17 18 17 18 18 18 18 18 19 19 20 19 19 18 18 18 18 17 16 15 15 14 13 12 12 11 10 11 11 12 13 13
19 18 17 17 16 16 16 17 17 17 18 18 18 19 19 19 19 19 20 20 20 21 21 20 20 20 20 19 18 18 17 16 15 14 14 13 12 12 12 12 13 14
19 18 18 17 17 17 17 18 18 19 19 19 19 20 20 20 21 21 21 21 21 21 21 21 21 22 22 21 20 20 19 19 18 16 15 15 14 14 13 13 13 15
19 19 18 18 18 18 19 20 20 20 20 20 20 20 20 21 21 21 22 22 22 22 22 22 22 22 23 23 21 21 21 21 20 18 16 15 15 15 14 14 14 15
20 19 19 19 19 19 20 21 21 20 20 20 19 19 19 19 21 21 22 22 23 23 22 22 23 23 23 23 23 22 22 22 22 21 18 16 16 16 15 15 15 16
20 20 20 20 20 21 21 22 22 21 19 19 18 19 18 18 19 21 21 22 22 23 23 22 23 23 23 23 24 23 23 23 24 23 20 17 16 16 16 16 16 16
21 22 22 22 22 22 22 22 22 21 20 19 19 18 18 18 18 19 21 21 21 21 22 22 23 23 23 23 24 24 24 24 25 24 21 18 17 17 17 18 17 17
22 22 22 22 22 23 23 23 23 22 20 19 18 18 19 18 18 18 19 20 20 20 21 22 22 22 23 23 24 25 25 25 25 24 21 18 17 18 19 19 19 18
21 22 21 22 22 23 23 24 24 23 22 20 19 19 19 19 18 17 17 18 19 20 20 21 21 21 22 23 24 25 25 25 23 21 19 17 17 18 19 20 20 20
19 20 20 20 21 22 23 24 25 24 23 22 20 19 19 19 18 17 16 17 19 19 19 19 19 20 21 22 22 22 22 22 19 18 17 17 17 17 19 21 22 22
16 17 18 19 20 21 23 25 26 25 23 22 21 20 20 19 18 17 17 17 17 18 19 18 18 19 20 19 19 19 19 18 17 17 17 17 17 18 19 21 22 23
16 16 16 17 19 21 23 25 26 25 23 22 22 21 21 20 19 18 17 17 16 16 17 17 17 17 17 17 17 17 17 17 17 17 17 17 18 18 19 20 21 22
18 17 16 17 18 20 22 24 25 24 24 23 23 22 21 20 18 18 18 18 17 17 17 16 16 16 16 15 15 15 16 17 17 16 16 16 16 17 18 19 19 21
21 20 19 19 19 20 21 21 23 24 24 24 23 23 21 20 19 19 19 19 19 18 17 16 15 15 15 14 14 15 16 17 17 17 16 16 17 18 19 20 21 23
24 22 21 21 21 22 22 22 23 24 25 25 24 23 22 21 20 20 20 20 20 19 18 16 16 16 15 15 15 16 17 18 18 19 20 19 20 20 22 23 24 25
28 24 22 20 19 21 22 23 24 25 25 25 25 24 23 22 21 21 22 22 21 21 19 18 18 18 18 17 17 17 19 20 22 23 24 24 24 24 25 26 27 28
31 27 23 20 18 18 20 23 25 25 25 26 26 25 24 24 23 23 23 23 22 22 21 21 20 20 20 20 20 21 22 23 25 28 29 28 28 29 29 29 29 30
33 29 25 21 18 17 19 21 24 25 25 26 26 26 25 25 24 24 24 24 24 24 24 23 23 23 23 23 23 24 25 26 27 29 31 32 33 34 33 33 32 32
35 30 27 23 20 18 19 21 23 24 24 24 25 25 25 25 24 23 23 24 25 25 26 26 26 26 26 25 25 27 28 30 31 31 32 33 35 36 37 36 36 36

ECMWFNIL_500_spd_063.txt.gz
Wind_Speed
11 12 12 12 10 9 9 8 7 6 6 6 5 4 4 5 5 5 5 6 6 6 6 6 6 6 6 6 5 4 4 5 5 5 5 6 6 6 7 8 9 9
11 11 12 11 11 10 9 9 8 7 6 6 6 6 6 6 6 6 6 6 6 6 6 6 6 6 7 7 7 6 5 5 6 6 6 6 6 6 6 7 8 8
11 11 11 11 11 11 10 9 8 8 7 7 7 7 7 7 7 6 6 6 7 7 6 6 5 6 6 7 7 8 8 7 6 7 7 7 6 6 7 7 7 8
12 11 11 12 12 11 9 8 8 8 8 8 8 8 8 8 8 8 8 8 7 7 7 7 6 6 7 7 8 8 9 9 9 8 8 8 7 7 7 8 8 8
12 11 11 11 11 10 9 9 9 9 9 9 9 9 9 10 10 10 10 10 9 9 9 9 8 8 8 9 9 9 9 10 10 10 9 9 9 8 7 8 9 9
11 10 10 10 10 10 10 10 10 10 9 9 10 10 10 11 11 12 12 13 13 12 11 11 11 10 10 10 11 11 10 10 10 11 11 10 10 10 9 9 10 10
11 10 10 10 10 10 11 11 11 11 11 11 11 11 11 12 12 12 13 13 14 14 14 13 13 13 12 12 12 13 12 12 11 11 12 11 10 11 11 10 10 11
13 12 12 12 12 11 11 11 12 12 12 12 12 13 12 12 13 13 14 14 14 14 15 15 15 15 15 14 14 14 14 14 13 12 12 12 11 11 12 12 12 12
13 12 12 12 12 12 12 12 12 12 12 12 13 13 13 13 13 13 14 14 14 14 15 15 16 17 16 16 16 16 15 15 15 14 13 13 12 12 12 12 12 13
12 12 12 12 12 13 13 13 13 12 12 13 13 14 14 14 14 13 13 14 15 16 15 15 16 17 17 17 17 16 16 16 16 15 15 14 14 13 13 13 13 14
13 13 13 13 13 13 13 13 13 13 13 13 14 14 14 14 14 14 13 13 14 16 16 17 17 17 18 17 17 17 17 16 16 16 16 16 16 15 14 13 13 14
14 13 13 14 14 14 14 14 13 13 14 14 14 14 14 14 14 13 13 13 14 15 16 17 17 17 17 18 18 18 17 17 17 16 16 17 18 17 15 14 14 15
14 14 14 14 15 15 15 15 14 15 15 15 14 14 14 14 14 14 14 14 14 14 15 16 17 17 17 17 18 18 17 17 17 17 17 18 19 18 17 15 15 15
14 14 15 15 16 16 16 16 16 16 16 16 15 14 14 14 14 15 14 15 15 15 15 15 15 15 16 17 17 18 18 18 18 18 18 19 18 17 16 16 15 15
13 14 15 16 17 17 17 18 18 18 17 16 16 15 15 15 14 15 15 15 16 16 16 15 15 15 15 16 17 17 17 18 18 18 18 19 17 14 13 14 14 15
12 13 14 16 16 17 18 19 20 19 18 17 17 17 16 15 14 14 14 15 16 16 16 15 15 15 15 16 16 16 16 17 17 18 17 16 13 10 10 11 12 13
11 13 14 15 16 17 18 20 20 19 18 17 17 16 16 16 16 14 13 14 15 16 16 15 15 15 15 15 15 15 15 15 16 15 14 12 10 9 9 10 11 12
10 12 13 14 15 16 17 19 20 19 19 18 16 16 17 17 17 16 14 13 13 15 16 15 14 14 14 14 14 14 14 13 13 12 10 9 9 9 9 10 11 11
11 11 12 13 14 15 16 18 19 18 18 17 17 17 16 16 17 17 16 13 12 13 15 15 14 13 13 14 14 13 13 12 11 10 9 9 9 9 9 9 10 10
13 12 12 12 13 14 15 16 16 17 17 18 18 17 15 14 16 17 16 14 11 12 13 15 13 12 13 13 13 13 13 12 11 10 9 9 9 9 9 10 11 12
16 15 14 14 14 15 16 16 16 17 17 18 18 17 16 15 16 16 15 14 13 11 11 13 13 12 12 12 13 13 13 12 11 11 10 10 10 11 12 13 15 15
20 19 18 17 16 16 16 18 19 19 20 20 20 19 17 17 16 15 14 14 14 12 10 12 13 12 12 12 12 13 13 13 13 13 12 12 13 14 15 16 17 18
23 23 22 20 19 17 17 18 20 21 22 23 23 21 19 17 16 15 14 14 13 12 10 11 12 12 11 12 13 14 15 15 16 16 15 15 16 17 19 19 20 21
25 25 24 23 22 20 19 19 19 19 21 23 23 22 20 18 16 15 14 13 13 12 11 11 12 12 12 13 14 16 17 18 19 19 19 19 20 22 24 24 24 24
27 26 26 25 25 23 22 20 19 18 19 20 22 21 19 18 16 14 13 13 13 12 11 11 11 12 13 14 16 17 19 20 21 21 21 22 24 26 28 29 29 29
28 27 27 26 27 27 25 22 20 19 18 19 19 19 18 17 14 13 13 13 12 12 11 11 12 13 15 16 18 20 22 23 24 24 24 25 27 28 29 29 30 31

ECMWFNIL_500_spd_066.txt.gz
Wind_Speed
15 15 15 13 12 12 10 10 9 8 8 7 5 4 3 2 1 1 2 2 2 3 3 5 6 7 8 8 8 8 8 8 8 8 8 7 6 5 5 5 6 7
17 17 16 15 13 12 11 10 9 9 8 7 6 5 4 3 3 2 3 3 3 3 2 3 4 6 7 8 8 9 10 9 9 9 9 8 7 6 5 4 4 5
19 18 17 16 15 14 13 12 11 10 9 8 7 6 6 5 4 3 3 3 3 3 3 3 3 5 6 7 8 8 9 10 10 10 10 10 9 8 7 6 5 4
20 19 19 18 17 16 14 13 12 11 10 9 8 8 7 7 6 5 5 5 5 5 5 5 5 5 7 8 8 8 9 10 10 10 10 11 10 10 9 8 7 6
21 20 20 19 18 16 15 14 13 12 11 10 9 9 9 8 8 8 8 8 7 8 8 7 7 7 8 9 10 10 9 10 10 11 11 11 11 11 11 10 9 8
20 20 19 18 17 16 16 15 14 13 12 11 10 10 9 9 10 10 10 10 10 10 10 10 10 10 10 11 11 12 12 11 11 12 12 11 12 13 13 12 12 11
19 19 18 18 17 16 16 16 15 14 13 12 11 11 10 10 11 11 11 11 11 11 12 12 12 12 12 13 13 14 14 14 13 13 13 12 12 13 14 14 13 13
18 19 19 18 18 18 17 17 16 15 14 13 12 11 11 11 11 11 11 11 11 12 12 13 13 13 13 14 14 15 15 15 15 15 14 13 13 13 14 14 14 14
19 18 18 18 18 18 18 16 15 15 14 13 12 11 10 10 10 10 10 10 10 11 12 12 13 14 14 14 15 15 15 15 15 16 16 15 14 14 14 14 14 14
18 17 17 17 17 18 17 16 15 14 14 13 12 11 10 10 10 10 10 10 11 11 12 13 14 14 15 15 15 14 14 14 14 14 15 15 15 15 14 14 13 13
17 16 16 16 17 17 16 16 15 14 13 12 11 10 10 10 10 10 10 11 11 11 12 13 13 14 15 15 15 14 13 13 13 13 14 15 16 16 16 15 14 13
16 17 17 17 17 17 16 15 14 13 12 11 10 10 10 10 10 10 10 11 12 12 12 13 13 13 15 15 15 15 13 12 12 12 13 14 15 16 16 16 15 13
17 18 18 18 18 18 17 16 14 13 13 11 10 10 10 10 10 10 11 12 12 12 12 13 13 13 14 15 15 15 14 13 13 13 13 14 14 15 15 15 14 13
17 18 18 18 18 17 16 15 15 14 13 12 11 10 11 11 11 11 11 12 12 12 13 13 13 14 14 15 15 14 14 14 14 13 13 13 13 14 14 14 13 11
17 17 17 17 16 15 15 15 15 14 14 13 12 12 13 12 12 11 11 11 12 12 13 13 13 13 14 14 14 13 13 13 12 12 12 12 11 11 11 11 10 9
15 15 15 15 14 14 15 15 15 15 15 15 14 14 14 14 13 12 11 12 13 13 13 13 13 13 13 13 12 12 11 11 11 11 11 10 10 9 8 8 8 7
12 11 11 12 12 13 14 15 16 17 17 17 17 16 15 14 13 13 12 12 13 13 13 13 13 13 13 12 11 10 10 10 11 11 10 9 8 7 8 7 7 7
10 10 9 9 10 11 13 15 17 18 18 18 18 16 15 15 14 13 12 12 13 13 13 14 14 13 11 11 10 9 9 10 10 10 9 8 8 8 7 6 6 6
10 10 8 8 8 9 11 13 15 16 18 18 18 17 17 15 14 13 13 13 12 12 13 14 14 12 10 9 9 9 9 9 10 9 8 8 8 7 7 6 5 5
11 10 9 8 8 7 8 9 10 13 15 17 18 18 16 15 14 14 14 13 12 12 13 13 13 11 10 9 10 10 10 9 9 8 8 8 8 7 6 6 5 5
11 11 11 10 9 9 8 8 8 10 12 15 17 17 17 16 17 16 14 13 13 12 12 12 12 12 11 11 11 11 10 9 8 8 8 8 8 7 7 7 7 8
12 12 12 12 11 11 11 10 10 11 13 15 16 17 18 18 17 16 15 15 15 14 13 13 13 14 13 13 13 12 10 9 9 8 8 8 8 8 9 9 10 11
14 14 14 14 14 13 12 12 13 14 15 16 17 18 19 19 19 19 18 18 17 16 15 14 15 15 14 14 14 13 11 10 10 9 9 9 9 10 11 12 13 14
17 17 18 18 17 15 15 15 16 16 17 18 18 19 20 21 22 22 22 21 20 18 17 16 16 17 16 15 15 14 12 11 11 10 10 10 11 12 14 15 16 18
21 21 21 21 20 19 18 18 18 17 17 17 18 18 18 20 22 23 23 23 21 19 18 17 17 18 17 16 15 14 13 12 12 11 11 12 13 15 16 17 19 21
24 23 23 23 23 23 22 21 20 19 17 17 17 16 16 16 17 18 20 21 21 20 18 17 18 19 18 16 16 15 14 14 14 12 12 14 16 17 19 21 23 26

ECMWFNIL_500_spd_069.txt.gz
Wind_Speed
18 19 19 18 16 16 16 16 15 15 14 14 13 11 10 8 6 5 4 2 2 3 4 6 7 8 8 9 10 11 11 11 11 10 10 9 9 8 6 5 4 5
19 20 20 19 18 17 17 17 15 15 14 14 13 11 9 8 7 5 4 3 2 1 1 3 4 5 6 8 9 9 10 11 12 12 12 12 11 10 8 7 5 4
21 21 20 20 19 18 18 18 17 15 14 13 12 11 10 8 7 6 5 5 4 3 2 2 2 3 4 6 7 8 9 10 11 12 13 13 13 12 10 9 7 6
22 22 22 21 21 20 19 19 18 17 15 13 13 12 10 9 8 8 7 7 6 5 5 5 5 5 5 6 6 7 9 10 11 11 12 12 13 13 13 11 9 8
24 24 23 23 23 22 20 19 19 18 17 16 14 13 12 10 10 10 9 9 8 8 8 8 7 7 8 8 8 9 9 10 11 11 12 12 12 13 13 13 11 9
25 25 25 24 23 22 21 20 20 19 18 17 15 14 13 12 12 11 11 10 10 9 9 9 9 9 9 9 10 10 11 11 11 12 12 12 12 12 13 13 12 10
24 25 25 25 24 23 22 21 20 19 18 17 16 15 14 13 13 12 12 11 10 10 10 10 10 10 11 11 11 11 12 12 12 12 12 12 12 12 12 13 13 12
24 25 25 25 24 23 22 21 20 19 18 17 16 16 15 15 14 13 12 11 11 10 10 10 11 11 12 12 12 11 12 12 12 13 12 12 12 12 12 13 13 13
24 24 24 24 23 23 22 22 21 20 19 18 18 18 17 16 15 13 12 11 11 10 10 10 11 11 11 12 12 12 11 11 11 12 12 11 11 11 11 12 12 12
22 22 22 21 21 22 23 22 22 21 20 20 20 19 17 16 15 13 12 11 11 11 11 11 10 10 10 11 11 12 12 11 11 11 11 11 11 10 10 11 12 12
21 21 21 21 21 22 23 23 22 21 21 21 20 18 17 16 14 13 12 12 12 12 11 11 10 10 10 11 11 11 11 11 12 11 11 10 10 10 10 11 12 12
22 22 23 23 23 23 23 23 22 21 21 20 18 17 16 15 14 14 13 13 14 13 12 12 11 11 11 11 11 11 11 11 12 12 12 11 10 10 10 11 11 12
22 23 24 24 25 25 24 23 22 21 20 19 18 17 16 15 15 14 14 14 14 13 13 12 11 11 11 11 11 11 12 12 12 12 12 12 12 11 11 10 10 11
24 25 26 26 25 25 24 23 22 22 21 20 19 18 17 16 15 15 15 14 13 13 13 12 11 11 11 12 12 12 12 12 12 12 12 12 12 12 12 11 11 11
26 26 26 26 25 24 23 23 23 23 22 21 20 19 18 17 16 16 15 14 13 13 13 12 11 11 12 12 12 11 11 11 11 11 12 12 13 12 12 11 11 11
26 25 25 24 23 23 23 23 24 23 22 22 21 20 19 18 17 16 15 14 14 14 13 12 11 12 12 11 11 10 10 10 10 11 12 12 12 12 12 12 12 11
25 24 24 23 22 23 23 23 23 23 23 23 22 21 20 19 17 16 16 15 15 14 13 12 12 13 12 11 10 10 10 10 10 11 10 11 11 12 12 13 13 11
24 24 23 23 22 22 23 23 23 23 23 22 22 21 20 19 18 17 16 16 16 15 14 13 13 13 12 11 11 10 10 10 10 9 9 10 11 12 12 13 12 11
21 21 20 20 20 21 22 22 22 21 21 22 22 21 20 20 19 18 17 17 16 15 15 15 15 14 13 12 11 11 10 10 9 9 9 10 11 11 12 12 12 12
18 18 17 17 17 18 18 18 18 18 19 20 20 20 20 20 20 18 18 18 17 17 17 16 16 15 14 13 12 12 11 11 10 10 11 11 10 10 12 13 14 13
17 17 16 16 15 15 14 14 14 15 15 16 17 18 19 20 20 20 20 19 18 18 18 17 17 18 16 14 14 14 13 13 13 13 12 11 10 11 13 14 14 12
18 18 17 16 15 15 14 13 13 13 13 14 15 16 18 19 20 21 20 19 19 19 19 18 19 20 18 16 16 16 16 16 16 15 14 13 12 12 13 13 12 11
19 19 18 17 16 15 15 14 14 13 14 14 14 15 16 18 20 21 21 21 21 21 20 20 21 21 20 19 19 18 18 18 18 17 16 14 14 14 12 12 11 12
21 20 19 18 17 16 16 16 15 15 15 16 16 16 17 18 20 22 22 23 23 22 21 21 23 23 22 21 21 20 20 19 19 18 17 16 16 15 13 13 13 13
23 22 21 20 19 19 18 18 17 17 17 18 18 18 19 20 21 22 23 23 23 24 24 24 24 25 24 23 22 21 21 21 20 19 18 18 17 17 16 15 15 15
25 24 23 23 22 22 22 21 20 19 19 19 19 19 19 20 20 21 22 24 25 26 27 27 27 27 26 25 23 22 22 22 22 21 19 19 19 19 18 17 16 17

ECMWFNIL_500_spd_072.txt.gz
Wind_Speed
16 18 19 18 18 17 16 15 15 15 16 16 15 14 13 11 9 8 7 7 7 7 8 9 10 11 12 12 13 14 15 15 16 15 15 14 12 10 8 8 8 9
18 19 20 18 18 17 17 17 16 15 16 16 14 13 12 10 9 8 6 6 6 5 5 6 6 7 8 9 10 10 11 12 13 14 14 15 14 12 10 8 7 7
21 21 20 19 19 19 19 19 17 16 16 15 14 13 11 10 9 8 7 6 6 5 4 3 2 2 3 4 5 6 7 8 10 11 11 13 13 13 11 9 7 6
23 23 22 22 22 22 21 20 18 17 16 15 14 13 12 10 9 8 8 7 7 6 5 5 4 3 2 2 2 3 4 5 6 7 8 9 10 12 12 11 9 7
25 25 25 24 24 24 23 21 20 18 17 17 16 14 13 12 11 10 10 9 9 8 7 7 6 6 5 5 5 5 5 5 5 5 5 6 7 8 10 11 10 8
27 27 27 26 26 25 24 23 22 21 19 18 17 15 14 13 12 12 12 12 11 10 9 9 8 8 8 7 7 7 7 7 6 6 5 4 4 5 7 8 9 9
28 28 28 27 26 25 25 25 24 22 21 19 18 17 16 15 14 14 14 14 13 12 11 10 10 10 9 9 8 8 8 8 7 7 6 5 4 4 4 5 7 8
29 29 28 28 27 26 26 26 24 23 22 20 19 18 17 16 16 15 15 15 14 14 13 12 11 11 10 9 9 8 8 8 8 8 7 5 5 5 3 3 4 6
29 29 28 28 28 28 27 26 25 24 23 21 21 19 18 18 17 17 16 16 15 14 13 13 12 11 11 10 8 8 8 7 7 7 7 6 6 5 4 3 3 4
28 28 28 28 29 29 28 27 26 25 24 23 22 21 20 20 19 18 17 16 15 15 14 14 13 12 11 9 8 7 7 7 7 7 7 7 7 6 5 5 5 4
27 27 26 27 28 29 29 28 27 26 25 24 24 23 22 21 20 19 18 16 16 15 15 14 13 11 10 9 8 7 7 7 8 8 8 8 8 7 7 6 7 6
26 25 25 25 26 27 28 28 27 27 26 26 25 25 24 22 21 20 18 17 17 16 15 14 13 11 11 10 9 8 8 8 9 9 10 10 9 9 8 7 7 7
25 25 25 25 26 27 28 28 28 28 27 27 27 26 25 23 22 20 18 18 17 16 15 14 14 13 13 12 11 10 10 9 10 10 11 11 11 10 9 8 8 9
26 26 26 27 27 28 28 29 28 28 28 28 28 27 25 24 22 21 19 18 18 16 15 15 14 14 15 14 13 11 11 10 10 11 11 11 11 11 10 10 10 10
28 29 29 29 29 29 29 28 28 28 28 28 27 26 25 24 22 21 19 18 17 16 16 15 14 15 16 16 14 12 11 11 11 11 12 12 12 12 12 12 13 13
30 30 30 31 30 29 29 29 28 28 28 27 26 25 24 23 21 20 19 18 17 16 16 15 15 16 17 16 14 13 12 12 12 12 13 13 13 13 13 14 15 14
31 31 31 30 30 30 29 28 28 27 26 25 25 24 23 22 21 20 19 18 17 17 16 15 15 17 18 16 14 13 13 13 13 13 14 14 14 14 14 15 15 15
31 31 31 30 30 29 29 28 27 26 26 25 24 24 23 22 21 20 19 19 18 17 17 16 16 18 18 16 15 14 14 14 14 14 14 15 15 15 15 15 15 16
30 31 30 30 30 30 29 29 27 26 26 25 25 25 24 23 22 21 20 19 18 18 17 17 18 20 19 17 16 15 15 15 15 15 15 15 15 15 14 15 16 17
30 30 29 29 29 29 28 28 26 26 26 26 26 25 24 23 23 22 21 20 19 19 19 19 19 21 20 18 17 17 16 16 16 16 15 15 14 14 14 15 16 17
28 28 27 27 27 27 26 25 25 24 24 24 25 24 23 23 23 23 21 21 21 20 20 20 21 22 21 20 19 18 18 17 16 16 15 15 14 14 15 17 17 17
26 26 25 25 24 24 23 22 22 22 22 22 23 22 22 23 23 23 22 23 23 22 21 21 22 22 23 22 21 20 18 17 16 16 16 16 16 16 18 18 18 17
24 24 23 23 22 21 20 19 19 19 19 20 20 19 20 21 21 22 23 24 24 23 22 23 23 24 24 24 23 21 18 17 16 17 17 17 17 18 19 19 18 18
25 24 23 22 21 19 19 19 19 18 17 17 17 17 18 19 20 21 22 23 23 24 24 24 24 25 27 26 24 21 18 17 17 18 18 17 19 20 20 20 19 18
27 26 24 22 21 20 20 20 19 18 17 16 16 17 17 18 19 19 20 21 22 23 24 24 25 27 28 27 25 22 20 19 18 18 18 19 21 21 21 20 20 19
28 26 25 24 22 22 21 21 20 19 19 18 18 18 19 19 19 19 19 20 21 22 23 23 25 27 29 28 27 25 23 22 21 20 19 21 23 23 22 22 21 21

ECMWFNIL_500_spd_075.txt.gz
Wind_Speed
20 21 21 21 20 19 17 16 16 16 17 17 16 15 14 13 13 12 12 13 14 15 16 17 17 18 18 18 18 17 17 16 15 13 11 10 9 9 10 10 10 9
21 22 23 22 20 19 18 17 16 16 17 17 16 15 15 13 12 11 10 10 11 11 12 13 13 14 14 14 15 15 15 15 15 14 13 11 9 8 8 8 8 8
23 24 24 23 22 21 20 19 18 17 18 17 17 16 15 13 12 11 10 9 9 8 8 8 8 8 8 8 9 10 11 11 12 12 12 11 9 8 7 7 7 7
25 25 25 25 24 23 22 21 20 19 19 19 18 17 15 13 12 11 10 9 9 8 7 6 5 4 3 3 4 4 5 6 7 8 9 9 9 8 7 6 5 6
27 27 27 26 25 24 23 23 22 21 21 21 20 18 16 14 13 11 10 10 9 8 7 6 5 4 4 3 2 1 1 1 2 4 5 6 6 7 7 6 5 5
28 28 28 28 27 26 26 25 24 23 23 22 21 19 18 16 14 12 11 11 10 9 8 7 7 6 6 6 5 4 4 3 2 2 2 3 3 3 4 5 5 4
30 30 30 29 28 28 28 28 26 25 25 23 22 20 19 17 16 14 13 12 11 10 10 9 9 9 8 8 8 7 6 6 5 4 3 3 3 3 2 1 2 3
31 32 32 31 30 30 30 29 28 27 26 25 23 22 20 19 17 16 15 14 13 13 12 11 11 10 10 10 9 9 8 7 7 6 5 5 5 5 4 3 1 0
33 33 33 32 31 31 31 30 29 28 27 26 25 24 22 21 19 18 17 16 15 15 14 13 12 11 11 11 10 9 8 8 8 8 7 7 7 6 6 6 5 3
33 33 33 31 31 32 32 32 31 29 28 27 26 25 24 22 21 20 18 17 17 17 16 14 13 12 12 11 10 9 8 8 9 8 8 9 9 8 8 8 8 6
32 33 32 31 31 32 33 33 32 31 29 28 27 26 25 24 23 21 20 20 19 18 17 15 14 13 12 11 10 9 9 9 10 10 10 10 10 10 10 10 10 8
32 32 31 31 31 33 34 34 33 32 31 30 29 28 27 26 25 23 22 22 21 19 18 16 14 13 12 11 10 10 10 11 11 12 12 12 12 12 12 12 12 10
31 31 32 31 32 33 34 35 34 33 33 32 31 30 28 27 26 25 24 23 22 20 18 17 14 13 12 12 11 11 12 12 13 14 14 14 13 13 13 14 13 12
31 32 32 33 33 33 35 35 35 34 34 33 32 31 29 28 27 26 25 23 22 20 18 16 14 13 13 14 14 13 13 13 14 14 15 15 15 14 14 14 14 14
32 33 34 34 33 33 34 35 35 34 34 33 32 31 30 29 28 27 25 23 22 20 18 16 14 14 15 15 15 15 14 13 13 14 14 15 15 15 15 15 15 15
32 33 34 34 33 32 33 34 34 34 33 32 32 31 31 30 29 28 26 24 22 20 18 16 15 15 16 16 17 16 14 13 13 14 15 15 15 16 16 16 16 16
33 34 34 34 33 32 32 33 33 33 33 32 32 31 31 31 29 28 26 24 22 20 18 16 16 17 17 17 17 16 15 14 14 14 15 15 16 16 16 17 17 17
34 34 34 34 33 33 33 34 34 33 33 32 32 31 31 30 28 27 25 24 23 21 19 18 18 18 18 18 18 17 16 15 15 15 15 15 16 16 17 17 17 18
35 35 35 35 35 35 35 35 34 33 33 32 32 31 30 29 27 26 25 24 23 21 20 19 19 19 18 18 18 18 17 16 16 15 15 16 16 17 17 17 17 17
36 36 36 36 36 36 36 35 34 33 32 32 31 30 28 27 26 25 25 24 23 22 21 20 20 19 19 19 19 19 17 17 17 16 16 16 17 17 17 17 17 17
36 35 36 36 36 36 35 33 32 32 31 30 29 28 27 26 26 25 25 25 24 22 21 20 21 21 21 20 21 20 19 18 17 17 17 17 18 18 18 17 17 16
36 35 35 35 34 34 32 31 31 30 30 29 28 27 26 26 26 25 25 24 24 23 22 21 22 23 22 22 23 22 20 18 17 17 17 18 19 19 19 19 17 16
35 34 34 34 33 31 30 29 30 30 30 29 28 27 26 26 25 25 25 25 24 23 23 23 24 25 24 24 25 24 22 19 18 18 18 18 20 20 20 20 19 17
35 34 33 33 31 29 28 29 29 29 28 27 26 26 25 25 25 25 25 25 24 24 24 25 26 26 26 25 26 26 23 20 19 19 18 19 20 21 21 21 20 19
35 34 33 31 30 28 28 28 28 27 26 25 25 24 24 24 24 24 24 23 23 23 24 25 25 26 26 26 27 27 24 22 21 19 19 20 22 22 23 23 22 21
34 33 32 30 28 28 28 27 27 26 25 23 23 23 23 23 22 22 22 22 23 23 23 23 24 25 25 26 27 27 25 23 22 20 20 22 23 24 25 24 23 23

ECMWFNIL_500_spd_078.txt.gz
Wind_Speed
22 23 24 24 23 21 20 19 18 17 17 17 16 14 14 14 14 15 15 15 15 15 15 15 15 14 13 12 11 10 8 7 6 6 5 5 5 5 6 6 6 7
24 25 25 24 23 22 21 20 19 18 18 17 16 16 16 16 16 17 18 18 18 19 18 18 17 16 15 13 12 11 10 9 7 6 5 5 5 5 5 5 6 6
25 26 26 25 24 23 22 21 19 18 18 17 17 18 17 17 18 18 19 19 19 19 18 17 16 15 13 12 11 9 8 8 7 6 5 4 4 4 5 5 5 6
27 27 27 26 26 25 23 21 20 19 18 18 19 20 19 19 19 19 18 18 18 17 16 15 13 12 10 9 8 6 5 4 4 4 4 4 4 3 3 4 5 6
29 29 29 28 27 26 24 22 21 20 19 20 22 21 20 20 20 20 19 18 17 16 14 13 11 9 8 7 5 4 3 2 1 0 1 1 2 2 2 2 3 5
30 30 30 29 28 26 25 24 23 22 21 22 24 23 21 21 21 20 19 18 16 15 13 12 10 9 8 7 6 5 4 4 3 3 3 2 2 1 1 1 1 3
32 31 31 30 28 27 27 26 25 24 23 24 25 24 22 21 21 20 19 17 16 14 12 11 10 9 8 7 7 7 6 5 5 5 5 5 4 4 3 2 1 1
33 33 33 31 30 28 28 28 27 26 25 25 26 26 24 22 21 20 19 17 15 14 13 11 11 10 9 9 9 8 8 7 7 7 6 6 6 6 5 4 3 3
34 34 33 32 31 30 30 29 29 28 27 27 27 27 25 23 22 20 19 18 16 15 14 13 12 12 11 11 11 10 9 8 8 8 8 8 8 8 7 7 6 4
34 34 34 33 32 31 31 31 31 29 28 28 29 28 26 25 23 21 20 18 17 16 16 15 14 14 13 13 12 11 10 9 9 9 9 9 9 9 9 9 8 6
34 34 34 33 32 32 32 32 32 31 30 29 29 28 27 26 25 23 21 20 19 18 17 17 16 15 14 14 13 11 10 10 11 11 11 10 11 10 10 11 10 8
34 34 33 33 33 32 32 33 33 32 31 31 30 29 29 27 26 24 23 22 21 20 19 18 16 15 14 13 12 12 11 12 12 12 12 12 12 12 12 12 12 10
34 33 32 32 33 33 33 34 34 33 33 32 31 30 30 28 27 26 25 24 23 21 20 19 17 15 15 13 12 12 12 13 13 13 13 12 12 12 13 13 13 12
34 33 32 32 33 34 34 34 35 35 34 33 32 31 31 30 29 28 27 26 24 22 21 19 18 16 15 14 13 14 14 14 14 14 14 13 13 13 13 14 14 13
35 35 33 33 33 34 34 34 35 36 36 34 33 32 32 31 30 29 28 26 25 23 22 21 19 17 16 16 15 15 15 14 14 14 14 14 13 13 14 14 15 14
36 35 35 34 33 34 34 34 35 36 37 35 34 34 33 33 31 30 29 27 26 24 23 22 20 18 17 18 17 16 16 15 14 15 15 14 14 14 15 15 16 15
36 36 35 35 34 34 35 34 34 35 36 36 36 35 35 34 33 31 30 29 27 26 25 24 22 20 19 19 18 17 16 15 15 15 15 15 15 15 16 16 16 16
36 36 36 35 35 34 35 35 35 35 35 36 36 36 35 35 34 33 32 31 29 27 26 24 23 21 21 20 19 17 16 15 15 15 15 15 16 16 16 17 17 16
36 36 36 35 35 35 35 36 35 34 34 34 36 36 36 35 34 34 34 33 31 29 28 26 24 22 22 21 20 18 17 16 15 15 15 15 16 16 17 17 17 17
35 35 36 36 36 36 36 36 35 34 33 34 35 36 35 35 34 34 34 33 32 30 29 27 25 23 23 22 20 19 18 17 16 16 15 16 16 17 17 17 17 17
35 35 35 36 37 37 36 35 35 34 34 34 34 34 34 34 34 35 34 33 32 30 29 27 26 25 24 23 21 20 19 18 18 17 16 16 17 18 18 17 17 17
33 34 35 36 37 37 36 36 35 34 34 34 34 34 34 34 34 34 32 32 31 29 28 27 27 27 25 24 23 22 20 19 19 18 18 18 18 19 19 18 17 17
32 34 35 36 36 37 37 36 35 34 34 34 33 33 34 34 33 32 31 31 30 29 28 28 28 28 27 25 25 24 22 21 20 19 19 18 19 20 19 19 18 18
31 32 34 35 36 36 36 35 34 34 34 33 32 32 33 33 32 32 30 30 29 29 28 28 29 29 27 26 26 25 23 22 22 21 19 18 19 20 20 20 20 20
30 31 33 35 36 36 35 35 34 34 33 32 32 32 32 32 31 30 29 29 29 28 28 29 29 29 27 27 26 26 25 24 24 22 20 18 19 20 21 22 22 22
30 30 33 35 35 35 35 34 34 33 33 32 31 31 31 31 30 29 28 28 28 28 28 28 28 28 27 27 27 27 26 25 25 23 20 19 20 20 21 22 23 23

ECMWFNIL_500_spd_081.txt.gz
Wind_Speed
19 18 18 19 19 18 16 15 15 14 13 12 11 10 10 10 10 10 10 11 11 11 11 11 10 9 8 7 6 5 4 3 2 2 2 3 3 3 3 3 3 3
20 20 21 21 20 19 17 17 16 15 14 12 11 10 11 11 11 10 11 11 12 12 11 11 10 9 8 8 7 7 6 5 4 2 1 0 1 2 2 3 3 3
21 22 22 23 22 21 20 19 18 16 15 13 11 12 12 12 11 11 11 12 12 12 12 12 11 11 10 10 9 8 8 7 7 6 5 4 2 0 1 2 2 3
22 23 24 24 24 23 22 20 18 17 16 13 13 14 14 12 12 13 13 14 14 14 14 13 12 11 10 9 8 7 6 6 6 6 7 7 6 4 2 1 2 3
24 25 26 26 25 23 22 20 19 18 17 15 16 16 15 14 15 15 15 16 16 16 15 13 11 10 8 6 5 4 4 4 4 4 5 5 6 6 5 3 1 2
26 26 27 27 26 24 22 22 21 19 18 17 17 18 17 17 17 17 17 18 17 16 14 12 10 8 6 4 2 1 1 2 2 3 3 4 4 5 6 6 4 2
28 28 28 28 27 25 24 24 22 21 19 18 19 20 20 19 19 19 19 19 18 16 14 12 9 7 6 4 3 2 2 2 3 3 3 4 4 4 5 5 5 5
30 30 30 29 28 26 25 25 24 22 21 20 21 22 22 22 21 21 21 20 19 17 15 13 11 9 8 6 6 5 4 4 5 5 4 4 4 4 4 5 5 5
32 31 31 31 29 27 26 26 25 24 23 22 23 25 25 24 23 23 23 22 21 19 17 15 13 11 10 8 8 7 6 6 6 6 6 6 6 5 4 5 5 5
33 32 32 32 30 29 28 27 27 26 25 24 25 26 26 25 25 25 24 24 22 20 18 16 15 13 11 10 9 8 7 7 7 7 7 7 7 6 6 5 5 5
33 32 32 32 31 30 29 28 28 28 27 27 27 27 27 27 26 26 26 26 24 22 20 18 16 14 12 11 10 9 9 8 8 9 9 8 8 8 7 7 6 6
34 33 32 31 32 31 31 30 29 29 29 28 28 28 28 28 27 27 28 27 26 24 22 19 17 15 13 12 11 10 10 9 9 10 10 9 9 9 9 8 8 7
34 33 32 32 32 32 32 32 30 29 30 30 29 28 29 29 28 28 29 29 28 25 23 20 18 16 14 13 12 12 11 11 11 11 11 10 10 9 9 9 9 8
34 34 33 33 33 33 33 33 31 30 30 30 30 29 29 29 29 29 29 29 28 26 24 21 18 16 15 14 13 13 13 13 13 12 11 11 10 10 10 10 10 9
34 35 34 34 34 34 33 33 32 31 30 31 31 30 29 30 30 29 29 29 29 27 24 21 19 17 16 15 14 13 13 14 14 13 12 11 11 10 10 11 11 11
33 34 34 34 34 34 33 33 32 32 31 31 32 32 31 30 30 30 29 29 28 27 25 22 20 19 18 17 15 14 14 14 14 14 14 13 12 12 12 12 13 12
30 32 33 33 34 35 34 33 32 32 32 31 32 33 32 31 31 30 30 29 28 27 26 24 22 21 20 19 17 16 15 15 15 15 14 14 14 13 13 13 13 13
27 29 31 32 33 34 35 34 33 32 32 31 32 33 33 33 32 31 31 30 28 27 26 25 23 23 23 21 19 17 17 16 16 15 15 14 14 15 15 14 14 14
25 27 28 30 31 33 34 34 33 32 32 31 32 33 34 34 33 33 32 31 29 28 26 26 25 25 24 23 21 19 19 17 16 16 15 15 15 15 16 15 15 15
24 25 25 27 29 30 32 33 32 32 32 32 33 33 33 33 33 33 33 32 31 30 28 28 27 26 26 24 22 21 20 19 17 16 16 15 15 15 16 16 16 16
25 25 23 24 27 28 29 31 31 32 32 32 33 33 32 32 33 34 34 34 33 32 31 30 29 28 27 26 24 22 21 20 18 17 16 16 15 16 16 16 17 17
26 25 23 23 24 26 27 29 30 31 32 32 32 33 32 32 33 33 34 34 34 33 33 32 31 30 29 28 26 23 22 21 20 18 17 17 17 16 17 17 17 18
27 26 24 23 23 25 26 28 29 30 31 32 32 33 33 32 32 32 33 34 34 34 33 32 32 31 30 29 28 25 23 22 21 20 19 18 18 17 17 17 18 19
28 27 25 24 23 24 25 27 28 29 30 31 32 33 33 32 32 32 32 33 34 33 33 32 32 31 30 29 28 26 24 23 23 22 20 19 19 18 18 18 19 20
30 29 27 25 24 24 25 26 27 28 30 31 32 32 33 32 32 32 31 31 32 33 33 32 31 30 29 28 27 26 25 24 23 23 22 20 20 19 19 19 20 21
31 30 27 25 25 26 26 26 27 28 29 30 31 32 32 32 32 31 30 30 31 32 31 30 30 29 27 26 26 26 25 24 24 24 23 22 21 21 20 20 21 22

ECMWFNIL_500_spd_084.txt.gz
Wind_Speed
16 16 16 17 17 16 15 14 14 13 12 10 9 8 7 7 7 7 7 7 7 7 7 6 5 4 3 2 2 1 1 1 1 1 1 1 0 0 1 1 1 1
17 17 18 18 18 17 16 16 15 14 13 11 9 8 8 8 8 7 7 7 7 7 7 6 5 4 3 3 3 3 4 4 4 4 3 2 1 1 0 1 1 1
18 18 18 19 19 19 18 17 16 15 13 11 9 9 10 9 8 8 7 7 7 8 8 7 6 6 6 6 6 7 7 8 8 8 7 6 4 3 1 0 0 1
18 18 19 20 20 20 19 18 17 16 14 12 11 11 11 10 9 8 7 7 7 8 8 8 8 8 9 8 8 8 8 9 9 9 10 9 9 7 5 3 2 1
18 18 19 20 21 20 19 18 17 16 15 13 13 12 11 10 9 8 8 8 8 9 9 10 10 10 10 8 7 6 6 7 8 8 9 9 10 9 8 7 5 3
20 19 19 20 21 20 19 18 17 16 15 14 14 13 12 11 10 9 8 8 9 10 11 12 11 10 9 7 5 4 4 5 6 6 7 8 8 8 8 8 7 5
22 21 20 21 21 20 19 18 18 16 15 15 14 13 13 12 11 10 10 10 11 12 13 12 11 9 7 6 4 2 2 2 3 4 5 6 7 7 7 7 7 6
25 24 22 22 22 21 20 19 18 17 16 16 15 15 15 14 13 12 12 11 13 13 14 13 11 9 7 5 3 2 0 1 2 3 3 4 5 5 5 5 5 5
28 26 24 24 23 22 21 21 20 19 18 17 17 17 17 16 15 14 13 14 15 15 15 14 12 10 8 6 4 2 2 2 3 2 2 3 3 4 4 4 4 4
29 28 27 25 24 24 23 23 21 20 20 19 19 19 18 17 17 16 15 15 16 16 16 15 13 11 9 7 5 3 3 4 4 4 3 2 2 3 3 3 3 3
29 29 28 26 25 25 26 25 24 22 21 21 20 20 20 19 18 18 17 17 18 18 18 17 15 13 11 9 7 5 4 4 5 6 5 4 3 2 3 3 3 3
29 29 28 27 26 26 27 27 26 24 22 21 22 21 21 21 20 20 19 19 20 20 20 19 17 14 12 11 9 7 6 5 5 6 7 6 4 3 3 3 3 3
28 28 28 28 28 27 28 28 27 26 23 22 22 22 22 22 21 21 21 21 21 22 22 20 18 16 14 12 10 9 8 7 6 7 7 7 6 5 4 3 4 4
26 27 28 28 28 28 28 28 28 27 25 24 23 23 23 23 23 23 22 23 23 23 23 22 20 18 16 14 12 10 10 9 8 8 8 7 7 6 5 5 5 4
21 24 25 27 27 27 27 27 28 28 27 25 24 24 23 24 24 24 23 23 24 23 23 24 22 19 17 16 14 12 11 10 9 9 9 8 8 7 7 6 6 7
16 18 21 23 25 26 26 26 27 28 27 26 25 25 24 25 26 25 24 24 24 24 23 24 23 22 19 18 17 14 12 11 11 10 10 9 9 8 8 8 8 9
13 14 16 18 21 23 24 25 26 27 27 26 26 27 26 26 26 26 25 25 25 25 24 23 24 24 22 21 19 16 13 12 12 12 11 10 9 9 9 9 10 10
13 13 13 15 17 19 21 23 24 25 26 25 25 27 28 27 26 26 26 26 26 25 25 24 24 25 24 23 21 18 16 14 13 14 13 11 10 10 10 10 11 12
16 14 13 13 14 16 18 20 21 22 24 24 25 26 28 28 27 27 28 28 27 26 26 25 24 24 25 25 23 21 18 16 15 14 14 13 12 11 11 11 11 12
18 16 14 13 13 14 16 18 19 20 22 23 24 25 27 27 27 28 28 28 28 27 27 26 25 25 25 26 25 23 21 19 17 16 15 15 14 13 12 12 12 13
18 18 17 15 14 13 14 16 17 18 20 22 23 24 26 27 27 27 28 29 29 28 28 27 26 26 26 27 26 25 23 20 18 17 17 16 16 15 14 14 14 14
18 18 19 17 15 13 14 15 16 17 18 20 21 23 25 26 27 27 27 29 29 29 29 29 28 27 28 28 28 27 24 22 20 19 18 18 18 17 16 15 15 15
20 19 20 19 17 14 14 15 16 16 17 18 20 21 23 25 26 26 27 28 29 30 29 30 30 29 29 30 30 28 25 23 22 21 20 20 20 20 18 17 16 16
22 21 21 22 20 17 15 16 17 17 17 18 19 20 21 23 25 26 26 27 29 30 30 30 31 31 30 31 31 29 27 25 24 22 22 22 22 21 20 18 18 18
25 24 24 23 22 20 18 17 18 18 19 19 19 20 21 23 25 26 26 26 28 29 29 29 30 30 31 31 31 30 28 27 25 23 23 23 23 22 21 20 19 20
27 26 26 25 24 23 21 20 19 20 20 19 20 21 22 23 24 25 25 26 26 28 28 28 28 29 30 31 31 30 29 28 25 23 23 24 24 23 22 21 21 21

ECMWFNIL_500_spd_087.txt.gz
Wind_Speed
12 13 13 13 13 12 12 11 11 9 8 7 6 5 4 4 4 4 4 4 4 4 3 2 1 1 2 2 3 3 3 3 3 3 4 4 4 4 4 4 4 4
13 13 14 14 13 13 12 12 11 10 9 8 7 6 6 5 5 4 4 4 4 4 4 3 2 1 2 3 4 4 4 4 4 4 5 5 5 5 5 5 4 5
13 13 13 14 14 14 13 13 12 11 10 9 8 7 7 6 6 5 4 4 4 4 4 3 3 3 5 6 7 7 7 7 7 7 7 7 6 6 5 5 4 4
14 13 14 14 15 15 14 13 13 12 11 10 9 9 8 8 7 5 4 4 4 5 5 4 5 6 8 9 9 9 9 9 9 9 9 9 8 7 7 6 5 5
16 15 14 14 15 15 14 13 13 12 11 10 10 10 9 9 8 5 4 4 5 6 6 7 8 10 11 10 10 10 9 9 9 9 9 10 9 9 9 8 7 7
17 15 14 14 14 14 14 13 13 12 11 10 10 10 10 9 8 6 4 4 6 7 8 10 11 12 11 11 10 9 9 9 9 9 8 9 9 9 9 9 8 8
17 16 15 14 14 14 14 14 13 12 11 11 11 11 11 10 9 7 5 5 7 9 10 12 13 13 11 10 9 9 8 8 8 8 8 8 8 8 8 8 8 8
19 18 16 15 15 14 14 14 13 13 12 11 11 12 12 12 10 9 7 6 8 10 12 13 13 13 11 10 9 8 7 7 7 7 7 7 7 7 7 7 7 7
22 20 18 16 15 15 15 15 14 14 12 12 12 13 13 13 11 10 9 8 8 10 12 13 14 13 11 9 8 7 6 6 6 6 6 6 6 5 6 6 6 5
23 21 20 18 16 16 16 16 16 15 13 12 13 14 14 14 13 11 10 9 9 10 12 13 13 12 10 9 7 6 5 5 5 5 5 5 4 4 4 4 4 4
23 22 20 19 18 18 18 18 17 17 15 13 13 14 15 15 14 12 11 10 10 11 12 12 12 11 10 9 7 5 4 3 3 4 4 3 3 3 3 3 3 2
23 22 21 21 20 20 19 19 19 18 17 15 14 14 15 16 15 14 12 12 12 12 12 12 12 11 10 8 7 5 3 2 1 1 2 2 2 1 1 1 1 1
23 23 22 22 22 21 21 20 20 19 19 18 16 15 15 16 17 16 14 13 13 13 12 12 12 12 11 9 7 6 4 2 2 1 1 1 2 2 2 2 2 1
22 22 22 22 22 22 21 21 20 20 19 19 18 16 15 16 17 17 17 15 14 14 14 13 12 13 12 11 9 8 6 4 2 2 2 2 3 3 3 4 4 3
18 19 20 21 21 21 20 20 19 19 19 20 19 18 17 17 18 19 19 17 16 15 15 15 14 14 15 14 12 11 9 6 4 3 4 4 4 4 5 5 6 6
13 15 17 19 20 20 20 20 20 19 19 19 20 20 19 19 19 20 20 19 19 17 17 16 16 16 17 17 16 14 12 9 6 5 5 6 6 5 6 7 7 7
11 12 13 15 17 18 19 20 20 20 20 19 20 20 20 20 20 21 21 21 21 20 18 17 18 19 19 19 19 17 15 12 10 8 7 7 8 7 7 7 8 9
11 10 10 12 14 15 17 19 20 21 20 20 20 21 21 21 21 21 22 22 22 22 20 18 19 20 21 21 21 20 18 16 14 11 10 9 10 10 9 9 9 10
13 11 10 10 11 13 14 16 18 19 20 21 21 22 23 22 22 22 22 23 23 23 22 21 20 21 21 21 22 22 21 19 17 14 13 12 12 12 12 11 11 11
15 14 12 11 11 12 12 13 15 17 19 21 22 23 24 23 23 23 22 23 23 23 24 23 22 21 22 22 23 23 23 22 20 17 15 14 14 14 14 14 13 12
17 16 14 13 12 12 12 12 13 15 17 19 21 23 24 24 25 24 23 23 24 24 25 24 24 23 23 23 23 23 24 23 22 20 18 17 17 16 16 16 16 14
18 18 17 16 14 13 12 12 13 14 16 18 19 21 23 24 25 25 24 24 24 24 25 25 25 25 25 24 24 24 24 24 23 22 20 19 19 19 18 18 18 17
20 19 19 18 17 15 13 13 14 14 15 16 18 19 21 23 24 25 25 25 25 24 24 25 26 26 26 26 26 26 25 24 23 23 21 21 21 21 20 19 19 19
20 20 20 21 20 17 16 15 15 15 15 16 17 18 19 21 23 24 25 25 25 24 24 25 26 27 27 28 28 27 26 25 24 23 22 22 22 23 22 21 21 21
21 21 22 22 22 20 19 17 16 17 17 16 17 17 18 19 21 22 23 23 24 24 24 25 25 26 27 28 29 28 27 26 25 24 23 23 24 25 24 23 22 22
23 22 23 24 23 23 22 21 19 19 18 17 17 18 19 19 19 20 21 22 23 24 24 24 24 25 26 27 28 28 28 27 26 25 25 25 25 26 26 24 23 23

ECMWFNIL_500_spd_090.txt.gz
Wind_Speed
16 15 14 13 12 11 11 10 9 8 7 5 4 4 3 3 2 2 1 0 1 2 3 4 4 3 4 5 6 6 5 5 5 5 5 5 5 5 5 6 7 8
17 17 15 14 13 12 12 11 10 9 7 6 5 4 4 3 3 2 1 1 1 2 3 4 4 4 4 6 6 7 6 6 6 6 6 6 6 6 6 6 7 8
17 17 17 16 15 15 14 12 11 10 8 6 6 5 4 3 2 2 2 1 1 2 3 4 5 5 6 7 8 8 7 7 7 7 7 6 6 6 7 6 7 7
18 17 17 17 17 15 14 13 11 10 9 8 7 6 4 3 1 1 1 1 1 1 4 5 6 7 8 9 9 9 9 9 8 8 7 6 6 6 6 7 6 7
18 19 18 17 16 15 14 13 12 10 9 8 7 6 5 3 1 1 1 1 1 2 5 6 8 9 10 10 9 9 9 9 9 9 8 7 7 6 6 7 7 7
19 19 18 17 16 15 14 13 12 10 9 8 7 6 5 4 2 1 1 2 2 3 6 8 10 11 11 10 10 10 9 9 9 9 9 8 8 7 7 6 7 7
19 19 19 18 17 16 15 14 12 11 10 8 7 7 6 5 4 2 2 3 3 4 7 10 12 12 11 11 10 10 9 9 8 8 8 8 8 7 7 7 6 6
20 20 19 19 18 18 17 15 14 12 11 9 9 9 8 7 5 3 3 3 4 5 8 11 13 13 12 11 10 9 9 8 8 8 8 8 8 7 7 6 6 6
22 20 19 19 19 18 18 16 15 14 12 11 11 10 9 8 6 4 3 4 5 7 10 12 14 14 13 12 10 9 8 7 7 7 7 7 7 7 6 6 6 5
23 21 19 18 18 18 18 17 16 14 13 12 11 11 10 9 7 5 4 5 6 8 10 13 14 14 14 12 10 9 7 7 6 6 6 5 5 5 6 5 5 4
23 22 20 19 19 18 18 18 17 15 14 13 12 12 12 11 9 7 6 6 7 9 11 13 14 14 14 13 11 9 8 7 6 6 5 5 4 4 4 4 4 4
25 24 23 22 21 21 20 20 18 17 16 14 13 13 13 12 11 9 8 8 8 10 11 12 13 14 15 14 11 9 8 7 6 5 5 4 4 3 3 3 3 3
26 26 25 25 24 23 23 21 20 19 18 16 15 15 14 14 13 12 11 10 10 11 12 12 13 14 15 14 12 10 8 6 5 5 4 4 4 4 4 4 3 4
27 27 27 27 26 25 24 23 21 20 20 19 17 16 16 15 15 15 14 13 12 12 13 13 13 14 15 15 13 12 10 8 6 5 5 5 4 4 5 5 5 5
29 28 28 27 27 26 24 23 23 22 21 20 19 18 18 17 17 17 16 15 14 14 14 14 14 14 16 16 15 14 12 10 8 7 6 6 6 6 6 7 7 7
28 28 28 27 26 26 25 24 24 23 22 21 20 19 19 19 19 19 17 16 16 15 14 14 15 16 17 18 17 16 15 13 11 9 8 7 7 7 8 8 8 9
26 27 27 26 26 26 25 25 24 24 23 23 22 21 21 21 21 20 19 18 18 17 16 15 16 17 18 19 20 19 18 16 14 12 10 8 8 9 9 10 10 10
25 25 25 25 25 25 25 25 25 24 24 24 23 22 22 22 22 21 21 21 20 19 18 18 18 19 19 20 21 21 21 19 17 15 13 11 11 10 11 11 12 12
23 23 23 23 23 23 24 24 24 24 24 24 24 25 24 23 23 23 23 23 22 21 21 20 21 21 21 21 21 22 23 22 21 19 17 15 13 12 12 12 13 14
22 22 22 22 22 22 21 22 22 23 24 25 26 27 26 25 24 24 24 24 24 23 23 23 23 24 24 23 23 23 24 24 24 23 21 18 17 15 14 14 14 15
23 22 22 22 21 21 20 20 20 21 23 24 26 27 27 27 26 26 25 25 25 25 25 25 25 26 26 25 24 24 25 25 26 25 24 22 20 18 17 17 16 16
25 24 24 23 22 21 20 19 19 19 21 22 24 26 27 27 27 27 26 26 26 26 26 26 26 27 27 26 26 26 26 26 26 26 26 25 23 22 21 20 18 17
28 28 26 25 24 22 21 20 19 19 20 21 22 23 25 26 27 27 27 27 27 27 26 26 27 28 28 28 28 27 27 26 25 26 26 26 26 25 24 23 21 19
30 30 30 28 26 24 22 21 21 20 20 20 20 21 22 24 25 26 27 28 28 27 27 28 28 29 28 29 29 29 28 27 26 26 27 27 27 26 26 25 23 22
30 30 30 30 29 27 25 24 23 22 21 20 20 20 21 22 23 24 25 27 28 28 28 29 29 29 28 28 29 29 29 28 27 27 27 27 27 27 27 27 26 25
30 29 29 29 29 29 29 27 26 24 23 22 20 20 20 20 21 22 23 24 26 27 28 28 29 29 29 28 28 28 28 28 28 27 27 28 28 28 29 29 28 27

ECMWFNIL_500_spd_093.txt.gz
Wind_Speed
15 15 15 14 13 13 12 11 10 9 8 7 6 5 4 4 4 5 5 5 6 6 7 7 6 7 6 7 7 8 8 9 9 8 9 9 10 10 9 9 10 10
16 15 14 13 12 12 11 11 10 9 7 6 5 4 3 3 4 4 4 5 6 7 7 7 7 7 7 7 7 8 8 8 8 8 8 8 8 9 9 8 9 11
17 16 15 14 14 13 12 11 10 9 7 6 5 4 3 3 4 4 4 5 6 8 8 7 7 7 8 8 8 8 8 8 8 8 8 8 8 7 8 8 8 9
17 17 17 16 16 15 13 12 10 9 8 7 6 4 3 3 3 4 5 5 7 8 9 8 8 9 9 9 8 8 9 8 8 8 7 7 7 7 7 8 8 7
18 18 19 18 17 15 14 13 12 11 10 8 7 5 4 4 3 4 4 5 7 9 10 10 10 10 10 9 9 9 9 9 8 8 8 7 7 7 6 7 7 7
19 19 19 18 18 16 15 15 14 12 11 9 8 7 6 5 4 4 4 5 7 9 11 11 12 11 11 10 10 10 9 9 9 9 8 8 7 7 6 6 6 6
19 19 19 18 17 17 17 16 15 13 12 11 9 8 7 7 6 5 5 5 7 10 11 13 13 12 11 11 10 10 9 9 9 9 9 8 8 7 7 6 6 5
21 20 20 19 18 17 17 16 15 14 13 12 11 10 9 8 7 6 6 5 7 10 12 14 14 13 12 11 10 10 9 8 8 8 8 8 7 7 7 7 6 6
22 21 20 19 18 18 18 17 17 16 14 14 13 12 11 10 9 8 7 6 7 9 13 15 15 15 14 12 11 10 9 8 8 7 7 7 7 6 6 6 6 6
23 21 20 19 19 20 20 20 19 17 16 15 15 13 12 11 10 9 8 8 8 10 13 16 17 16 15 14 13 11 10 9 9 8 7 7 6 6 5 5 5 5
24 22 20 19 19 20 21 21 20 19 17 17 16 15 14 13 12 11 11 10 10 11 13 16 18 18 17 16 14 13 12 10 10 9 8 7 7 6 5 4 4 3
25 23 22 21 21 21 22 22 21 20 18 18 17 17 16 15 14 13 13 12 12 13 14 17 18 19 18 17 15 13 12 11 10 10 9 8 8 7 6 5 4 3
27 25 24 24 23 23 23 23 22 21 20 19 19 18 18 16 15 15 14 14 14 14 15 17 18 20 19 18 16 14 12 12 11 11 10 10 9 8 7 7 6 5
28 27 27 26 26 26 26 24 23 22 21 20 20 19 18 18 17 17 16 16 15 15 16 17 18 19 20 19 17 15 14 12 12 11 11 10 9 8 8 7 7 6
30 29 29 29 29 28 27 26 25 23 23 22 21 20 20 20 19 18 18 17 16 16 17 17 18 19 21 21 19 17 15 14 12 11 10 9 9 8 8 8 8 8
32 31 30 30 30 29 28 27 26 26 25 24 23 22 22 22 21 20 19 18 18 18 17 17 18 20 21 22 22 19 18 16 13 12 11 10 9 8 8 8 8 9
32 31 31 30 30 30 29 28 28 27 27 26 25 24 24 24 23 21 20 19 19 19 19 18 19 21 22 24 24 23 21 19 16 15 13 12 11 10 9 9 9 9
31 30 30 29 30 30 29 29 29 29 28 27 26 26 26 26 25 23 23 22 21 20 20 20 21 22 23 24 25 25 24 22 20 18 16 14 13 11 10 10 10 10
30 30 29 29 29 30 30 30 30 29 28 28 27 27 28 27 26 25 25 25 23 22 22 22 23 24 24 25 25 26 27 26 24 22 20 18 16 14 12 11 10 11
29 29 29 29 30 30 31 30 30 29 29 29 29 29 29 28 28 28 28 27 26 25 24 24 25 26 26 26 26 27 27 28 27 26 24 21 19 17 15 13 13 13
30 30 30 30 31 31 30 30 30 29 30 30 30 30 30 29 30 30 29 29 29 28 27 26 26 27 27 27 27 27 28 29 29 29 27 25 22 20 18 17 16 16
34 33 33 32 32 31 31 30 30 30 31 32 32 32 32 32 31 31 31 31 31 31 30 28 28 29 29 28 28 28 28 28 29 30 29 28 26 24 23 22 21 20
37 36 35 34 34 32 31 31 31 32 32 33 33 33 33 33 33 32 32 32 32 32 31 30 30 30 30 30 30 29 28 28 28 29 30 30 30 28 27 26 25 24
37 36 35 35 34 33 32 32 32 32 32 33 33 33 33 34 34 34 34 34 34 33 32 32 32 32 32 32 31 30 29 28 28 29 29 30 31 31 30 29 28 27
34 33 33 34 34 33 32 32 31 31 31 31 32 32 33 33 34 34 34 34 34 33 33 33 33 34 34 33 33 32 30 29 29 29 28 29 30 31 31 31 30 30
34 32 32 32 32 31 31 31 31 31 31 30 30 31 31 32 32 32 33 33 34 34 34 34 34 35 35 35 35 34 32 31 30 29 28 29 30 31 32 32 32 32

ECMWFNIL_500_spd_099.txt.gz
Wind_Speed
17 17 17 17 17 16 16 16 16 15 14 13 12 12 11 12 12 13 13 13 13 14 15 15 16 16 15 15 14 13 13 13 12 12 11 10 10 10 9 9 8 7
18 18 17 17 17 17 17 16 15 15 14 13 12 12 12 12 12 13 13 14 14 14 15 15 15 15 15 15 14 14 13 13 13 12 12 11 10 10 10 9 8 7
18 18 18 18 18 18 18 17 16 14 13 12 12 12 12 12 12 13 13 14 14 14 14 14 14 14 14 14 14 14 13 13 13 12 12 12 11 11 10 10 10 9
20 19 20 19 19 19 18 17 16 14 13 13 12 11 11 12 12 12 13 13 14 14 13 13 13 13 14 14 14 14 13 13 12 12 12 12 12 11 11 10 11 11
22 21 21 21 20 19 18 17 16 15 14 13 12 11 12 12 12 12 12 13 13 13 13 13 13 13 13 14 14 14 14 14 13 12 12 12 11 11 11 10 10 10
24 23 22 22 21 20 19 18 17 16 15 14 12 12 11 11 11 11 12 12 12 13 13 13 13 13 14 14 14 15 15 14 13 12 12 12 11 11 11 11 10 10
26 25 24 23 22 21 20 19 18 17 17 15 13 12 12 11 11 11 11 11 12 12 13 13 13 13 14 14 15 15 16 15 14 13 12 12 11 11 10 10 10 10
28 27 26 25 23 22 21 20 19 19 18 16 15 14 13 13 12 11 11 11 11 12 12 13 14 14 14 14 14 15 17 16 15 14 13 12 11 11 10 10 10 10
29 28 27 26 25 23 23 22 21 20 19 18 17 16 15 14 13 12 12 11 11 11 12 13 14 14 15 14 14 15 16 17 16 15 14 12 11 11 10 10 9 9
30 29 28 27 26 25 25 24 23 22 20 19 19 17 16 16 14 13 13 12 12 12 13 14 15 16 15 14 14 14 15 16 16 15 15 14 12 12 11 10 10 10
31 30 29 28 27 27 27 26 25 24 22 21 20 19 18 17 16 15 14 14 14 14 14 15 16 16 16 15 14 13 14 15 15 15 15 15 14 13 12 11 11 10
33 31 30 29 29 29 29 28 27 26 24 23 22 21 20 19 17 17 16 16 16 15 15 16 16 17 17 16 15 14 14 14 15 15 15 15 15 14 13 12 11 11
34 33 32 31 31 31 31 30 29 28 27 26 25 24 22 21 19 18 18 18 18 17 17 17 17 18 18 17 16 15 15 15 15 15 15 15 15 14 13 13 12 11
37 36 35 33 33 33 33 32 31 29 28 28 27 25 24 23 22 21 21 21 19 19 18 18 18 19 19 19 18 17 16 16 16 16 16 15 15 14 14 13 12 12
39 38 37 36 35 35 34 33 32 31 31 30 28 27 26 25 24 24 23 22 21 20 19 19 18 19 21 20 20 19 18 18 17 17 16 15 15 14 14 13 13 12
41 40 39 38 37 36 36 35 34 34 33 31 30 29 29 27 26 26 25 24 23 22 21 19 19 20 22 22 22 21 21 20 19 18 18 17 16 15 15 14 14 13
43 42 41 40 39 39 38 37 37 36 34 33 32 31 30 29 28 27 26 26 25 24 23 21 20 21 23 24 24 23 23 22 21 20 20 19 18 17 17 16 15 14
44 43 43 42 41 41 40 40 39 38 36 35 34 33 32 31 30 29 28 28 27 26 24 22 22 23 24 25 25 26 25 24 24 23 22 21 20 20 19 19 18 17
44 44 44 43 43 42 42 42 41 39 38 37 35 35 35 33 31 30 30 30 29 27 26 25 25 25 26 26 26 27 28 27 26 25 24 23 22 22 21 21 20 20
44 45 44 44 44 44 43 43 42 40 39 38 38 37 36 34 32 31 31 30 29 28 27 26 26 27 27 26 27 28 29 30 29 29 27 25 24 23 23 23 22 21
42 44 45 45 46 46 45 44 43 41 40 39 39 38 36 35 33 33 32 31 29 28 27 27 27 28 28 28 27 28 30 31 32 32 30 28 26 25 25 24 24 23
40 42 44 46 47 47 47 45 44 42 41 40 39 38 37 36 34 33 31 30 30 29 28 27 27 29 29 29 29 29 30 30 31 33 33 31 30 28 27 27 26 25
41 41 42 45 47 48 47 46 45 43 42 41 40 39 38 37 36 34 33 32 31 30 28 27 28 29 30 29 30 31 30 29 30 32 33 34 33 32 31 30 29 27
42 41 41 42 44 46 47 46 45 45 44 43 42 41 40 39 38 37 35 34 33 31 30 29 30 31 31 31 32 32 31 29 29 30 31 33 35 35 35 34 32 31
44 42 41 40 40 42 45 46 46 45 45 45 44 42 41 40 39 38 37 36 35 34 33 32 32 33 33 33 34 35 34 32 31 30 30 32 34 35 36 36 35 35
45 44 42 41 40 41 42 44 46 46 46 45 44 43 42 41 40 39 38 37 37 36 35 34 33 34 35 36 36 37 36 35 33 32 31 32 33 34 35 36 36 36

ECMWFNIL_500_spd_102.txt.gz
Wind_Speed
20 19 19 18 18 17 16 14 13 12 11 9 9 9 9 8 9 9 9 10 10 11 11 11 11 11 11 11 11 11 11 11 10 10 9 8 7 7 7 6 5 5
20 20 19 19 19 18 17 16 14 13 12 10 10 10 10 10 10 11 11 11 11 11 11 11 11 11 11 11 11 11 12 12 11 11 10 10 9 8 7 7 6 6
20 20 20 20 20 19 18 17 16 14 13 12 12 12 11 11 12 12 12 12 12 12 12 11 11 11 11 11 11 11 11 12 12 12 11 11 10 10 9 8 7 7
21 21 21 21 20 20 19 18 17 16 15 14 14 13 12 12 12 13 13 13 13 13 12 12 11 11 11 11 11 11 11 12 12 12 12 12 11 11 11 10 10 10
22 22 22 21 21 20 20 19 18 18 17 17 16 14 13 13 13 13 14 14 14 13 13 12 12 12 12 12 12 12 12 12 12 12 12 12 12 11 11 11 11 12
24 23 23 22 21 21 21 21 20 19 19 18 17 15 14 13 13 13 13 14 14 14 14 13 13 13 13 13 13 13 12 12 12 12 12 12 12 12 11 11 12 12
25 25 24 23 23 22 22 22 21 20 20 19 17 16 15 14 13 13 13 13 13 14 14 14 13 13 13 13 14 13 13 12 12 11 11 11 11 11 12 12 12 12
27 26 25 24 24 24 23 23 22 22 21 20 18 17 16 14 13 13 12 12 12 13 13 14 13 13 13 13 14 14 14 14 13 12 11 10 10 11 11 11 11 12
28 28 27 26 25 25 25 24 24 23 22 21 20 18 17 15 14 13 12 12 12 12 12 13 14 13 13 13 13 14 14 15 15 13 12 11 10 10 10 10 10 11
29 29 28 28 27 26 27 26 25 24 23 23 21 20 18 17 15 14 13 12 12 12 12 13 14 14 14 13 13 14 14 16 17 16 14 12 11 11 11 10 10 10
30 30 30 29 28 28 29 28 27 26 25 24 23 21 20 18 16 15 14 14 13 13 13 13 14 14 14 14 14 14 14 15 17 18 16 15 13 12 11 11 10 10
32 32 31 30 30 30 31 30 29 28 27 26 24 23 22 20 18 17 16 16 15 15 14 14 14 15 15 15 15 14 14 15 17 18 18 17 16 14 13 12 11 11
34 34 33 32 32 32 32 32 31 30 29 27 26 25 23 22 20 19 19 18 18 16 15 15 15 15 15 15 15 15 15 15 16 17 18 18 18 17 15 14 13 12
36 36 35 35 34 34 34 33 32 31 30 29 28 27 25 24 23 22 21 21 19 18 17 16 15 15 15 16 16 17 16 16 16 17 18 18 18 17 16 15 14 13
38 38 37 36 36 35 35 35 34 33 32 31 29 28 28 27 26 24 24 23 22 20 19 18 16 16 16 17 18 18 18 18 17 17 17 17 17 17 16 15 15 14
40 39 38 38 37 37 36 36 35 34 33 32 31 30 30 29 28 27 26 25 24 23 21 20 18 17 18 18 19 20 20 20 19 18 18 18 17 17 16 16 16 15
40 40 40 39 39 38 38 38 37 36 34 33 32 32 31 30 29 29 27 27 26 25 24 22 20 19 20 20 21 21 22 21 21 20 20 19 18 18 17 17 16 16
39 41 41 40 40 40 39 39 38 37 36 35 34 33 33 32 31 30 29 29 28 27 26 25 23 22 22 22 22 23 23 24 23 23 22 21 20 19 19 18 17 17
38 41 41 41 41 41 41 41 40 39 37 36 36 35 34 33 32 31 31 30 29 28 27 27 26 25 25 25 24 23 24 25 25 25 24 23 22 21 21 20 19 18
37 39 41 42 43 43 43 43 42 41 39 38 38 37 36 34 33 33 32 31 30 29 28 28 27 26 27 26 25 24 25 25 26 26 26 25 24 24 23 23 22 21
37 38 39 42 44 45 46 45 44 43 41 40 40 38 37 36 35 34 33 32 31 30 29 28 27 27 28 28 27 26 26 26 26 26 27 27 26 26 25 25 25 24
40 39 39 40 43 45 47 46 46 45 44 43 41 40 39 37 36 35 34 32 32 31 30 29 28 28 29 29 29 29 28 27 25 25 26 28 28 28 27 26 26 26
42 41 41 40 41 43 45 46 46 46 46 45 44 42 41 39 38 37 35 34 34 33 31 31 30 30 30 31 32 31 30 28 26 25 26 27 29 29 29 28 28 27
43 43 43 43 41 40 41 43 46 48 48 47 46 45 43 41 41 40 38 36 35 34 33 32 32 33 33 33 33 33 31 29 27 26 26 26 28 30 30 30 30 29
44 45 45 44 43 41 40 41 44 47 49 49 48 47 46 44 43 42 41 39 37 36 35 34 34 34 34 34 34 34 33 30 29 27 26 26 27 29 30 31 32 32
44 45 46 45 44 43 42 42 43 45 49 50 50 49 49 47 46 45 43 41 40 39 38 36 35 36 36 36 36 36 35 33 31 29 28 27 28 29 30 31 32 34

ECMWFNIL_500_spd_105.txt.gz
Wind_Speed
19 18 16 15 14 14 13 12 11 10 9 8 7 7 7 7 8 8 8 8 8 8 9 9 9 9 8 8 7 7 6 6 5 5 4 4 3 3 3 2 2 3
20 19 17 16 16 15 15 13 12 10 10 9 8 8 8 8 8 8 8 8 8 8 9 9 10 10 10 9 9 9 8 8 7 6 5 4 4 4 3 3 3 3
20 20 18 18 17 16 15 14 13 12 11 10 10 10 9 9 9 9 8 8 8 9 9 9 10 10 10 11 11 11 10 10 9 8 7 7 6 5 5 4 4 4
21 21 20 19 18 17 16 15 14 13 12 12 11 10 10 10 10 9 9 8 8 8 9 9 9 9 9 10 11 11 11 11 10 10 9 8 8 8 7 6 6 6
22 22 21 20 19 18 17 16 15 14 13 13 12 12 11 11 11 10 10 9 9 9 8 9 9 9 9 9 9 10 10 10 10 10 10 10 10 9 9 8 7 8
23 23 22 21 20 20 19 18 17 16 15 14 14 13 12 12 12 11 10 10 10 10 9 9 9 9 9 9 9 9 9 9 9 9 10 10 10 10 9 9 8 9
25 24 24 22 22 21 21 20 19 18 17 16 16 15 14 13 13 12 11 11 10 10 11 11 11 10 10 9 9 9 9 9 8 8 9 10 10 9 9 9 9 9
27 26 25 24 23 23 23 22 21 20 19 18 18 17 16 15 14 13 12 12 11 11 11 12 12 12 11 10 10 10 9 9 9 9 9 9 9 9 9 10 10 10
28 27 27 26 25 25 25 24 23 22 21 20 20 19 18 16 15 13 13 12 12 12 12 12 12 12 12 11 11 11 10 10 11 11 10 9 9 9 9 9 9 9
29 29 28 27 27 27 26 26 25 24 23 22 22 21 20 18 16 14 14 13 13 13 12 12 12 12 12 12 11 11 11 12 12 12 12 11 10 10 9 9 9 9
30 30 29 29 28 28 28 28 27 26 25 24 23 22 21 20 18 16 15 15 14 13 13 12 12 12 12 12 12 12 12 12 13 14 14 13 12 11 10 10 10 10
30 30 30 30 30 29 30 30 29 28 27 26 25 24 23 22 20 18 17 16 16 15 13 13 12 12 12 12 12 12 12 13 13 14 16 15 14 13 12 11 11 10
31 31 30 31 31 31 31 31 30 29 28 28 27 26 25 24 22 20 19 19 18 16 15 14 13 12 12 12 12 13 13 13 13 14 15 17 17 15 14 13 12 12
32 32 32 32 32 32 31 31 30 30 30 29 28 27 27 26 25 23 22 21 20 18 17 15 14 13 12 12 12 13 14 14 14 13 14 16 17 18 17 16 14 14
34 33 33 32 32 32 32 31 31 31 31 30 29 28 28 28 27 25 24 23 22 20 19 17 16 15 14 13 13 13 14 14 14 14 14 14 16 17 18 18 17 16
37 35 34 33 33 32 32 32 31 32 32 31 30 30 30 29 28 27 26 25 24 23 21 19 18 17 16 16 15 15 15 15 14 14 14 14 15 16 17 18 18 17
38 37 36 35 34 33 33 33 32 32 32 31 30 30 31 30 30 29 28 27 26 24 23 21 19 18 18 18 17 16 16 15 15 15 15 15 15 15 16 17 18 18
37 36 37 37 36 35 35 34 34 33 32 31 31 31 32 31 31 30 29 29 27 26 24 22 21 21 20 20 20 18 17 17 17 17 16 16 16 16 16 17 17 17
34 35 36 36 37 37 37 36 35 34 33 32 32 33 32 32 31 31 31 30 29 27 26 24 24 23 22 22 22 21 20 19 18 18 18 17 17 17 17 17 17 17
32 32 33 35 36 37 38 38 37 36 35 34 34 34 33 32 32 31 31 31 30 29 27 27 26 25 24 24 25 24 22 21 20 19 19 18 18 18 19 19 18 18
30 30 31 32 34 35 37 38 38 38 37 36 36 36 35 34 33 33 32 31 31 30 29 28 28 27 26 26 27 27 25 23 22 20 19 19 19 20 20 20 20 20
32 32 31 31 32 33 34 36 37 38 39 39 39 38 38 37 35 35 34 32 32 32 31 30 29 29 28 27 28 29 28 25 23 21 20 20 20 20 21 22 22 21
35 36 35 33 32 32 33 34 36 38 41 42 42 41 40 39 38 38 36 35 34 33 32 31 30 30 30 29 29 31 30 28 25 23 22 21 20 21 22 22 23 23
34 35 36 35 35 34 35 36 38 40 41 43 44 43 42 42 41 41 39 38 36 35 33 32 31 31 31 31 31 32 32 31 28 26 24 22 21 22 22 23 24 24
34 34 34 35 36 38 40 39 40 41 42 43 45 45 44 44 44 42 41 40 38 37 35 34 33 33 32 32 32 33 33 33 31 29 26 24 23 24 24 24 25 25
38 37 36 37 38 41 43 41 38 39 41 43 44 44 43 42 41 41 41 41 40 39 38 36 35 35 34 33 33 34 34 34 34 31 28 26 26 26 26 26 26 26

ECMWFNIL_500_spd_108.txt.gz
Wind_Speed
16 14 13 12 11 11 10 10 9 8 8 7 6 6 5 5 5 5 5 6 6 6 5 5 5 4 4 3 3 2 2 1 2 2 2 2 1 1 1 1 1 1
17 16 14 13 12 12 11 11 10 9 8 7 7 6 5 5 5 5 5 5 6 6 6 6 6 6 5 4 4 3 3 3 2 1 1 1 1 0 1 0 0 0
18 17 16 15 14 13 12 12 11 9 8 7 7 6 5 5 4 4 5 5 5 6 7 7 7 7 7 6 6 5 5 4 4 4 3 3 2 1 1 1 1 1
19 18 17 17 15 14 13 13 12 10 9 8 8 7 6 6 5 5 4 5 5 6 6 7 7 7 7 7 6 6 7 6 5 5 5 5 4 3 3 2 3 3
20 19 18 18 17 17 16 15 14 12 10 10 9 9 8 8 7 6 6 6 6 6 7 7 7 8 8 7 7 7 7 6 6 6 7 7 6 5 5 4 4 4
21 20 19 19 19 19 18 17 15 14 12 12 11 11 10 9 8 8 7 7 7 7 8 8 8 8 8 8 8 8 7 6 6 6 7 7 6 6 6 5 5 5
22 21 21 20 20 20 20 19 17 16 15 14 14 13 12 11 10 9 9 8 8 8 8 9 9 9 9 9 8 8 7 7 6 6 6 6 6 6 6 6 6 7
23 23 22 21 21 21 21 20 19 17 16 16 16 15 13 12 11 10 10 9 9 9 9 9 9 9 9 9 9 9 8 7 6 6 5 5 6 6 6 6 6 7
24 24 23 22 22 22 22 21 20 19 18 17 17 16 15 13 12 11 11 10 9 9 9 9 9 9 9 9 9 9 9 9 8 7 6 6 5 6 6 6 6 6
26 25 24 23 22 23 23 23 22 21 19 19 18 17 16 15 14 13 12 11 10 10 9 8 8 9 9 9 9 9 9 10 10 9 7 6 6 5 5 5 5 5
28 27 25 24 23 23 23 24 23 22 21 20 19 18 18 17 15 14 14 13 12 10 9 8 8 8 8 9 9 9 9 10 11 11 10 8 7 7 6 5 5 5
31 29 27 25 24 24 24 24 24 23 23 22 21 20 19 18 17 16 15 14 13 11 10 8 7 7 7 7 8 9 9 9 10 11 12 11 10 9 8 7 6 6
33 31 29 28 26 25 25 24 24 24 24 24 22 21 21 20 19 18 17 16 14 13 11 10 9 8 7 7 7 8 9 9 10 11 12 13 13 12 11 10 9 8
34 34 32 30 28 27 26 24 24 24 25 25 24 23 22 21 21 19 18 17 16 14 13 12 10 9 9 8 8 8 8 9 9 10 11 12 14 15 15 14 12 11
34 33 34 32 30 28 27 25 25 25 25 25 25 25 24 23 22 21 20 19 18 16 15 14 13 12 11 10 10 9 9 9 9 10 11 12 13 15 17 17 16 14
32 31 31 32 30 29 28 27 26 25 25 26 26 26 25 24 23 23 22 21 20 18 17 15 15 14 14 13 13 12 11 11 10 10 11 11 12 13 15 17 18 18
32 31 31 30 29 28 28 29 28 27 26 26 26 26 26 25 24 24 23 22 21 20 19 17 16 16 16 16 15 15 14 13 12 11 11 11 12 12 13 15 17 18
33 33 32 29 28 28 27 27 27 27 27 26 26 26 26 26 25 25 23 22 21 21 20 19 18 17 17 18 18 17 16 15 14 13 12 12 12 13 13 14 15 16
32 33 33 31 30 30 29 27 28 29 28 28 28 28 28 28 27 26 25 24 23 22 21 20 20 19 18 19 20 20 18 17 15 15 14 13 13 13 14 14 14 15
33 34 34 33 32 32 32 31 32 32 30 30 30 30 30 30 29 28 27 27 26 24 23 22 22 21 20 20 21 22 21 19 17 16 15 14 14 14 14 15 15 16
32 34 34 34 33 33 34 34 36 36 35 34 33 32 32 32 32 30 29 29 28 27 26 24 24 23 23 22 23 24 24 22 20 18 16 15 15 15 15 16 17 17
31 34 36 35 35 35 36 37 37 37 36 34 31 29 30 30 31 31 30 29 29 28 27 26 25 25 25 24 24 25 26 25 22 20 18 17 16 17 17 17 17 18
31 33 35 36 36 37 37 37 36 35 34 32 29 27 27 28 28 28 28 29 29 29 28 28 27 26 26 25 25 27 27 27 25 23 21 19 18 18 19 18 19 19
34 33 33 34 37 38 37 34 31 32 32 30 28 27 27 27 30 30 29 30 30 30 30 30 29 28 28 27 27 28 29 28 27 26 25 22 21 21 21 21 21 21
38 36 33 33 35 37 37 34 31 31 32 31 29 28 27 29 33 34 33 32 32 32 32 31 30 30 30 30 30 30 31 31 30 30 27 25 24 24 24 24 24 24
40 39 38 37 36 35 35 35 33 32 32 30 29 29 29 31 34 35 34 33 32 33 33 32 31 31 33 34 34 33 33 33 33 32 30 28 27 27 27 27 27 27

ECMWFNIL_500_spd_111.txt.gz
Wind_Speed
14 13 12 11 10 11 11 11 11 10 9 8 7 7 6 6 6 6 6 5 5 5 6 6 6 5 5 5 5 5 5 5 5 4 4 4 4 4 3 3 3 3
15 14 13 12 12 12 12 12 12 10 9 8 7 7 7 6 6 6 6 5 4 4 4 4 4 4 3 3 3 3 4 4 4 3 3 3 3 3 3 3 3 3
15 15 15 14 13 12 12 13 12 11 9 8 7 7 7 7 6 6 5 5 4 4 3 3 3 3 3 3 2 2 2 3 3 3 3 2 2 2 2 2 3 2
16 16 16 15 14 13 13 13 13 12 10 8 7 7 7 8 7 7 6 5 4 3 3 3 3 4 4 3 3 3 3 2 2 3 3 3 3 2 1 1 1 2
16 16 16 16 15 15 14 14 14 13 11 9 8 8 7 7 7 7 6 5 4 3 3 3 3 4 4 4 4 4 3 2 3 3 3 3 3 3 3 3 2 2
15 15 16 16 16 16 16 16 15 14 13 11 10 9 8 7 6 6 5 5 4 3 3 3 4 4 4 4 5 4 4 3 3 3 3 3 3 4 4 4 4 3
15 15 15 16 17 17 17 17 17 16 15 13 12 11 10 9 7 6 5 5 4 4 3 4 4 5 5 5 6 5 5 4 3 3 3 3 3 3 4 4 4 4
16 16 16 17 17 18 18 18 18 18 17 16 14 13 12 10 9 8 6 6 5 4 4 4 5 5 6 6 7 6 6 6 5 4 3 3 3 3 3 3 3 4
17 16 17 17 18 19 19 19 19 19 18 18 17 15 13 12 10 9 8 6 5 5 4 4 4 5 6 6 7 7 7 7 7 6 5 3 3 2 2 2 2 3
18 18 18 18 19 20 20 20 20 20 20 19 18 17 15 14 12 11 9 7 6 5 4 3 3 4 5 6 7 7 8 8 8 7 7 6 4 3 3 2 2 2
19 20 20 20 20 20 21 21 21 20 20 20 19 18 17 15 14 12 11 9 7 6 4 3 3 3 4 5 6 7 8 8 9 9 9 8 7 6 4 4 3 3
20 20 21 21 21 21 20 20 20 21 21 21 21 20 19 17 15 14 12 11 9 7 5 4 3 3 3 4 5 6 7 8 9 9 10 10 10 9 8 6 5 5
22 21 21 23 23 22 20 19 18 19 20 21 22 21 20 19 17 15 14 12 10 8 7 6 5 4 3 3 4 5 6 7 8 9 10 10 11 11 11 10 8 7
25 24 22 23 24 24 23 21 20 19 19 21 22 22 22 21 19 17 15 13 12 10 9 7 6 6 5 4 4 4 5 6 7 8 9 10 11 11 12 12 12 10
27 28 23 23 25 26 26 25 24 23 21 21 22 23 23 22 21 19 17 15 13 12 11 10 9 8 7 6 5 5 5 5 6 7 8 9 10 11 11 13 14 14
30 30 25 25 26 28 29 28 27 26 25 24 23 24 24 24 23 21 19 17 16 14 13 12 11 10 10 9 8 7 7 7 7 7 7 8 9 10 11 12 13 14
31 29 27 27 28 29 30 30 30 30 29 28 26 24 24 24 23 22 20 19 18 16 15 14 13 13 13 12 11 10 10 9 8 8 8 9 9 10 11 11 12 13
29 28 28 27 28 29 30 31 32 32 30 27 23 21 21 22 22 22 21 20 19 18 17 16 16 16 15 15 14 13 13 12 10 10 9 10 10 11 11 12 12 13
29 28 28 28 28 29 29 29 30 31 29 25 20 18 20 20 21 22 22 21 21 20 19 18 18 18 17 17 17 17 16 14 13 12 11 11 11 11 12 13 13 14
29 30 31 30 30 30 30 29 28 28 28 25 21 21 23 24 24 25 25 25 24 22 21 21 20 20 19 19 19 20 19 18 16 15 14 14 14 14 14 14 15 15
27 30 32 33 32 31 31 30 29 29 29 27 25 26 28 29 30 29 28 28 27 26 24 22 21 22 22 21 21 22 22 21 19 18 17 17 16 16 17 17 17 17
27 28 29 31 33 33 31 29 29 31 31 30 29 30 30 30 31 32 30 28 28 28 26 25 24 23 23 23 23 24 24 23 21 20 20 19 19 19 19 20 20 20
28 28 26 26 29 31 32 30 30 32 33 32 32 33 32 31 32 33 32 29 27 28 27 27 27 28 26 24 24 25 25 25 24 23 22 21 21 22 22 22 22 22
29 29 28 26 26 28 31 33 34 34 34 34 34 34 34 34 33 34 33 31 29 28 28 30 31 30 26 24 24 25 25 25 25 25 24 23 23 23 24 24 24 24
30 29 29 28 28 29 30 33 35 36 36 35 34 34 36 37 36 35 34 34 33 32 32 32 29 24 22 23 25 26 26 27 27 27 26 25 25 25 25 25 25 25
33 31 30 30 30 31 32 32 33 34 36 36 34 34 36 38 38 37 35 35 35 36 36 32 26 22 23 26 28 29 29 30 30 30 29 28 29 28 27 27 26 26

ECMWFNIL_500_spd_114.txt.gz
Wind_Speed
13 13 13 13 14 15 15 15 15 14 13 12 13 13 13 13 13 12 12 12 12 12 11 11 10 10 9 9 9 9 8 8 8 7 7 7 7 6 6 6 5 5
14 14 13 13 14 15 15 15 14 13 12 12 11 12 13 13 13 12 12 11 11 10 10 10 9 9 8 8 8 8 8 7 7 6 6 6 6 6 6 6 5 5
15 15 15 14 14 15 15 15 14 13 12 11 11 11 11 12 13 12 12 11 11 11 10 9 9 8 8 8 8 7 7 7 6 6 5 5 5 5 5 5 5 5
16 16 16 15 15 15 16 16 15 14 12 11 10 10 11 11 12 12 12 12 11 11 10 10 9 9 8 8 8 7 7 6 6 6 5 5 5 5 4 4 5 5
16 17 17 16 16 16 16 16 16 15 13 11 10 10 11 11 11 11 11 11 11 10 10 9 9 9 9 8 8 7 7 7 7 7 6 6 6 6 5 5 5 5
16 17 17 17 17 17 17 17 17 16 15 13 11 10 11 10 10 10 9 10 10 10 9 9 8 8 8 8 8 8 8 8 8 7 7 7 7 7 7 6 6 6
15 16 17 18 18 18 18 18 17 17 16 14 13 11 11 11 10 9 9 8 8 8 9 9 8 8 8 7 7 7 7 7 7 7 7 7 7 7 8 7 7 7
15 15 16 17 18 18 18 18 18 18 17 16 14 13 12 11 10 10 9 9 8 8 8 9 9 8 8 8 8 8 7 7 7 7 6 6 6 7 7 8 8 8
17 16 16 17 18 18 19 19 19 19 18 18 16 14 12 12 11 10 9 9 9 9 9 9 9 9 9 9 9 9 8 8 8 8 7 6 6 6 6 6 7 7
19 18 17 18 19 19 20 20 20 20 20 19 18 16 14 13 12 11 10 10 10 10 9 9 10 10 10 10 10 10 10 10 9 9 9 8 7 6 6 6 6 6
21 20 19 19 20 21 21 21 21 21 20 20 19 18 16 14 13 12 12 12 11 10 10 10 10 10 11 11 11 11 11 11 11 11 11 10 9 8 7 7 6 6
24 23 21 19 20 21 22 22 22 21 20 20 19 18 17 15 14 13 13 13 12 11 11 10 10 10 11 11 11 12 12 12 12 11 12 12 11 11 10 9 8 8
25 26 24 21 20 21 22 22 22 21 20 19 19 18 17 17 15 15 15 14 14 13 12 11 11 11 11 11 11 11 11 11 11 11 11 12 12 12 12 12 11 10
24 25 25 23 21 22 24 24 23 22 21 21 20 19 18 17 17 16 16 15 15 15 14 13 12 12 12 11 10 10 10 10 11 11 11 11 11 12 13 13 13 13
25 25 24 23 23 24 26 26 24 22 21 20 19 20 19 19 18 17 16 16 16 16 15 15 14 14 13 12 11 10 10 10 10 10 10 10 11 12 12 13 14 14
26 26 26 25 24 24 25 26 25 23 21 19 20 21 21 22 22 20 18 17 17 17 17 16 16 16 16 14 13 12 11 10 10 10 10 10 10 11 12 12 13 14
27 27 27 27 26 24 24 24 23 22 22 22 23 24 24 24 24 23 21 19 18 18 18 18 19 19 19 17 16 14 13 13 12 11 11 11 11 11 12 12 13 13
27 29 30 30 29 27 25 24 24 24 25 25 25 26 27 26 24 23 23 22 21 20 20 20 22 22 22 20 19 18 17 16 15 14 14 13 13 13 13 13 13 14
25 28 29 31 32 31 29 27 26 27 28 28 28 28 28 27 26 24 23 23 24 23 23 23 24 24 24 23 22 21 20 19 18 17 16 16 15 15 15 15 15 15
23 26 28 30 33 33 32 30 29 29 30 30 30 30 29 28 27 26 26 26 26 26 26 26 26 26 26 25 25 24 24 23 21 20 19 18 17 17 17 17 16 16
22 25 28 30 32 33 32 31 30 29 30 30 31 32 31 30 28 27 28 28 28 28 27 26 26 26 26 26 27 27 27 26 24 23 21 20 19 18 18 18 18 17
23 25 27 29 31 32 32 30 29 28 28 28 29 31 32 32 32 31 30 30 30 29 28 27 26 26 26 28 29 30 30 29 27 25 23 22 20 20 19 19 19 18
26 27 27 28 29 30 31 30 29 29 28 28 29 30 31 33 34 34 33 33 32 30 29 27 26 27 29 31 32 32 32 30 29 27 26 25 23 23 22 21 21 20
29 29 28 29 29 29 29 29 29 30 30 30 31 31 31 33 35 36 35 34 33 32 30 29 29 30 33 33 33 33 31 30 30 30 29 28 27 27 26 25 24 23
30 30 30 30 30 30 29 29 29 28 29 30 31 32 32 33 35 35 35 35 34 32 31 32 33 34 35 34 34 34 33 32 32 31 31 30 30 30 29 28 26 26
33 31 31 31 31 31 31 30 29 28 27 29 30 31 32 33 34 35 35 35 36 35 34 34 36 37 37 37 36 36 36 35 34 33 32 33 32 32 31 29 27 27

ECMWFNIL_500_spd_117.txt.gz
Wind_Speed
16 17 16 16 16 16 16 17 17 16 16 16 15 14 14 14 13 13 13 13 12 11 10 10 9 8 8 8 7 7 7 7 6 6 6 6 6 5 5 5 5 5
17 18 18 17 17 17 16 17 17 16 16 16 15 15 15 14 13 13 12 12 12 11 10 10 9 8 8 8 7 7 7 7 7 7 6 6 6 5 5 5 5 5
18 18 19 19 18 17 17 17 16 16 16 16 16 15 15 15 14 13 13 12 12 11 10 10 9 9 8 8 7 7 7 7 7 7 7 7 6 6 6 6 6 6
20 19 19 19 19 18 17 17 16 16 16 16 16 16 16 15 15 15 14 13 13 12 11 11 10 9 9 8 7 7 7 7 7 7 7 7 7 7 6 6 6 6
19 19 18 18 18 19 18 18 17 15 15 15 15 16 16 16 16 15 15 15 14 14 13 12 12 11 11 10 9 9 8 8 8 8 8 8 8 8 7 7 7 7
18 18 18 18 18 18 19 18 17 16 15 15 14 15 16 16 16 17 16 15 15 14 14 14 13 13 13 12 11 11 10 10 10 10 10 9 9 9 9 9 9 8
17 18 18 18 18 18 18 18 18 18 17 15 15 14 15 16 16 17 17 16 15 14 14 14 13 13 13 13 13 12 12 12 11 11 11 11 11 11 11 10 10 9
17 17 18 19 19 18 17 18 18 19 18 17 15 15 15 16 16 16 16 16 15 14 14 13 13 13 13 13 13 13 13 13 12 12 11 11 11 11 11 11 11 11
19 19 18 19 19 18 18 18 18 18 18 18 16 15 15 16 16 16 15 15 14 14 14 13 12 12 12 13 13 13 13 13 12 12 11 11 10 10 11 11 11 11
21 20 20 20 20 19 19 18 18 17 18 18 16 15 15 15 16 16 15 15 14 14 13 13 12 12 12 12 13 13 13 13 13 12 12 12 11 10 10 10 10 10
22 22 21 21 21 21 21 19 18 17 17 18 17 17 16 15 15 15 15 15 14 13 12 12 12 12 12 12 12 13 13 13 13 13 13 13 12 12 11 10 10 10
20 21 22 22 23 23 22 21 20 18 17 18 18 19 18 17 16 16 15 15 13 12 11 11 11 11 11 12 12 13 13 13 13 13 14 14 14 13 12 11 11 10
20 20 21 22 22 22 22 21 21 20 19 19 19 20 20 20 19 18 17 16 14 13 12 11 11 11 11 12 12 13 13 13 14 14 14 15 15 14 14 13 12 11
23 24 24 24 23 22 21 21 21 21 22 22 21 21 21 21 21 21 20 18 16 15 14 13 12 12 12 12 13 13 13 14 14 15 15 15 15 15 16 15 15 14
26 27 27 27 26 24 22 22 22 22 23 23 23 23 23 23 23 23 23 21 20 18 16 14 13 14 14 14 14 14 14 14 15 15 16 16 16 16 16 17 17 16
27 28 28 27 27 27 26 24 24 25 25 24 24 24 24 24 24 25 25 25 24 22 20 17 16 16 16 16 16 16 16 15 15 15 15 15 16 16 17 17 17 17
28 27 27 27 27 27 27 26 25 25 26 26 26 26 26 25 25 25 26 27 26 25 23 21 20 20 19 19 19 19 18 17 16 15 15 14 15 15 16 16 16 17
29 28 27 27 27 27 27 27 26 25 27 28 28 28 27 26 25 25 27 28 28 27 25 24 24 24 24 23 22 21 19 18 17 16 15 15 15 14 14 15 15 16
29 29 28 28 28 28 29 28 27 26 26 27 28 29 28 27 26 26 27 28 29 28 28 27 27 27 27 26 25 23 21 20 18 17 17 16 16 16 16 16 15 16
26 26 26 27 27 28 30 30 28 27 26 25 25 27 29 28 27 27 28 29 30 30 30 29 29 30 30 29 27 25 24 22 21 20 19 19 18 18 18 18 17 17
20 21 24 25 26 28 29 30 29 29 28 26 26 27 29 30 30 29 29 30 31 32 31 31 32 32 32 31 29 27 26 24 24 23 23 22 21 21 20 20 20 20
17 18 19 21 22 23 25 26 27 28 29 30 31 31 32 33 33 32 31 32 32 33 33 33 33 33 32 31 30 30 29 27 26 26 26 25 25 24 24 24 24 23
22 22 21 21 21 21 22 23 24 25 27 29 30 31 32 34 36 35 34 34 34 34 34 34 34 33 32 32 32 32 31 30 29 28 27 27 27 27 27 27 27 26
25 26 27 28 27 24 23 22 22 23 24 26 28 29 30 32 34 35 35 35 36 35 35 34 34 34 34 34 34 33 33 32 31 30 29 27 27 28 29 29 29 29
27 27 28 30 29 27 26 25 24 24 24 24 26 28 30 31 32 33 33 35 36 36 36 35 35 35 36 36 36 35 34 33 33 32 31 30 30 30 31 31 30 30
30 29 29 29 30 29 29 29 28 27 25 25 26 27 28 30 31 32 32 34 34 35 36 36 36 37 38 39 38 37 36 35 34 33 33 33 33 33 33 32 32 32

ECMWFNIL_500_spd_120.txt.gz
Wind_Speed
12 12 13 15 16 17 16 16 16 16 16 16 16 16 16 15 15 15 14 14 13 12 11 11 10 9 8 8 7 7 7 6 5 4 4 4 4 5 6 7 8 8
13 13 13 14 15 16 16 16 17 17 16 16 15 15 15 15 14 14 14 13 13 12 11 11 10 9 9 8 7 7 6 6 5 4 4 4 4 4 4 5 6 6
14 14 14 14 14 14 15 16 16 16 17 16 16 15 15 14 14 14 14 13 13 12 11 11 10 9 9 8 7 7 6 6 5 5 4 4 4 4 4 4 4 5
16 15 15 15 14 14 14 15 15 15 15 15 15 15 15 15 14 14 14 13 13 12 11 11 10 9 9 8 7 7 6 5 5 4 4 3 3 3 3 4 4 5
17 16 16 15 15 15 14 15 15 15 14 14 15 15 15 14 14 14 14 13 13 12 11 11 10 9 9 8 7 7 6 5 5 4 4 4 3 4 4 4 4 5
18 17 16 16 16 16 16 15 15 15 15 15 14 14 14 14 14 14 14 13 13 12 12 11 10 9 9 8 8 7 7 6 6 6 5 5 5 5 5 5 5 5
19 19 18 17 17 17 17 17 16 16 15 15 15 15 15 14 14 14 14 14 14 13 13 12 12 11 10 10 9 8 8 8 8 7 7 7 7 6 6 6 7 7
20 20 19 19 18 18 18 18 18 18 17 16 15 15 14 14 15 15 15 16 15 15 14 14 14 13 13 13 12 11 10 9 9 9 8 8 8 8 8 8 9 9
20 20 21 21 20 19 19 18 19 19 19 18 16 15 14 13 14 15 15 15 15 15 14 14 14 14 14 14 14 13 13 12 11 10 9 9 9 9 9 10 10 10
21 21 21 21 22 22 21 20 19 19 19 19 18 16 14 12 12 13 14 14 14 14 14 14 14 14 14 14 15 15 15 14 14 13 11 10 10 9 9 10 10 10
22 22 22 22 23 23 23 22 21 20 20 20 19 18 16 13 11 12 12 13 14 14 14 13 13 14 14 15 16 16 16 16 16 15 14 13 12 11 10 10 10 10
24 24 24 24 24 25 25 24 24 23 22 21 21 20 19 16 14 13 13 13 13 13 14 14 14 14 14 15 16 17 17 17 17 17 16 15 14 13 12 11 10 9
25 26 26 26 26 26 26 26 25 25 24 24 23 22 21 20 19 17 16 15 14 14 14 14 14 15 15 15 16 17 17 18 18 17 17 16 16 16 15 14 13 11
26 25 25 26 26 27 27 26 26 26 26 25 25 24 24 24 23 22 21 19 18 17 16 16 16 16 17 16 16 16 17 18 18 18 17 17 17 17 17 16 16 15
28 27 26 26 27 27 27 26 26 26 26 26 26 26 26 26 26 25 24 23 22 20 19 18 18 18 19 18 17 16 16 17 17 18 18 18 18 18 18 18 18 18
29 29 28 28 28 28 27 27 26 26 26 27 27 27 27 27 27 27 26 25 25 23 22 21 20 20 21 20 19 18 17 16 16 16 17 17 18 18 18 19 19 19
30 30 29 29 29 29 28 27 27 27 27 28 28 28 28 28 27 27 27 27 26 25 23 22 22 22 22 22 21 21 20 19 17 16 16 16 16 17 18 19 19 19
31 31 30 30 30 30 30 29 29 29 29 29 29 28 28 28 28 28 28 28 27 26 25 24 24 24 24 24 23 23 22 21 20 19 17 16 16 16 17 18 18 19
32 31 31 31 31 31 32 31 31 31 30 30 29 28 28 28 28 29 29 29 28 27 27 26 26 26 26 25 25 25 25 24 23 22 20 19 18 18 17 18 18 18
35 34 32 32 32 32 33 32 31 31 31 30 29 29 29 29 30 31 31 30 29 28 28 27 28 28 29 28 28 28 27 26 25 24 23 22 22 21 20 20 20 20
35 35 34 33 32 32 32 32 30 30 30 29 29 31 31 32 33 33 33 32 31 29 28 29 29 30 30 30 30 30 29 28 27 26 25 25 25 25 24 24 23 22
26 29 31 31 31 31 31 31 31 31 31 31 32 33 34 34 34 35 36 35 32 30 29 30 31 31 31 32 32 32 31 30 28 27 27 27 28 28 28 27 27 26
19 21 22 23 25 26 26 26 27 30 32 33 34 34 35 35 35 35 35 34 32 31 30 31 33 33 32 32 33 33 33 32 30 29 28 28 29 30 30 30 29 29
21 20 20 20 20 21 20 19 20 22 25 27 29 31 33 34 35 36 35 33 33 32 32 33 35 35 34 34 34 34 34 34 32 30 29 29 29 31 31 31 31 31
25 25 25 25 24 23 22 21 21 22 21 21 22 24 26 28 31 34 35 34 33 32 33 34 36 37 37 36 35 35 36 36 34 32 30 29 29 30 31 32 33 33
27 26 26 27 26 25 25 25 26 27 27 26 25 24 23 24 25 27 28 29 29 30 32 33 34 36 38 37 36 36 37 38 36 34 31 30 30 30 30 32 33 34

ECMWFNIL_500_spd_123.txt.gz
Wind_Speed
11 11 11 12 12 12 12 13 13 14 14 15 17 17 17 16 15 15 14 13 12 11 10 10 9 8 8 8 7 7 6 5 5 5 5 5 5 6 7 8 8 8
13 13 12 12 12 12 13 13 13 13 14 15 15 16 15 15 14 14 13 12 12 11 10 10 9 8 8 8 7 7 6 5 5 5 5 6 6 7 7 7 7 7
15 14 14 13 13 13 13 13 13 13 14 14 14 14 14 14 13 12 12 12 11 11 10 9 8 8 7 7 6 6 5 5 5 5 5 6 6 6 7 7 7 7
17 16 15 15 15 14 14 13 13 13 13 13 13 13 13 13 12 12 12 11 11 10 9 8 8 7 6 6 6 5 5 4 4 4 4 5 5 5 6 6 7 7
18 17 16 16 16 16 15 15 14 14 14 14 14 14 13 13 12 12 12 11 11 10 9 8 8 8 7 6 6 6 5 5 5 5 4 4 4 4 4 5 5 6
19 18 18 18 18 17 17 16 16 16 15 15 15 14 14 13 13 12 12 11 11 10 10 9 9 9 8 8 7 7 7 6 6 6 6 5 5 5 4 4 4 5
20 19 19 18 18 19 18 18 17 17 17 16 16 15 15 14 13 13 12 12 12 11 11 11 11 10 10 9 9 9 8 8 8 8 7 7 7 7 7 6 6 5
20 20 19 19 19 19 19 19 19 18 18 18 17 16 16 15 14 14 14 13 13 13 13 13 13 12 12 12 11 11 11 10 11 10 10 10 10 9 9 9 9 8
20 20 20 20 20 20 19 20 20 19 19 18 18 17 17 16 16 15 15 15 15 16 16 15 15 15 14 14 14 13 13 13 12 12 12 12 11 11 11 11 11 10
22 22 22 22 23 22 21 21 21 20 20 20 19 18 17 16 16 16 16 17 17 17 17 17 16 15 15 15 14 14 14 14 14 13 13 13 12 12 12 12 11 10
24 24 25 25 26 25 24 23 22 22 22 22 21 21 19 18 17 16 16 16 17 17 17 16 15 15 14 14 14 14 15 15 15 15 14 14 13 13 12 12 11 10
26 26 27 27 27 26 26 25 24 23 23 23 23 23 22 20 19 18 17 16 16 16 16 15 15 14 14 14 14 14 15 15 16 16 16 16 15 14 14 13 13 11
28 28 28 28 27 27 26 25 25 24 24 24 24 24 23 22 21 20 19 17 16 16 16 16 15 15 15 15 15 15 15 15 16 16 17 17 17 16 16 16 15 14
30 29 28 27 27 26 26 26 26 26 26 25 24 24 24 23 23 22 21 19 18 18 17 17 17 17 17 17 17 16 16 15 15 16 17 17 17 17 17 18 18 17
30 29 28 27 26 26 26 26 26 27 26 26 25 25 24 24 23 23 22 22 21 20 19 19 18 19 19 19 19 18 17 16 16 16 16 17 17 17 18 19 19 19
32 30 28 27 26 27 27 27 27 27 27 27 26 26 26 25 25 25 24 24 23 23 22 21 20 21 21 21 20 20 19 18 16 16 15 16 16 17 18 19 19 19
32 31 30 29 29 29 28 28 27 27 28 28 27 27 27 27 27 27 26 26 25 25 24 24 23 23 23 23 22 21 21 20 18 17 16 16 16 17 17 18 19 20
33 32 31 31 31 31 30 29 28 28 28 28 28 28 28 29 29 28 28 27 27 26 26 26 26 26 26 25 24 23 23 22 21 19 18 17 17 17 18 18 19 20
33 33 33 33 33 32 31 30 29 29 29 29 28 29 29 29 29 29 29 28 28 28 28 28 28 29 28 27 26 25 24 23 23 22 20 19 19 19 19 20 20 20
33 33 33 33 34 34 34 33 32 31 31 31 31 31 31 31 30 30 30 29 29 29 29 30 30 29 29 29 28 27 26 25 25 24 23 22 21 21 21 22 22 21
35 34 33 33 34 35 36 35 34 34 34 34 34 34 33 33 32 32 32 31 30 30 30 31 31 30 30 30 30 29 29 28 27 26 26 25 24 24 23 24 24 24
37 36 35 34 35 37 38 37 36 36 37 37 37 36 35 36 36 35 34 33 31 31 32 33 32 32 31 31 31 31 31 30 30 29 28 28 27 26 26 26 27 27
40 40 39 38 39 40 40 39 38 38 38 39 39 38 36 37 37 37 36 35 34 33 34 34 34 34 33 32 32 32 32 32 32 31 31 30 30 29 28 28 28 29
32 36 37 37 39 40 41 41 40 39 39 39 38 37 36 35 35 35 35 35 35 35 35 35 35 35 36 35 34 33 33 34 34 33 33 32 32 31 30 30 30 30
20 23 25 26 27 29 33 35 36 36 35 33 29 28 30 33 35 35 35 36 36 37 37 36 36 36 37 36 36 36 36 35 36 36 35 34 34 33 32 31 31 31
17 16 17 19 20 20 22 23 24 26 27 25 22 21 22 26 29 30 32 34 36 37 38 38 37 37 36 36 37 38 38 38 38 38 37 37 36 34 34 33 32 32

ECMWFNIL_500_spd_126.txt.gz
Wind_Speed
14 14 14 14 15 16 16 17 18 19 18 18 18 16 15 14 13 12 11 10 10 9 9 9 8 8 7 6 6 6 5 5 4 3 3 3 4 4 4 4 4 5
14 15 15 14 14 14 15 15 16 16 17 17 17 16 16 15 14 13 12 12 11 11 10 10 9 8 8 7 6 6 5 5 4 3 3 3 3 4 4 4 4 4
15 15 15 14 14 14 14 14 14 14 15 14 14 14 14 14 14 14 13 13 12 11 10 9 9 8 7 7 6 5 5 5 4 3 3 3 3 3 4 4 5 5
15 14 14 15 15 15 14 14 14 14 13 13 13 13 13 13 13 13 13 12 11 11 10 9 8 7 7 6 6 5 4 4 3 3 2 2 2 2 3 4 5 5
15 14 14 14 15 15 15 14 14 14 13 13 13 13 13 13 13 13 12 11 11 11 10 9 8 7 7 6 6 5 4 4 3 3 2 2 2 2 2 3 4 5
17 16 15 15 15 15 15 15 14 14 14 14 14 14 13 13 13 13 12 12 11 11 10 10 9 8 7 7 6 5 5 5 4 4 4 3 3 3 3 3 3 4
19 18 17 17 17 16 16 15 15 15 15 15 15 15 14 13 13 13 13 13 12 12 11 11 10 9 9 8 8 7 7 7 6 6 6 6 5 5 5 5 5 5
21 20 20 19 19 18 18 17 16 16 16 16 15 15 15 14 14 14 13 13 13 13 12 12 12 11 10 10 9 9 9 9 8 8 8 8 8 7 7 7 7 7
21 22 22 21 21 20 20 19 18 18 17 17 17 16 16 15 15 14 14 14 14 14 14 14 13 13 12 12 12 11 11 11 11 11 11 10 10 10 10 9 9 9
22 22 22 23 23 22 22 21 20 20 19 18 18 18 17 16 16 15 15 15 15 15 15 15 15 14 14 14 14 13 13 13 13 12 12 12 12 12 11 11 11 10
24 24 24 24 24 24 23 23 22 22 21 20 19 19 18 17 17 16 16 16 15 15 16 16 16 16 15 15 15 14 14 14 13 13 13 13 13 13 12 12 12 12
26 25 26 26 26 26 25 25 24 24 23 22 21 21 19 19 18 18 17 17 16 16 16 16 16 16 16 15 15 15 14 14 14 14 14 14 14 13 13 13 13 13
28 27 27 27 27 27 27 26 26 25 24 23 23 22 22 21 21 20 20 19 18 17 16 16 16 16 16 16 15 15 15 15 15 15 15 15 15 15 15 15 15 15
29 28 28 28 28 28 27 27 27 26 25 25 24 23 23 23 23 22 22 21 20 19 18 17 17 17 17 17 16 16 15 15 15 15 15 16 16 16 16 16 17 17
30 30 29 29 29 29 28 28 27 27 27 26 25 25 24 24 24 24 24 23 23 22 20 19 19 19 18 18 17 16 16 16 15 15 15 16 16 17 17 18 18 18
31 30 30 30 29 29 29 29 28 28 28 28 27 27 26 25 25 25 25 24 24 24 23 22 21 21 20 19 18 17 17 17 16 16 15 15 16 17 18 18 19 19
32 32 32 31 30 30 29 29 29 28 29 29 29 28 28 27 27 26 26 26 25 25 25 25 25 23 22 21 20 19 19 18 17 17 16 16 16 17 18 18 19 19
33 32 32 32 31 31 31 30 30 29 29 29 29 29 29 29 28 28 27 27 27 26 26 27 27 25 24 24 23 22 21 21 20 19 18 18 17 18 18 18 19 19
33 33 33 33 32 32 32 31 31 31 30 30 29 29 30 30 29 29 29 29 29 28 28 29 28 27 27 27 26 25 24 23 23 22 21 21 20 20 20 20 20 19
32 33 33 33 33 33 33 33 33 33 32 31 30 31 31 31 31 30 30 30 30 30 31 31 29 28 29 30 29 28 27 26 26 25 24 24 23 23 22 22 21 21
34 34 35 34 33 32 33 34 35 35 33 32 32 33 33 33 32 31 31 31 31 31 32 31 30 30 31 31 31 30 29 29 28 27 26 26 26 25 25 24 24 23
36 37 37 35 33 32 33 35 36 35 35 35 35 35 34 33 33 32 32 32 32 32 32 31 30 31 33 33 33 32 31 30 30 29 29 28 28 28 28 27 27 26
38 39 40 39 37 34 34 35 36 36 38 38 37 36 35 35 34 34 34 34 34 33 32 31 31 32 33 34 34 33 33 32 31 31 31 31 30 30 30 30 30 29
40 41 43 43 42 40 39 38 37 39 41 40 37 36 35 36 36 35 35 36 37 36 35 33 34 35 35 35 35 34 33 32 31 31 32 33 33 32 32 32 32 32
41 44 48 48 46 44 43 40 39 41 42 40 38 37 36 37 38 38 37 38 39 39 38 37 38 39 38 37 36 36 35 33 33 32 33 34 35 34 34 34 34 33
36 36 41 45 47 47 47 45 43 43 43 42 42 40 38 38 39 40 39 40 41 42 42 41 39 38 37 37 37 37 36 35 34 34 35 36 37 36 36 36 35 34

ECMWFNIL_500_spd_129.txt.gz
Wind_Speed
14 15 17 20 22 23 22 21 20 19 18 17 16 15 14 13 12 11 10 9 9 8 8 7 7 7 7 7 7 7 6 6 6 5 4 3 3 2 2 1 1 1
14 14 15 17 19 21 22 23 22 22 21 19 18 17 16 15 14 13 12 11 10 9 9 8 8 8 7 7 6 6 5 5 4 4 4 3 2 2 1 1 1 0
13 14 14 15 16 18 20 21 21 22 21 21 20 18 17 16 16 15 14 13 12 11 10 9 8 7 6 6 5 5 4 3 3 3 3 2 2 1 1 2 2 2
13 13 14 14 15 16 17 17 18 18 18 18 18 18 17 17 16 15 14 13 12 11 10 9 8 7 6 5 4 3 3 2 2 1 1 1 1 1 1 2 2 3
14 14 14 14 15 15 15 15 15 15 15 15 15 15 15 14 14 13 12 11 10 10 9 8 7 6 5 4 3 3 2 2 1 1 1 1 1 1 1 2 2 3
15 15 14 15 15 15 15 14 14 14 13 13 13 12 12 12 11 10 9 9 9 9 8 8 7 6 5 5 4 3 3 2 2 2 2 2 1 1 2 2 2 3
17 16 16 16 15 15 15 15 15 15 14 13 12 12 11 11 10 10 9 9 9 8 8 8 7 7 6 5 5 4 4 4 4 4 3 3 3 3 3 4 4 4
18 18 17 17 17 17 17 16 16 16 15 15 14 13 12 11 11 10 10 10 9 9 9 8 8 7 7 7 6 6 6 6 6 6 6 5 5 5 5 5 6 6
19 19 19 19 18 18 18 17 17 17 16 16 15 14 14 13 13 12 11 11 11 10 10 10 9 9 9 8 8 8 8 8 8 8 8 8 8 8 8 7 8 8
20 20 20 20 20 19 19 19 18 18 18 17 17 16 15 15 14 13 13 12 12 12 12 12 11 11 11 11 11 10 10 10 10 10 10 10 9 9 9 9 9 9
22 22 21 21 21 21 21 21 20 20 19 19 18 17 17 16 16 15 15 14 14 14 14 14 13 13 13 13 13 13 12 12 11 11 11 11 10 10 10 10 10 10
25 24 24 23 23 23 23 22 22 22 21 21 20 19 18 18 18 17 17 16 16 15 15 15 15 15 15 15 15 14 13 13 12 11 11 11 11 11 11 12 12 11
27 26 26 25 24 24 24 24 24 23 23 23 22 21 21 20 19 19 18 18 17 17 16 16 15 15 16 16 16 15 14 14 13 12 12 12 12 12 12 12 13 13
29 29 28 27 26 25 24 25 25 24 25 24 24 23 23 23 22 21 20 19 19 18 17 16 16 16 16 16 16 16 16 16 15 14 13 13 12 12 13 13 13 14
30 30 29 28 27 26 25 25 25 25 26 26 25 25 25 25 24 24 23 22 21 20 19 18 18 17 16 16 17 17 16 17 17 16 15 15 14 14 14 14 13 13
31 30 30 29 28 28 27 27 26 26 26 26 26 26 26 26 25 25 24 24 23 22 22 22 22 21 19 18 18 17 17 18 18 17 17 16 16 16 15 15 15 14
32 31 30 29 29 29 29 29 28 27 27 26 27 27 28 27 27 27 26 25 25 24 24 24 25 24 22 21 20 18 18 19 19 18 18 18 18 18 17 17 16 16
33 32 31 31 30 30 30 30 30 29 28 27 27 28 28 28 28 28 27 27 27 25 25 27 27 25 24 23 22 21 21 21 20 20 20 20 20 19 19 19 18 18
33 32 32 32 31 31 31 31 30 30 30 29 28 28 28 29 30 30 30 29 28 28 29 29 28 26 25 25 24 24 24 24 23 23 22 22 22 22 21 21 20 20
33 32 32 33 32 30 30 30 29 30 31 30 29 28 28 30 30 30 29 28 28 30 30 30 28 28 27 27 27 26 27 26 26 25 25 25 24 24 24 23 22 22
35 34 34 33 32 30 29 28 28 29 30 30 30 29 29 29 29 28 28 27 27 29 30 30 29 30 30 29 29 29 28 28 28 28 27 27 27 27 26 25 25 24
38 37 37 34 32 30 29 31 32 31 31 31 32 32 31 30 29 29 30 30 30 30 32 32 30 29 30 31 31 31 30 29 29 29 29 29 29 29 28 28 26 26
41 39 37 35 34 34 34 36 37 34 33 33 33 34 34 33 31 31 31 32 32 32 34 35 34 31 31 32 32 32 31 31 30 30 31 31 31 30 30 29 27 26
42 39 38 37 37 37 38 39 39 37 36 36 34 34 35 33 31 30 32 33 34 34 35 37 37 35 33 33 33 32 32 32 32 32 32 31 31 30 29 28 27 28
43 41 40 39 39 39 39 41 40 38 37 37 36 35 36 35 33 32 33 34 35 36 36 37 37 38 36 35 35 34 34 34 34 33 33 33 33 32 30 29 29 31
45 46 44 40 37 39 43 44 43 41 39 38 38 38 38 36 35 34 35 37 37 37 38 37 36 36 37 38 38 38 37 37 37 36 36 36 36 35 33 33 33 33